[[{"header":{"parameterUnit":"m.s-1","parameterCategory":1,"la1":30.6,"la2":29.2853,"lo1":-89.7004,"lo2":-87.6739,"dy":0.0162,"dx":0.0183,"nx":112,"ny":82,"refTime":"2023-09-24T06:00:00:Z","depth":0,"parameterNumber":2,"parameterNumberName":"U-component_of_WINDS"},"data":[0.0,0.0,0.0,0.0,0.0,0.0,0.0,0.0,0.0,0.0,0.0,0.0,0.0,0.0,0.0,0.0,0.0,0.0,0.0,0.0,0.0,0.0,0.0,0.0,0.0,0.0,0.0,0.0,0.0,0.0,0.0,0.0,0.0,0.0,0.0,0.0,0.0,0.0,0.0,0.0,0.0,0.0,0.0,0.0,0.0,0.0,0.0,0.0,0.0,0.0,0.0,0.0,0.0,0.0,0.0,0.0,0.0,0.0,0.0,0.0,0.0,0.0,0.0,0.0,0.0,0.0,0.0,0.0,0.0,0.0,0.0,0.0,0.0,0.0,0.0,0.0,0.0,0.0,0.0,0.0,0.0,0.0,0.0,0.0,0.0,0.0,0.0,0.0,0.0,0.0,-1.5136,-1.5722,-1.8406,-2.0476,-2.1357,-1.9876,-1.9776,-2.187,0.0,0.0,0.0,0.0,0.0,0.0,0.0,0.0,0.0,0.0,0.0,0.0,0.0,0.0,0.0,0.0,0.0,0.0,0.0,0.0,0.0,0.0,0.0,0.0,0.0,0.0,0.0,0.0,0.0,0.0,0.0,0.0,0.0,0.0,0.0,0.0,0.0,0.0,0.0,0.0,0.0,0.0,0.0,0.0,0.0,0.0,0.0,0.0,0.0,0.0,0.0,0.0,0.0,0.0,0.0,0.0,0.0,0.0,0.0,0.0,0.0,0.0,0.0,0.0,0.0,0.0,0.0,0.0,0.0,0.0,0.0,0.0,0.0,0.0,0.0,0.0,0.0,0.0,0.0,0.0,0.0,0.0,0.0,0.0,0.0,0.0,0.0,0.0,0.0,0.0,0.0,0.0,0.0,0.0,0.0,0.0,0.0,0.0,0.0,0.0,0.0,0.0,0.0,0.0,-1.5831,-1.6982,-1.8455,-1.972,-2.0586,-1.8179,-1.762,-2.0045,0.0,0.0,0.0,0.0,0.0,0.0,0.0,0.0,0.0,0.0,0.0,0.0,0.0,0.0,0.0,0.0,0.0,0.0,0.0,0.0,0.0,0.0,0.0,0.0,0.0,0.0,0.0,0.0,0.0,0.0,0.0,0.0,0.0,0.0,0.0,0.0,0.0,0.0,0.0,0.0,0.0,0.0,0.0,0.0,0.0,0.0,0.0,0.0,0.0,0.0,0.0,0.0,0.0,0.0,0.0,0.0,0.0,0.0,0.0,0.0,0.0,0.0,0.0,0.0,0.0,0.0,0.0,0.0,0.0,0.0,0.0,0.0,0.0,0.0,0.0,0.0,0.0,0.0,0.0,0.0,0.0,0.0,0.0,0.0,0.0,0.0,0.0,0.0,0.0,0.0,0.0,0.0,0.0,0.0,0.0,0.0,0.0,0.0,0.0,0.0,0.0,0.0,0.0,-1.6526,-1.7102,-1.8161,-1.9252,-2.0175,-2.0811,-1.851,-1.8022,-2.0408,-1.7133,0.0,0.0,0.0,0.0,0.0,0.0,0.0,0.0,0.0,0.0,0.0,0.0,0.0,0.0,0.0,0.0,0.0,0.0,0.0,0.0,0.0,0.0,0.0,0.0,0.0,0.0,0.0,0.0,0.0,0.0,0.0,0.0,0.0,0.0,0.0,0.0,0.0,0.0,0.0,0.0,0.0,0.0,0.0,0.0,0.0,0.0,0.0,0.0,0.0,0.0,0.0,0.0,0.0,0.0,0.0,0.0,0.0,0.0,0.0,0.0,0.0,0.0,0.0,0.0,0.0,0.0,0.0,0.0,0.0,0.0,0.0,0.0,0.0,0.0,0.0,0.0,0.0,0.0,0.0,0.0,0.0,0.0,0.0,0.0,0.0,0.0,0.0,0.0,0.0,0.0,0.0,0.0,0.0,0.0,0.0,0.0,0.0,0.0,0.0,0.0,0.0,0.0,-1.7308,-1.7457,-1.8722,-1.953,-2.0169,-2.0623,-1.8988,-1.8701,-2.0468,-1.6915,0.0,0.0,0.0,0.0,0.0,0.0,0.0,0.0,0.0,0.0,0.0,0.0,0.0,0.0,0.0,0.0,0.0,0.0,0.0,0.0,0.0,0.0,0.0,0.0,0.0,0.0,0.0,0.0,0.0,0.0,0.0,0.0,0.0,0.0,0.0,0.0,0.0,0.0,0.0,0.0,0.0,0.0,0.0,0.0,0.0,0.0,0.0,0.0,0.0,0.0,0.0,0.0,0.0,0.0,0.0,0.0,0.0,0.0,0.0,0.0,0.0,0.0,0.0,0.0,0.0,0.0,0.0,0.0,0.0,0.0,0.0,0.0,0.0,0.0,0.0,0.0,0.0,0.0,0.0,0.0,0.0,0.0,0.0,0.0,0.0,0.0,0.0,0.0,0.0,0.0,0.0,0.0,0.0,0.0,0.0,0.0,0.0,0.0,0.0,0.0,0.0,0.0,-1.6208,-1.575,-1.8184,-1.846,-1.8621,-1.9022,-1.8635,-1.8477,-1.875,-1.7467,0.0,0.0,0.0,0.0,0.0,0.0,0.0,0.0,0.0,0.0,0.0,0.0,0.0,0.0,0.0,0.0,0.0,0.0,0.0,0.0,0.0,0.0,0.0,0.0,0.0,0.0,0.0,0.0,0.0,0.0,0.0,0.0,0.0,0.0,0.0,0.0,0.0,0.0,0.0,0.0,0.0,0.0,0.0,0.0,0.0,0.0,0.0,0.0,0.0,0.0,0.0,0.0,0.0,0.0,0.0,0.0,0.0,0.0,0.0,0.0,0.0,0.0,0.0,0.0,0.0,0.0,0.0,0.0,0.0,0.0,0.0,0.0,0.0,0.0,0.0,0.0,0.0,0.0,0.0,0.0,0.0,0.0,0.0,0.0,0.0,0.0,0.0,0.0,0.0,0.0,0.0,0.0,0.0,0.0,0.0,0.0,0.0,0.0,0.0,0.0,0.0,0.0,-1.7376,-1.7234,0.0,-1.856,-1.8536,-1.8239,-1.7676,-1.7522,-1.7949,0.0,0.0,0.0,0.0,0.0,0.0,0.0,0.0,0.0,0.0,0.0,0.0,0.0,0.0,0.0,0.0,0.0,0.0,0.0,0.0,0.0,0.0,0.0,0.0,0.0,0.0,0.0,0.0,0.0,0.0,0.0,0.0,0.0,0.0,0.0,0.0,0.0,0.0,0.0,0.0,0.0,0.0,0.0,0.0,0.0,0.0,0.0,0.0,0.0,0.0,0.0,0.0,0.0,0.0,0.0,0.0,0.0,0.0,0.0,0.0,0.0,0.0,0.0,0.0,0.0,0.0,0.0,0.0,0.0,0.0,0.0,0.0,0.0,0.0,0.0,0.0,0.0,0.0,0.0,0.0,0.0,0.0,0.0,0.0,0.0,0.0,0.0,0.0,0.0,0.0,0.0,0.0,0.0,0.0,0.0,0.0,0.0,0.0,0.0,0.0,0.0,0.0,-1.8065,-1.7451,-1.7236,0.0,-1.8005,-1.7743,-1.7473,-1.7102,-1.7099,-1.7601,0.0,0.0,0.0,0.0,0.0,0.0,0.0,0.0,0.0,0.0,0.0,0.0,0.0,0.0,0.0,0.0,0.0,0.0,0.0,0.0,0.0,0.0,0.0,0.0,0.0,0.0,0.0,0.0,0.0,0.0,0.0,0.0,0.0,0.0,0.0,0.0,0.0,0.0,0.0,0.0,0.0,0.0,0.0,0.0,0.0,0.0,0.0,0.0,0.0,0.0,0.0,0.0,0.0,0.0,0.0,0.0,0.0,0.0,0.0,0.0,0.0,0.0,0.0,0.0,0.0,0.0,0.0,0.0,0.0,0.0,0.0,0.0,0.0,0.0,0.0,0.0,0.0,0.0,0.0,0.0,0.0,0.0,0.0,0.0,0.0,0.0,0.0,0.0,0.0,0.0,0.0,0.0,0.0,0.0,0.0,0.0,0.0,0.0,0.0,0.0,0.0,0.0,-1.8261,-1.5952,-1.5034,-1.7507,-1.6475,-1.5893,-1.6614,-1.7057,-1.7409,0.0,0.0,0.0,0.0,0.0,0.0,0.0,0.0,0.0,0.0,0.0,0.0,0.0,0.0,0.0,0.0,0.0,0.0,0.0,0.0,0.0,0.0,0.0,0.0,0.0,0.0,0.0,0.0,0.0,0.0,0.0,0.0,0.0,0.0,0.0,0.0,0.0,0.0,0.0,0.0,0.0,0.0,0.0,0.0,0.0,0.0,0.0,0.0,0.0,0.0,0.0,0.0,0.0,0.0,0.0,0.0,0.0,0.0,0.0,0.0,0.0,0.0,0.0,0.0,0.0,0.0,0.0,0.0,0.0,0.0,0.0,0.0,0.0,0.0,0.0,0.0,0.0,0.0,0.0,0.0,0.0,0.0,0.0,0.0,0.0,0.0,0.0,0.0,0.0,0.0,0.0,0.0,0.0,0.0,0.0,0.0,0.0,0.0,0.0,0.0,0.0,0.0,0.0,-1.7551,-1.5643,-1.4652,-1.6089,-1.5866,-1.5477,-1.5172,-1.5738,-1.6861,-1.8643,0.0,0.0,0.0,0.0,0.0,0.0,0.0,0.0,0.0,0.0,0.0,0.0,0.0,0.0,0.0,0.0,0.0,0.0,0.0,0.0,0.0,0.0,0.0,0.0,0.0,0.0,0.0,0.0,0.0,0.0,0.0,0.0,0.0,0.0,0.0,0.0,0.0,0.0,0.0,0.0,0.0,0.0,0.0,0.0,0.0,0.0,0.0,0.0,0.0,0.0,0.0,0.0,0.0,0.0,0.0,0.0,0.0,0.0,0.0,0.0,0.0,0.0,0.0,0.0,0.0,0.0,0.0,0.0,0.0,0.0,0.0,0.0,0.0,0.0,0.0,0.0,0.0,0.0,0.0,0.0,0.0,0.0,0.0,0.0,0.0,0.0,0.0,0.0,0.0,0.0,0.0,0.0,0.0,0.0,0.0,0.0,0.0,0.0,0.0,0.0,0.0,0.0,-1.7351,-1.5624,-1.4716,-1.5907,-1.525,-1.4911,-1.5341,-1.5337,-1.6256,-1.8462,0.0,0.0,0.0,0.0,0.0,0.0,0.0,0.0,0.0,0.0,0.0,0.0,0.0,0.0,0.0,0.0,0.0,0.0,0.0,0.0,0.0,0.0,0.0,0.0,0.0,0.0,0.0,0.0,0.0,0.0,0.0,0.0,0.0,0.0,0.0,0.0,0.0,0.0,0.0,0.0,0.0,0.0,0.0,0.0,0.0,0.0,0.0,0.0,0.0,0.0,0.0,0.0,0.0,0.0,0.0,0.0,0.0,0.0,0.0,0.0,0.0,0.0,0.0,0.0,0.0,0.0,0.0,0.0,0.0,0.0,0.0,0.0,0.0,0.0,0.0,0.0,0.0,0.0,0.0,0.0,0.0,0.0,0.0,0.0,0.0,0.0,0.0,0.0,0.0,0.0,0.0,0.0,0.0,0.0,0.0,0.0,0.0,0.0,0.0,0.0,0.0,0.0,-1.7513,-1.5845,-1.5088,-1.635,-1.4719,-1.4346,-1.6367,-1.5617,-1.5862,-1.784,0.0,0.0,0.0,0.0,0.0,0.0,0.0,0.0,0.0,0.0,0.0,0.0,0.0,0.0,0.0,0.0,0.0,0.0,0.0,0.0,0.0,0.0,0.0,0.0,0.0,0.0,0.0,0.0,0.0,0.0,0.0,0.0,0.0,0.0,0.0,0.0,0.0,0.0,0.0,0.0,0.0,0.0,0.0,0.0,0.0,0.0,0.0,0.0,0.0,0.0,0.0,0.0,0.0,0.0,0.0,0.0,0.0,0.0,0.0,0.0,-2.0585,0.0,0.0,0.0,0.0,0.0,0.0,0.0,0.0,0.0,0.0,0.0,0.0,0.0,0.0,0.0,0.0,0.0,0.0,0.0,0.0,0.0,0.0,0.0,0.0,0.0,0.0,0.0,0.0,0.0,0.0,0.0,0.0,0.0,0.0,0.0,0.0,0.0,0.0,0.0,0.0,0.0,-1.7585,-1.6289,-1.5257,-1.5003,-1.47,-1.471,-1.5245,-1.5721,-1.7147,-1.9815,-1.9708,0.0,0.0,0.0,0.0,0.0,0.0,0.0,0.0,0.0,0.0,0.0,0.0,0.0,0.0,0.0,0.0,0.0,0.0,0.0,0.0,0.0,0.0,0.0,0.0,0.0,0.0,0.0,0.0,0.0,0.0,0.0,0.0,0.0,0.0,0.0,0.0,0.0,0.0,0.0,0.0,0.0,0.0,0.0,0.0,0.0,0.0,0.0,0.0,0.0,0.0,0.0,0.0,0.0,0.0,0.0,0.0,0.0,0.0,0.0,0.0,-2.2123,0.0,0.0,0.0,0.0,0.0,0.0,0.0,0.0,0.0,0.0,0.0,0.0,0.0,0.0,0.0,0.0,0.0,0.0,0.0,0.0,0.0,0.0,0.0,0.0,0.0,0.0,0.0,0.0,0.0,0.0,0.0,0.0,0.0,0.0,0.0,0.0,0.0,0.0,0.0,0.0,-1.795,-1.6994,-1.6167,-1.579,-1.5627,-1.5869,-1.6607,-1.6892,-1.7828,-1.9719,-2.0311,0.0,0.0,0.0,0.0,0.0,0.0,0.0,0.0,0.0,0.0,0.0,0.0,0.0,0.0,0.0,0.0,0.0,0.0,0.0,0.0,0.0,0.0,0.0,0.0,0.0,0.0,0.0,0.0,0.0,0.0,0.0,0.0,0.0,0.0,0.0,0.0,0.0,0.0,0.0,0.0,0.0,0.0,0.0,0.0,0.0,0.0,0.0,0.0,0.0,0.0,0.0,0.0,0.0,-2.9853,-3.1177,-3.1796,-3.2352,-3.2681,-3.2558,-2.7867,-2.5801,-2.5571,-2.3241,0.0,0.0,0.0,0.0,0.0,0.0,0.0,0.0,0.0,0.0,0.0,0.0,0.0,0.0,0.0,0.0,0.0,0.0,0.0,0.0,0.0,0.0,0.0,0.0,-2.3409,-2.3691,-2.0923,0.0,0.0,0.0,0.0,0.0,0.0,0.0,0.0,0.0,0.0,0.0,-1.869,-1.7902,-1.7309,-1.7179,-1.6834,-1.7122,-1.8359,-1.8093,-1.8205,-1.8998,-2.0655,-2.1054,0.0,0.0,0.0,0.0,0.0,0.0,0.0,0.0,0.0,0.0,0.0,0.0,0.0,0.0,0.0,0.0,0.0,0.0,0.0,0.0,0.0,0.0,0.0,0.0,0.0,0.0,0.0,0.0,0.0,0.0,0.0,0.0,-2.197,-2.0907,0.0,0.0,0.0,0.0,0.0,0.0,0.0,0.0,0.0,0.0,0.0,0.0,0.0,-2.7379,-2.843,-3.1422,-3.2353,-3.134,-3.3596,-3.4306,-3.3663,-3.4375,-3.5058,-3.5545,-3.3323,0.0,-2.8677,-2.6823,0.0,0.0,0.0,0.0,0.0,0.0,0.0,0.0,0.0,0.0,0.0,0.0,0.0,0.0,0.0,0.0,0.0,0.0,0.0,0.0,0.0,0.0,-2.3943,-2.3915,-2.4063,-2.4118,0.0,-2.3263,-2.2991,-2.3073,-2.2438,0.0,0.0,0.0,0.0,0.0,0.0,0.0,-1.9993,-1.9074,-1.816,-1.7515,-1.751,-1.7633,-1.7882,-1.8,-1.839,-1.9214,-1.953,-1.9884,-2.0368,-2.1835,0.0,0.0,0.0,0.0,0.0,0.0,0.0,0.0,0.0,0.0,0.0,0.0,0.0,0.0,0.0,0.0,0.0,0.0,0.0,0.0,0.0,0.0,0.0,0.0,0.0,0.0,0.0,0.0,0.0,-2.3293,-2.4632,-2.2975,-2.4204,-2.4293,0.0,0.0,0.0,0.0,0.0,0.0,0.0,0.0,0.0,-2.9318,-3.0331,-3.135,-3.2336,-3.4449,-3.5386,-3.5186,-3.7186,-3.7934,-3.7557,-3.8175,-3.8657,-3.8894,-3.8159,-3.6362,-3.3685,-3.0315,-2.8742,-2.8138,0.0,0.0,0.0,0.0,-2.196,-2.2836,-2.3175,-2.4267,-2.5421,-2.5,0.0,0.0,0.0,0.0,0.0,0.0,0.0,-2.2156,0.0,0.0,-2.5745,-2.559,-2.5199,-2.4879,-2.4879,-2.4358,-2.4062,0.0,-2.4414,-2.3942,-2.3372,0.0,0.0,0.0,0.0,-2.0209,-2.0591,-1.9577,-1.8699,-1.8386,-1.8507,-1.8617,-1.864,-1.872,-1.8922,-1.9279,-1.9297,-1.9462,-1.9803,-2.1179,-2.1741,0.0,0.0,0.0,0.0,0.0,0.0,0.0,0.0,0.0,0.0,0.0,0.0,0.0,0.0,0.0,0.0,0.0,0.0,0.0,0.0,0.0,0.0,0.0,0.0,0.0,0.0,0.0,0.0,-2.5344,-2.6781,-2.466,-2.6962,-2.7743,0.0,0.0,0.0,0.0,0.0,0.0,-3.1232,-3.134,-3.2169,-3.4062,-3.4394,-3.4955,-3.5854,-3.7199,-3.8219,-3.8922,-4.0263,-4.0981,-4.1143,-4.1529,-4.1717,-4.1682,-4.1279,-4.0084,-3.8095,-3.3821,-3.1808,-3.1121,-2.825,-2.7363,-2.7512,-2.5811,-2.5997,-2.715,-2.7475,-2.8293,-2.9196,-2.9013,-2.8402,-2.7362,-2.5328,0.0,0.0,0.0,0.0,-2.4328,-2.5604,-2.6264,-2.6534,-2.6346,-2.5686,-2.5081,-2.5081,-2.4622,-2.4432,0.0,-2.5383,-2.5161,-2.4385,0.0,0.0,0.0,0.0,-2.1006,-2.1396,-2.0236,-1.9385,-1.9385,-1.9324,-1.9297,-1.9297,-1.9297,-1.9297,-1.9297,-1.9297,-1.9297,-1.9297,-2.0711,-2.1334,-2.1064,0.0,0.0,0.0,0.0,0.0,0.0,0.0,0.0,0.0,0.0,0.0,0.0,0.0,0.0,0.0,0.0,0.0,0.0,0.0,0.0,0.0,0.0,0.0,0.0,0.0,0.0,0.0,0.0,0.0,-2.5551,-2.9942,0.0,0.0,0.0,0.0,-3.173,-3.2383,-3.3784,-3.6116,-3.5363,-3.5821,-3.795,-3.8279,-3.8781,-3.9529,-4.0854,-4.1846,-4.2436,-4.2548,-4.2849,-4.3352,-4.3369,-4.3386,-4.3277,-4.1772,-4.1022,-4.0655,-3.7364,-3.5083,-3.3506,-3.205,-3.196,-3.2456,-3.0833,-3.0302,-3.0224,-2.9245,-2.8955,-2.9267,-3.0748,-3.0693,-2.9925,-2.927,-2.7307,0.0,0.0,-2.6295,-2.5699,-2.66,-2.6171,-2.5478,-2.5458,-2.486,-2.4263,-2.4263,-2.4226,-2.4218,0.0,-2.4283,-2.4302,-2.4385,0.0,-2.3891,-2.422,-2.3203,-2.25,-2.285,-2.1457,-2.0421,-2.0421,-1.974,-1.9297,-1.9297,-1.9297,-1.9297,-1.9297,-1.9297,-1.9297,-1.9297,-2.0107,-2.0941,-2.1719,-2.2563,0.0,0.0,0.0,0.0,0.0,0.0,0.0,0.0,0.0,0.0,0.0,0.0,0.0,0.0,0.0,0.0,0.0,0.0,0.0,0.0,0.0,0.0,0.0,0.0,0.0,0.0,0.0,0.0,-3.1668,-3.4171,0.0,-3.4206,-3.408,-3.457,-3.5736,-3.6881,-3.8321,-4.0169,-4.0085,-4.058,-4.1864,-4.1123,-4.0826,-4.1086,-4.1937,-4.248,-4.2693,-4.305,-4.3303,-4.3515,-4.3515,-4.3515,-4.3478,-4.2892,-4.2359,-4.1754,-4.0084,-3.812,-3.6024,-3.4473,-3.4028,-3.4218,-3.3627,-3.3425,-3.3375,-3.2989,-3.2509,-3.1935,-3.0944,-3.043,-2.9976,-2.875,-2.7735,-2.7097,-2.7518,-2.7337,-2.7214,-2.8038,-2.7992,-2.7585,-2.7082,-2.6319,-2.5603,-2.5081,-2.4566,-2.419,-2.419,-2.419,-2.4161,-2.3988,-2.3988,-2.4006,-2.3949,-2.3321,-2.2867,-2.2978,-2.2024,-2.1125,-2.0566,-2.0236,-2.0071,-2.0071,-1.9601,-1.9517,-2.0034,-1.9583,-1.9297,-1.9297,-2.0619,-2.1482,-2.1794,-2.311,-2.364,0.0,0.0,0.0,0.0,0.0,0.0,0.0,0.0,0.0,0.0,0.0,0.0,0.0,0.0,0.0,0.0,0.0,0.0,0.0,0.0,0.0,0.0,0.0,0.0,0.0,0.0,-3.5322,-3.5483,-3.7684,-3.8996,-3.8487,-3.8504,-3.8998,-4.01,-4.1267,-4.2396,-4.3461,-4.3504,-4.3633,-4.3886,-4.3005,-4.2388,-4.2101,-4.2675,-4.2976,-4.2976,-4.3321,-4.3515,-4.3515,-4.3515,-4.3515,-4.3478,-4.3221,-4.2635,-4.1827,-4.1038,-3.9588,-3.7804,-3.6674,-3.6252,-3.6178,-3.5646,-3.5445,-3.5353,-3.4784,-3.4417,-3.3899,-3.2027,-3.1237,-3.076,-2.942,-2.8833,-2.8539,-2.8282,-2.8209,-2.8338,-2.8858,-2.8803,-2.8393,-2.7585,-2.6778,-2.597,-2.5172,-2.4585,-2.419,-2.419,-2.419,-2.4337,-2.4762,-2.5033,-2.5336,-2.5781,-2.5602,-2.5391,-2.5391,-2.4094,-2.2861,-2.2013,-2.1074,-2.0503,-2.0503,-2.0088,-2.0148,-2.0886,-2.0243,-1.9926,-2.015,-2.1274,-2.2031,-2.2306,-2.4431,-2.5046,-2.411,0.0,0.0,0.0,0.0,0.0,0.0,0.0,0.0,0.0,0.0,0.0,0.0,0.0,0.0,0.0,0.0,0.0,0.0,0.0,0.0,0.0,0.0,0.0,-3.0708,-3.4695,-3.7356,-3.6665,-4.0366,-4.2368,-4.0836,-4.314,-4.4745,-4.4745,-4.548,-4.5938,-4.5938,-4.5414,-4.4777,-4.3998,-4.3925,-4.3508,-4.2731,-4.3232,-4.3515,-4.3515,-4.3515,-4.3515,-4.3515,-4.3515,-4.3515,-4.346,-4.2671,-4.1901,-4.1113,-4.0286,-3.9494,-3.8778,-3.8726,-3.8689,-3.8487,-3.6945,-3.634,-3.6064,-3.4431,-3.4344,-3.4839,-3.4064,-3.3275,-3.2472,-3.1654,-3.087,-3.0099,-2.9262,-2.9042,-2.9042,-2.9042,-2.8436,-2.7622,-2.6833,-2.6043,-2.5246,-2.4447,-2.4263,-2.4245,-2.4245,-2.4208,-2.4801,-2.6687,-2.701,-2.7673,-2.9629,-2.9919,0.0,-2.9919,-2.7523,-2.5551,-2.4821,-2.2245,-2.0611,-2.0664,-2.0837,-2.1189,-2.181,-2.1265,-2.1182,-2.1783,-2.2018,-2.2515,-2.3333,-2.6388,-2.7001,-2.5056,0.0,0.0,0.0,0.0,0.0,0.0,0.0,0.0,0.0,0.0,0.0,0.0,0.0,0.0,0.0,0.0,0.0,0.0,0.0,0.0,0.0,0.0,-3.6573,-3.5774,-3.8136,-4.0675,-4.2604,-4.3805,-4.47,-4.5223,-4.5462,-4.5571,-4.5571,-4.6324,-4.6764,-4.6764,-4.6066,-4.5589,-4.5369,-4.4218,-4.3487,-4.3268,-4.3427,-4.3515,-4.3515,-4.3515,-4.3515,-4.3515,-4.3515,-4.3515,-4.3496,-4.3276,-4.3039,-4.2727,-4.135,-4.079,-4.0648,-3.9237,-3.834,-3.786,-3.7991,-3.7294,-3.6229,-3.5771,-3.4963,-3.41,-3.3862,-3.3642,-3.322,-3.1819,-3.1641,-3.1647,-3.0265,-2.9879,-2.9879,-2.9879,-2.9262,-2.8473,-2.7658,-2.7291,-2.6917,-2.6117,-2.5474,-2.5062,-2.5062,-2.4603,-2.4376,-2.4912,-2.4995,-2.5178,-2.5736,-2.5818,0.0,-2.5818,-2.5148,-2.4908,-2.5503,-2.3625,-2.2876,-2.4301,-2.2655,-2.1932,-2.2831,-2.2052,-2.1673,-2.1927,-2.2599,-2.3412,-2.4367,-2.4782,-2.4713,0.0,0.0,0.0,0.0,0.0,0.0,0.0,0.0,0.0,0.0,0.0,0.0,0.0,0.0,0.0,0.0,0.0,0.0,0.0,0.0,0.0,0.0,-3.645,-4.0565,-4.1241,-4.2147,-4.3596,-4.5922,-4.6097,-4.6477,-4.7497,-4.7186,-4.6911,-4.6911,-4.7333,-4.759,-4.759,-4.6837,-4.625,-4.5902,-4.4672,-4.3828,-4.3515,-4.3515,-4.3515,-4.3515,-4.3515,-4.3515,-4.3515,-4.3515,-4.3515,-4.3515,-4.3515,-4.3296,-4.2909,-4.1767,-4.1211,0.0,0.0,0.0,0.0,0.0,-3.6872,-3.5716,-3.5367,-3.4835,-3.4252,-3.3917,-3.3807,-3.355,-3.2284,-3.2228,-3.2252,-3.065,-3.021,-3.0142,-2.992,-2.9529,-2.8989,-2.8253,-2.8007,-2.7721,-2.6908,-2.6301,-2.5797,-2.5466,-2.5301,0.0,-2.4768,-2.5107,-2.5691,-2.6535,-2.666,-2.666,-2.666,-2.5937,-2.5576,-2.597,-2.4214,-2.3487,-2.4715,-2.3412,0.0,0.0,0.0,-2.271,-2.2786,-2.3612,0.0,0.0,0.0,-2.5228,-2.4476,-2.4772,0.0,0.0,-2.3794,-2.3739,0.0,0.0,0.0,0.0,0.0,0.0,0.0,0.0,0.0,0.0,0.0,0.0,0.0,0.0,0.0,0.0,-3.9292,-4.3281,-4.6284,-4.6082,-4.6096,-4.7378,-4.7593,-4.7806,-4.8248,-4.8233,-4.8214,-4.8306,-4.8233,-4.8214,-4.8306,0.0,0.0,0.0,0.0,-4.436,-4.3626,-4.3551,-4.3515,-4.3515,-4.3515,-4.3515,-4.3515,-4.3515,-4.3515,-4.3496,-4.3548,-4.3105,-4.2312,-4.185,-4.1097,-4.0123,-3.9069,-3.8877,-3.8939,-3.7142,-3.6002,-3.5257,-3.4407,0.0,0.0,-3.4258,-3.3937,-3.3708,-3.3009,-3.2794,-3.2463,-3.0937,-3.0532,-3.0441,-2.9969,-2.9724,-2.9447,-2.8914,-2.8528,-2.8073,-2.7372,-2.6997,-2.6606,-2.5879,-2.6256,-2.6458,-2.5731,-2.6435,-2.7644,-2.9345,-2.961,-2.9602,-2.9511,-2.7942,-2.6714,-2.6406,0.0,0.0,-2.3764,-2.3761,-2.3975,-2.4519,-2.4221,-2.4013,-2.4029,-2.4715,-2.5202,-2.5475,-2.6993,-2.6995,-2.5389,-2.6751,-2.6702,-2.5293,-2.5395,-2.5741,0.0,0.0,0.0,0.0,0.0,0.0,0.0,0.0,0.0,0.0,0.0,0.0,0.0,0.0,0.0,-3.8939,-4.3025,-4.6487,-4.7776,-4.7829,-4.7891,-4.8334,-4.8857,-4.8942,-4.836,-4.77,-4.759,-4.8251,-4.77,-4.7608,-4.8269,-4.7535,-4.7021,-4.6874,-4.5461,-4.4635,-4.447,-4.3809,-4.3515,-4.3515,0.0,0.0,-4.3515,-4.3515,-4.3515,-4.3513,-4.3788,-4.3451,-4.2671,-4.2208,-4.1105,-3.9644,-3.8787,-3.8886,-3.9337,-3.8057,-3.7642,-3.7594,-3.6515,-3.5968,-3.5705,-3.5536,-3.4869,-3.4086,-3.4003,-3.3924,0.0,-3.2741,-3.2614,-3.2766,-3.2646,-3.1648,-3.0658,-3.0542,-2.9932,-2.9342,-2.9191,-2.8609,-2.8084,-2.7923,-2.7499,-2.7123,-2.6962,-2.6945,-2.6846,-2.6585,-2.6696,-2.6567,-2.5903,-2.5492,-2.5804,-2.7246,-2.5634,-2.5095,-2.671,-2.5444,-2.4659,-2.4885,-2.4834,-2.4786,-2.4792,-2.4945,-2.5113,-2.5331,-2.5676,-2.5672,-2.5327,-2.5625,-2.5601,-2.5303,-2.5161,-2.5248,0.0,0.0,0.0,0.0,0.0,0.0,0.0,0.0,0.0,0.0,0.0,-3.1326,0.0,0.0,-4.0193,-4.1833,-4.5244,-4.7994,-4.882,-4.9297,-4.9437,-4.9136,-4.9011,-4.8783,-4.8343,-4.7938,-4.7865,-4.8269,-4.792,-4.7865,-4.8288,-4.7535,-4.6911,-4.6507,-4.5315,-4.4525,-4.4103,-4.3699,-4.3515,-4.3515,-4.3515,-4.3515,-4.3515,-4.3515,-4.3597,-4.3756,-4.3924,-4.3639,-4.2982,-4.2068,-4.1054,-4.0015,-3.9605,-3.9266,-3.8939,-3.8362,-3.8007,-3.7659,-3.6641,-3.6133,-3.5838,-3.5432,-3.4913,-3.4464,-3.4486,-3.4475,-3.4277,-3.3435,-3.3304,-3.3346,-3.3067,-3.2391,-3.1836,-3.1932,-3.1534,-3.1035,-3.059,-3.0421,-2.9983,-2.8747,-2.8841,-2.8887,-2.8056,-2.8218,-2.8018,-2.6706,-2.6214,-2.5842,-2.5446,-2.5049,-2.5194,-2.6233,-2.5431,-2.522,-2.6258,-2.5462,-2.4974,-2.5141,-2.5152,-2.5152,-2.5152,-2.5152,-2.5203,-2.5303,-2.5308,-2.5308,-2.5308,-2.5308,-2.5308,-2.5303,-2.5203,-2.5208,0.0,0.0,0.0,0.0,0.0,0.0,0.0,0.0,-2.8876,-3.0538,-3.2162,-3.427,-3.7508,-3.9914,-4.2095,-4.4255,-4.6684,-4.86,-4.9482,-5.0013,-5.0068,-4.9427,-4.8728,-4.8306,-4.8306,-4.8031,-4.7957,-4.8288,-4.8159,-4.8141,-4.8306,-4.7681,-4.6947,-4.6159,-4.5351,-4.4544,-4.3736,-4.3588,-4.3515,-4.3515,-4.3515,-4.3531,-4.3597,-4.3597,-4.3788,-4.4098,-4.382,-4.3437,-4.2912,-4.1661,-4.0889,-4.0496,-4.0496,-3.98,-3.8803,-3.875,-3.8346,-3.7696,-3.6792,-3.6404,-3.6197,-3.5543,-3.5078,-3.4812,-3.4963,-3.4906,-3.4623,-3.3923,-3.3781,-3.371,-3.3276,-3.3035,-3.2958,-3.3109,-3.2907,-3.2473,-3.1759,-3.1987,-3.1739,-2.9728,-3.0441,-3.0934,-2.9596,-3.0041,-2.9899,-2.7885,-2.7024,-2.647,-2.616,-2.5553,-2.5132,-2.5053,-2.4949,-2.4942,-2.5059,-2.5071,-2.5135,-2.5279,-2.5308,-2.5308,-2.5308,-2.5308,-2.5308,-2.5308,-2.5308,-2.5308,-2.5308,-2.5308,-2.5308,-2.5308,-2.5308,-2.5308,-2.2916,-2.4048,0.0,-2.7237,-2.7188,-2.8032,0.0,0.0,-3.3975,-3.7272,-3.9241,-4.0631,-4.154,-4.3672,-4.5606,-4.6581,-4.7628,-4.86,-4.9482,-4.9003,-4.8563,-4.8471,-4.8361,-4.8306,-4.8306,-4.7021,-4.6764,-4.8196,-4.7626,-4.7553,-4.8269,-4.8214,-4.7791,-4.6984,-4.6195,-4.5388,-4.4563,-4.3864,-4.3515,-4.3515,-4.3515,-4.3662,-4.394,-4.394,-4.4165,-4.4459,-4.3205,-4.2391,-4.1906,-4.096,-4.055,-4.0496,-4.0496,-4.0388,-4.0227,-3.9996,-3.9994,-3.9959,-3.8851,-3.815,-3.7755,-3.7659,-3.646,-3.5195,-3.5889,-3.5623,-3.5024,-3.4937,-3.5078,-3.5259,-3.5177,-3.4595,-3.4025,-3.4045,-3.3455,-3.2846,-3.275,-3.2775,-3.2743,-3.2455,-3.2551,-3.2628,-3.2436,-3.2506,-3.168,-2.9022,-2.8696,-2.8211,-2.6727,-2.6458,-2.6118,-2.534,-2.5253,-2.5248,-2.5264,-2.5269,-2.5274,-2.5303,-2.5308,-2.5308,-2.5308,-2.5308,-2.5308,-2.5308,-2.5308,-2.5308,-2.5308,-2.5308,-2.5308,-2.5308,-2.5308,-2.5308,-2.4425,0.0,0.0,0.0,-2.9944,-3.1361,-3.4621,-3.5598,-3.6594,-3.9301,-4.0727,-4.2086,-4.4051,-4.4837,-4.5773,0.0,-4.7681,-4.7902,-4.8728,-4.8141,-4.7443,-4.6966,-4.6489,-4.6397,-4.6856,-4.6287,-4.6379,-4.7516,-4.7278,-4.7443,-4.8269,-4.7846,-4.7223,-4.6434,-4.5626,-4.4819,-4.4011,-4.3663,-4.3597,-4.3788,-4.3788,-4.3989,-4.4364,-4.4364,-4.4553,-4.4813,-4.3435,-4.2741,-4.2489,-4.1623,-4.095,-4.0554,-4.1066,-4.095,-4.0489,-4.0372,-4.0397,-4.0365,-3.9424,-3.8604,-3.7911,-3.7411,-3.6373,-3.5404,-3.573,-3.5596,-3.5327,-3.5327,-3.5398,-3.55,-3.55,-3.5231,-3.4968,-3.4968,-3.468,-3.4276,-3.3776,-3.4064,-3.4122,-3.3103,-3.3314,-3.3506,-3.2987,-3.2891,-3.2507,-3.136,-3.0426,-2.9429,-2.8217,-2.7198,-2.6269,-2.5385,-2.5308,-2.5308,-2.5308,-2.5308,-2.5308,-2.5308,-2.5308,-2.5308,-2.5308,-2.5344,-2.5363,-2.5363,-2.5402,-2.5431,-2.5431,-2.5431,-2.5402,-2.5363,-2.5363,-2.5363,-2.585,0.0,0.0,-3.0882,-3.2702,-3.4455,-3.6619,-3.78,-3.9048,-4.1143,-4.1833,-4.2778,-4.5132,-4.5182,-4.5457,-4.7334,-4.7426,-4.7389,-4.7739,-4.7481,-4.6909,-4.5978,-4.5264,-4.4976,-4.5326,-4.5496,-4.5902,-4.6709,-4.6966,-4.7259,-4.7627,-4.7498,-4.6856,-4.5608,-4.5293,-4.4681,-4.3647,-4.3761,-4.3931,-4.418,-4.418,-4.4359,-4.4732,-4.483,-4.4885,-4.4822,-4.3853,-4.3316,-4.3047,-4.2431,-4.1797,-4.1266,-4.1662,-4.1412,-4.0843,-4.0593,-4.0496,-4.0419,-3.9823,-3.9073,-3.8257,-3.7623,-3.6692,-3.5827,-3.5827,-3.5827,-3.5827,-3.5827,-3.6,-3.6192,-3.6192,-3.6192,-3.6135,-3.5885,-3.5827,-3.5596,-3.4737,-3.5045,-3.5192,-3.416,-3.4276,-3.443,-3.4026,-3.3757,-3.3545,-3.3295,-3.2237,-3.0968,-2.9621,-2.8005,-2.6717,-2.6077,-2.5808,-2.5654,-2.5654,-2.5442,-2.5303,-2.5321,-2.5321,-2.5335,-2.535,-2.539,-2.5428,-2.5428,-2.5485,-2.5491,-2.5491,-2.5491,-2.5485,-2.5428,-2.5428,-2.5428,0.0,0.0,-3.0394,-3.404,-3.5669,-3.7266,-4.0634,-4.1378,-4.1977,-4.4125,-4.3975,-4.3718,-4.458,-4.4996,-4.5349,-4.5882,-4.6938,-4.7396,-4.6578,-4.7155,-4.7207,-4.5961,-4.5443,-4.4898,0.0,-4.4472,-4.5076,-4.5883,-4.6654,-4.6764,-4.6012,-4.7425,-4.7186,-4.4801,-4.5769,-4.5589,-4.3986,-4.4378,-4.4567,-4.458,-4.458,-4.4745,-4.5096,-4.5419,-4.5115,-4.4327,-4.4278,-4.3816,-4.3104,-4.3066,-4.3047,-4.2931,-4.2124,-4.1769,-4.1662,-4.0804,-4.0496,-4.0496,-4.0477,-3.9938,-3.9265,-3.9227,-3.8065,-3.6654,-3.6654,-3.6654,-3.6654,-3.6654,-3.7276,-3.7911,-3.7911,-3.7911,-3.7719,-3.6865,-3.6654,-3.6442,-3.5635,-3.5481,-3.5712,-3.6442,-3.5981,-3.5692,-3.6442,-3.5942,-3.5135,-3.4302,-3.4129,-3.3179,-3.0673,-2.8909,-2.7857,-2.7818,-2.7063,-2.6563,-2.6563,-2.5788,-2.5326,-2.5379,-2.5398,-2.5437,-2.5481,-2.5506,-2.5508,-2.5508,-2.5491,-2.5491,-2.5491,-2.5491,-2.551,-2.5508,-2.5508,-2.5508,-2.9757,0.0,-3.452,-3.6788,-3.8596,-4.0245,-4.1952,-4.2596,-4.2883,-4.3059,-4.2176,-4.1452,-4.1742,-4.076,-4.082,-4.3721,-4.4525,-4.5257,-4.6613,-4.7548,-4.7325,-4.5246,-4.5165,0.0,0.0,0.0,0.0,-4.5039,-4.5847,-4.6434,-4.6672,-4.7204,-4.6985,-4.586,-4.5674,-4.5222,-4.4406,-4.4527,-4.4707,-4.4931,-4.515,-4.5332,-4.5429,-4.5559,-4.5441,-4.5133,-4.4547,-4.4143,-4.3893,-4.3893,-4.3585,-4.3124,-4.3355,-4.2777,-4.175,-4.147,-4.0989,-4.0496,-4.0496,-3.9977,-3.9304,-3.9304,-3.8507,-3.7565,-3.7565,-3.7565,-3.7565,-3.7565,-3.7777,-3.8007,-3.8007,-3.8007,-3.793,-3.7623,-3.7565,-3.7488,-3.7219,-3.7161,-3.7238,-3.7507,-3.7334,-3.7065,-3.675,-3.6543,-3.5974,-3.4602,-3.3341,-3.2025,-3.0577,-2.941,-2.8492,-2.7953,-2.764,-2.7253,-2.6711,-2.641,-2.6014,-2.551,-2.5474,-2.5485,-2.5491,-2.5547,-2.5563,-2.5563,-2.5606,-2.5634,-2.5634,-2.5634,-2.5606,-2.5563,-2.5563,-2.5563,-3.2349,-3.4765,-3.7172,-3.944,-4.0972,-4.2192,-4.3175,-4.31,-4.2648,-4.2152,-4.0746,-3.9411,-3.8822,-3.7995,-3.8291,-4.1065,-4.2118,-4.3452,-4.5956,-4.679,-4.6797,-4.5962,-4.5628,-4.5227,0.0,0.0,0.0,-4.4267,-4.5021,-4.57,-4.6214,-4.6929,-4.7031,-4.6443,-4.6473,-4.6067,-4.5217,-4.563,-4.5799,-4.5751,-4.5648,-4.5594,-4.5594,-4.5594,-4.5594,-4.5575,-4.5017,-4.4759,-4.4759,-4.4759,-4.4451,-4.4008,-4.422,-4.347,-4.2239,-4.1904,-4.1258,-4.0496,-4.0496,-4.0169,-3.9727,-3.9727,-3.9169,-3.845,-3.845,-3.845,-3.845,-3.845,-3.8661,-3.8892,-3.8892,-3.8924,-3.8883,-3.8575,-3.853,-3.8502,-3.8174,-3.8115,-3.8206,-3.8516,-3.8322,-3.8032,-3.7781,-3.7297,-3.6485,-3.5136,-3.366,-3.2275,-3.1091,-3.0458,-2.9781,-2.8945,-2.8616,-2.824,-2.772,-2.7378,-2.6853,-2.6048,-2.5991,-2.602,-2.6035,-2.5783,-2.5772,-2.6084,-2.5839,-2.5703,-2.5703,-2.5703,-2.5682,-2.5635,-2.5635,-2.5635,-3.545,-3.7049,-3.8489,-4.1955,-4.2768,-4.3064,-4.4253,-4.2894,-4.1371,-4.1312,-3.9513,-3.7471,-3.5905,0.0,-3.7548,-3.8137,-3.9939,-4.2173,-4.4824,-4.5211,-4.5938,0.0,0.0,0.0,0.0,0.0,0.0,-4.3764,0.0,-4.4816,-4.4743,-4.6685,-4.7399,-4.6573,-4.8001,-4.8014,-4.6407,-4.7491,-4.7663,-4.6885,-4.6009,-4.5594,-4.5594,-4.5594,-4.5594,-4.5594,-4.5594,-4.5594,-4.5594,-4.5594,-4.5594,-4.5518,-4.4682,-4.3874,-4.3066,-4.2189,-4.1312,-4.0569,-4.0519,-4.0512,-4.0496,-4.0496,-3.9977,-3.9361,-3.9361,-3.9361,-3.9361,-3.9361,-3.9927,-4.0512,-4.0512,-4.061,-4.0502,-3.9675,-3.9567,-3.9434,-3.8601,-3.8429,-3.8679,-3.9505,-3.8967,-3.862,-3.9454,-3.815,-3.6732,-3.5915,-3.5081,-3.3932,-3.2191,-3.1938,-3.1565,-3.0684,-2.9928,-2.9447,-2.941,-2.8642,-2.7831,-2.7029,-2.6972,-2.6982,-2.6992,-2.6211,-2.6133,-2.6914,-2.6113,-2.5703,-2.5703,-2.5703,-2.5703,-2.5703,-2.5703,-2.5703,-3.9029,-4.0578,-4.1812,-4.3707,-4.3743,-4.3116,-4.2467,-4.0924,-3.9177,-3.7591,-3.5074,-3.2842,-3.1837,0.0,0.0,-3.6745,-3.9244,0.0,-4.5917,-4.7511,0.0,-4.8115,0.0,-4.7981,-4.7636,-4.6985,0.0,0.0,-4.6329,-4.615,-4.5554,-4.7774,-4.8494,-4.7277,-4.8249,-4.843,-4.7645,-4.7338,-4.7096,-4.6885,-4.6009,-4.5594,-4.5594,-4.5594,-4.5594,-4.5594,-4.5594,-4.5594,-4.5594,-4.5594,-4.5594,-4.5575,-4.5364,-4.4739,-4.3891,-4.3132,-4.2318,-4.1525,-4.0925,-4.0629,-4.0496,-4.0496,-4.0362,-4.0189,-4.0189,-4.0189,-4.0189,-4.0189,-4.0407,-4.0655,-4.0655,-4.0715,-4.0716,-4.0507,-4.047,-4.0435,-4.0202,-4.0163,-4.0241,-4.0451,-3.9836,-3.9358,-3.9638,-3.8263,-3.709,-3.6922,-3.6164,-3.4958,-3.3114,-3.2305,-3.1565,-3.0684,-3.0411,-3.0063,-2.9523,-2.9274,-2.8805,-2.7986,-2.7948,-2.7656,-2.7031,-2.6797,-2.6465,-2.6035,-2.5801,-2.5703,-2.5703,-2.5703,-2.5703,-2.5703,-2.5703,-2.5703,-4.0691,-4.1978,-4.2935,-4.3924,-4.3689,-4.2704,-4.0867,-3.9079,-3.7053,-3.4414,-3.2054,0.0,-2.8922,-2.95,0.0,0.0,0.0,0.0,-4.5122,-4.6894,-4.7971,0.0,-4.8777,0.0,-4.8952,-4.8291,-4.7928,0.0,-4.7453,-4.6989,-4.69,-4.8386,-4.9055,-4.8658,-4.9285,-4.9514,-4.924,-4.7682,-4.7077,-4.7413,-4.6182,-4.5594,-4.5594,-4.5594,-4.5594,-4.5594,-4.5594,-4.5594,-4.5594,-4.5594,-4.5635,-4.5696,-4.5696,-4.4957,-4.3853,-4.3441,-4.2518,-4.1402,-4.0952,-4.0733,-4.0635,-4.0635,-4.0604,-4.0596,-4.0616,-4.0604,-4.0596,-4.0616,-4.0699,-4.0738,-4.0738,-4.0828,-4.0899,-4.0899,-4.0925,-4.0986,-4.0986,-4.0986,-4.0986,-4.0986,-4.0617,-4.02,-3.9848,-3.9012,-3.8138,-3.7402,-3.6875,-3.5916,-3.4089,-3.3108,-3.225,-3.139,-3.0959,-3.0558,-3.0146,-3.0108,-2.9761,-2.8926,-2.8516,-2.8086,-2.7598,-2.7207,-2.6777,-2.6289,-2.6269,-2.6074,-2.5703,-2.5703,-2.5703,-2.5703,-2.5703,-2.5703,-4.1669,-4.2447,-4.2975,-4.37,-4.3148,-4.1822,-3.9439,-3.7205,-3.4723,-3.1586,0.0,-2.8348,-2.6871,-2.8027,-3.0023,-3.2592,0.0,-3.8428,-4.3591,-4.496,-4.6422,-4.9086,-4.9086,-4.9357,-5.0567,-4.9699,-4.9204,-4.9548,-4.8338,-4.7787,-4.8248,-4.8812,-4.9469,-5.0164,-5.0523,-5.0712,-5.0712,-4.8279,-4.7413,-4.8086,-4.6394,-4.5594,-4.5594,-4.5594,-4.5594,-4.5594,-4.5594,-4.5612,-4.5637,-4.5637,-4.5708,-4.5815,-4.5815,-4.496,-4.372,-4.3619,-4.263,-4.133,-4.1224,-4.1114,-4.099,-4.0848,-4.0767,-4.0754,-4.0928,-4.0844,-4.0773,-4.1064,-4.1062,-4.0995,-4.0995,-4.1098,-4.1161,-4.1044,-4.1126,-4.1191,-4.1191,-4.1191,-4.1191,-4.1191,-4.1191,-4.0957,-4.0195,-3.9883,-3.9219,-3.7695,-3.7285,-3.6582,-3.5078,-3.4101,-3.3223,-3.2305,-3.1523,-3.1035,-3.0918,-3.0898,-3.0586,-2.9824,-2.8945,-2.8476,-2.8476,-2.7637,-2.7109,-2.6992,-2.6992,-2.6562,-2.5662,-2.5683,-2.5683,-2.5683,-2.5682,-2.5682,-4.4546,-4.4272,-4.3773,-4.5469,-4.3246,-4.0154,-3.8289,-3.4853,0.0,0.0,-2.7241,-2.5993,-2.5694,-2.7025,0.0,-3.2466,0.0,0.0,0.0,0.0,-4.574,0.0,0.0,0.0,0.0,0.0,0.0,0.0,-5.0229,-4.9496,-4.82,-4.9575,-5.045,-5.0585,-5.0663,-5.0712,-5.0712,-4.8836,-4.7971,-4.8086,-4.6394,-4.5594,-4.5594,-4.5594,-4.5594,-4.5594,-4.5594,0.0,-4.5775,-4.5775,-4.5814,-4.5886,-4.5886,-4.5706,-4.5386,-4.4779,-4.4375,-4.4012,-4.3406,-4.273,-4.1981,-4.1085,-4.0785,-4.0909,-4.1657,-4.1353,-4.1088,-4.2537,-4.252,-4.2037,-4.2037,-4.2092,-4.1991,-4.1327,-4.1172,-4.1191,-4.1191,-4.1191,-4.1191,-4.1191,-4.1191,-4.1152,-4.0996,-3.9785,-3.8711,-3.8418,-3.7148,-3.6113,-3.5801,-3.5019,-3.3887,-3.2363,-3.2051,-3.168,-3.0957,-3.0898,-3.084,-3.0684,-2.9863,-2.9375,-2.9375,-2.8535,-2.7713,-2.6938,-2.6971,-2.6516,-2.5522,-2.5597,-2.5628,-2.5628,-2.5559,-2.5563,-4.2687,-4.3682,-4.4652,-4.5555,-4.3245,-3.9985,-3.6934,0.0,0.0,0.0,-2.5931,-2.532,-2.5257,0.0,0.0,0.0,0.0,0.0,0.0,0.0,0.0,0.0,0.0,0.0,0.0,0.0,0.0,0.0,-5.0712,-5.0346,-4.949,-5.025,-5.0712,-5.0712,-5.0712,-5.0712,-5.0712,-4.8971,-4.8105,-4.8086,-4.6394,-4.5635,-4.57,-4.57,-4.572,-4.5751,-4.5751,-4.5795,-4.5845,-4.5845,-4.5905,-4.5998,-4.5998,-4.5769,-4.5393,-4.5024,-4.4618,-4.4171,-4.3827,-4.3437,-4.2988,-4.2479,-4.1976,-4.1758,-4.2653,-4.2308,-4.1858,-4.3181,-4.2968,-4.2354,-4.2354,-4.2381,-4.2207,-4.1387,-4.1523,-4.1816,-4.1816,-4.1816,-4.1699,-4.1289,-4.1191,-4.1191,-4.1191,-4.0137,-3.9121,-3.8672,-3.75,-3.6504,-3.6055,-3.5644,-3.4883,-3.3633,-3.3105,-3.248,-3.1641,-3.1582,-3.1347,-3.0833,-2.9583,-2.8856,-2.8819,-2.8427,-2.7561,-2.6197,-2.7092,-2.6887,-2.5491,-2.5539,-2.5551,-2.5551,-2.5505,-2.5526,-4.1178,-4.3259,-4.536,-4.5627,-4.3196,-3.9755,-3.5996,-3.2394,0.0,0.0,-2.5298,-2.5231,-2.5138,0.0,0.0,0.0,0.0,0.0,0.0,0.0,0.0,0.0,0.0,0.0,0.0,0.0,0.0,0.0,-5.0712,-5.0712,-5.0712,-5.0712,-5.0712,-5.0712,-5.0712,-5.0616,-5.0423,-4.8875,-4.8008,-4.785,-4.6356,-4.5715,-4.5814,-4.5814,-4.5839,-4.5899,-4.5899,-4.5916,-4.5936,-4.5936,-4.603,-4.6145,-4.6145,-4.5791,-4.5273,-4.5273,-4.4844,-4.4258,-4.4258,-4.4121,-4.3984,-4.3984,-4.3354,-4.2774,-4.369,-4.3335,-4.2834,-4.3944,-4.3633,-4.2969,-4.2969,-4.2969,-4.2754,-4.1933,-4.207,-4.2402,-4.2402,-4.2266,-4.1953,-4.1328,-4.1191,-4.1191,-4.1151,-4.0272,-3.9334,-3.8646,-3.763,-3.6712,-3.6029,-3.5931,-3.5677,-3.4994,-3.4157,-3.3239,-3.2221,-3.2142,-3.1725,-3.0742,-2.9278,-2.8499,-2.8621,-2.846,-2.7715,-2.6324,-2.7657,-2.7571,-2.6003,-2.6021,-2.6049,-2.6029,-2.5837,-2.5743,-4.3791,-4.5046,-4.5608,-4.6961,-4.3074,-3.8338,-3.605,0.0,0.0,-2.5754,-2.525,-2.5137,-2.5188,-2.5215,-2.6073,0.0,0.0,-3.1385,0.0,0.0,0.0,0.0,0.0,0.0,0.0,0.0,0.0,0.0,-5.0712,-5.0712,-5.0712,-5.0712,-5.0712,-5.0712,-5.0712,-5.0327,-4.9529,-4.8586,-4.776,-4.7091,-4.6195,-4.5826,-4.5885,-4.5885,-4.589,-4.5899,-4.5899,-4.5974,0.0,-4.6082,-4.615,-4.6289,-4.6289,-4.623,-4.6172,-4.6172,-4.6133,-4.6055,-4.6055,-4.5547,-4.4883,-4.4883,-4.4297,-4.375,-4.4609,-4.4277,-4.3925,-4.5586,-4.543,-4.4766,-4.4766,-4.4766,-4.4531,-4.3672,-4.293,-4.2402,-4.2402,-4.1836,-4.1289,-4.1211,-4.1191,-4.1151,-4.1049,-3.9639,-3.8493,-3.8351,-3.6917,-3.5827,-3.5749,-3.5729,-3.571,-3.5612,-3.4944,-3.3782,-3.2066,-3.1924,-3.1551,-3.0673,-2.9713,-2.9555,-3.033,-2.9605,-2.9085,-2.8853,-2.9081,-2.8694,-2.7676,-2.7742,-2.7768,-2.7749,-2.6901,-2.6538,-3.94,-4.2773,-4.5912,-4.5978,-4.2096,-3.7668,-3.5308,0.0,-2.6633,-2.5461,-2.5086,-2.4981,-2.4956,-2.5003,-2.5579,-2.7206,-2.7535,0.0,0.0,0.0,0.0,0.0,0.0,0.0,0.0,0.0,0.0,0.0,-4.9913,-4.9941,-5.003,-5.046,-5.0712,-5.0712,-5.0183,-4.9787,-4.9512,-4.8141,-4.7337,-4.7112,-4.6268,-4.5909,-4.6027,-4.6027,-4.6053,-4.6144,-4.6144,-4.6173,0.0,-4.6223,-4.6247,-4.6308,-4.6308,-4.6308,-4.6308,-4.6308,-4.6308,-4.6211,-4.5703,-4.5293,-4.4902,-4.4394,-4.3984,-4.3769,-4.4101,-4.3613,-4.3164,-4.4394,-4.4492,-4.4219,-4.4219,-4.4219,-4.4258,-4.4433,-4.4219,-4.3808,-4.3232,-4.2877,-4.2304,-4.1181,-4.0959,-4.093,-4.088,-3.9899,-3.8932,-3.8373,-3.726,-3.6287,-3.5762,-3.5707,-3.5682,-3.5638,-3.5408,-3.4762,-3.3579,-3.2973,-3.2292,-3.1379,-3.0017,-2.9369,-2.9674,-2.9355,-2.8946,-2.842,-2.8926,-2.8768,-2.7895,-2.7923,-2.7947,-2.7928,-2.757,-2.7397,-3.6425,-4.0364,-4.4039,-4.4046,-4.0598,-3.6524,0.0,0.0,-2.6048,-2.4971,-2.4809,-2.4795,-2.4544,-2.477,-2.5393,-2.6584,-2.6889,-2.8077,0.0,0.0,0.0,0.0,0.0,0.0,0.0,0.0,0.0,-4.9851,-4.9591,-4.952,-4.964,-4.9908,-5.0292,-5.0803,-4.9732,-4.9177,-4.9265,-4.7798,-4.7007,-4.6879,-4.6259,-4.6033,-4.615,-4.615,-4.6202,-4.6308,-4.6308,-4.6308,0.0,-4.6308,-4.6308,-4.6308,-4.6308,-4.6308,-4.6308,-4.6308,-4.6308,-4.6172,-4.5293,-4.5,-4.4805,-4.3672,-4.332,-4.3262,-4.3027,-4.2871,-4.291,-4.3535,-4.3691,-4.3727,-4.3981,-4.4035,-4.4146,-4.4771,-4.4712,-4.4354,-4.3675,-4.3139,-4.246,-4.1396,-4.0972,-4.0886,-4.1101,-4.0261,-3.9334,-3.8695,-3.7623,-3.6692,-3.6075,-3.5784,-3.5616,-3.5577,-3.5616,-3.5318,-3.448,-3.3843,-3.2994,-3.184,-3.0617,-2.9805,-2.9492,-2.9486,-2.9217,-2.864,-2.9198,-2.9217,-2.864,-2.864,-2.864,-2.8621,-2.8371,-2.8126,-3.6798,-3.8678,-3.9184,-4.1304,-3.8547,-3.4662,0.0,0.0,-2.5762,-2.423,-2.4385,-2.4599,-2.3929,-2.4461,-2.5584,-2.7394,-2.7746,0.0,0.0,0.0,0.0,0.0,0.0,0.0,0.0,0.0,0.0,-5.0874,-5.01,0.0,-4.979,-4.8988,-4.9304,-5.105,-4.9401,-4.8506,-4.8506,-4.7645,-4.6824,-4.6108,-4.6108,-4.6173,-4.6308,-4.6308,-4.6308,-4.6308,-4.6308,-4.6308,0.0,-4.6308,-4.6308,-4.6308,-4.6308,-4.6308,-4.6308,-4.6308,-4.6308,-4.6172,-4.5293,-4.5,-4.4707,-4.2988,-4.2402,-4.2266,-4.1465,-4.2383,-4.3691,-4.3691,-4.3644,-4.3792,-4.4651,-4.4796,-4.4686,-4.4705,-4.4039,-4.3412,-4.3389,-4.2046,-4.107,-4.1921,-4.1396,-4.1051,-4.1844,-4.0554,-3.9385,-3.9302,-3.7803,-3.6699,-3.668,-3.5988,-3.5507,-3.55,-3.5507,-3.5141,-3.4282,-3.4193,-3.3474,-3.1814,-3.1679,-3.1295,-3.0423,-3.0385,-3.0385,-3.0365,-3.0385,-3.0385,-3.0365,-3.0365,-3.0365,-3.0346,-2.9486,-2.8665,-3.0428,-3.2747,-3.4664,-3.5332,-3.3177,-3.0623,-2.9778,-2.7332,-2.4937,-2.3854,-2.4225,-2.449,-2.3674,-2.4261,-2.5288,-2.653,-2.7305,-2.8047,0.0,0.0,0.0,0.0,0.0,0.0,0.0,0.0,-4.8866,-4.8405,-4.8119,-4.8025,-4.8155,-4.734,-4.7618,-4.927,-4.82,-4.7661,-4.7746,-4.6872,-4.6381,-4.6245,-4.6245,-4.6268,-4.6308,-4.6308,-4.6308,-4.6308,-4.6308,-4.6308,-4.6308,-4.6308,-4.6308,-4.6308,-4.6308,-4.6308,-4.6289,-4.62,-4.5821,-4.5213,-4.4239,-4.3521,-4.2838,-4.1685,-4.1363,-4.1382,-4.1035,-4.1424,-4.2109,-4.2606,-4.3517,-4.4428,-4.4692,-4.5134,-4.5514,-4.5514,-4.5319,-4.4772,-4.3538,-4.2837,-4.2164,-4.1197,-4.0791,-4.0674,-4.0921,-4.0509,-3.9955,-3.9388,-3.8834,-3.8257,-3.768,-3.6846,-3.6327,-3.6327,-3.5827,-3.5385,-3.5122,-3.4545,-3.3725,-3.2583,-3.2006,-3.1308,-3.0442,-3.0404,-3.0404,-3.0404,-3.0404,-3.0404,-3.0404,-3.0404,-3.0404,-3.0385,-3.0115,-2.9846,0.0,-2.8308,-2.9841,-3.0508,-2.8977,0.0,0.0,-2.5697,-2.4131,-2.3662,-2.4199,-2.4494,-2.3698,-2.4305,-2.5214,-2.6149,-2.6803,0.0,0.0,0.0,0.0,0.0,0.0,0.0,0.0,-4.7806,-4.8205,-4.7798,-4.7455,-4.734,-4.7461,-4.6644,-4.6628,-4.7635,-4.7131,-4.7057,-4.746,-4.6604,-4.6223,-4.6308,-4.6308,-4.6308,-4.6308,-4.6308,-4.6308,-4.6308,-4.6308,-4.6308,0.0,-4.6308,-4.6268,-4.6224,-4.6224,-4.6003,-4.5696,-4.5601,-4.5042,-4.42,-4.3241,-4.2556,-4.1957,-4.1073,-4.086,-4.0911,-4.0836,-4.0917,-4.128,-4.2398,-4.3175,-4.3821,-4.4453,-4.4727,-4.4915,-4.5225,-4.507,-4.4542,-4.3407,-4.2897,-4.2341,-4.1212,-4.0727,-4.0593,-4.0931,-4.0727,-4.0323,-3.9823,-3.9496,-3.9111,-3.8565,-3.745,-3.6692,-3.6692,-3.5981,-3.55,-3.55,-3.4699,-3.384,-3.2968,-3.2141,-3.1308,-3.0442,-3.0404,-3.0404,-3.0404,-3.0404,-3.0404,-3.0404,-3.0404,-3.0404,-3.0404,-3.0404,-3.0404,0.0,-2.5034,0.0,0.0,0.0,0.0,0.0,-2.3936,0.0,-2.3524,-2.4178,-2.4478,-2.3872,-2.451,-2.5386,-2.6072,-2.6397,0.0,0.0,0.0,0.0,0.0,0.0,0.0,0.0,-4.694,-4.8374,-4.8526,-4.7789,-4.738,-4.75,-4.6738,-4.6308,-4.6308,-4.6308,-4.6699,-4.75,-4.6699,-4.6308,-4.6308,-4.6308,-4.6308,-4.6289,-4.6308,-4.6289,0.0,-4.6289,-4.6289,-4.6289,-4.6288,-4.62,-4.6082,-4.6026,-4.5478,-4.4681,-4.4615,-4.4031,-4.3179,-4.2365,-4.2049,-4.1855,-4.1057,-4.0781,-4.0777,-4.0785,-4.0882,-4.1291,-4.2851,-4.2795,-4.2596,-4.4099,-4.387,-4.347,-4.4201,-4.3816,-4.3258,-4.3201,-4.2508,-4.1865,-4.1808,-4.1077,-4.0723,-4.1558,-4.1019,-4.0481,-4.0496,-3.9846,-3.9358,-3.9358,-3.7816,-3.6733,-3.6733,-3.5957,-3.5439,-3.5439,-3.4686,-3.3814,-3.2936,-3.2122,-3.127,-3.0387,-3.0349,-3.0349,-3.0349,-3.0349,-3.0349,-3.0349,-3.0349,-3.0349,-3.0349,-3.0361,-3.0367,-1.9881,0.0,-2.1095,-2.2118,-2.2047,-2.1896,0.0,-2.2484,-2.2337,0.0,0.0,0.0,-2.3295,-2.457,-2.5506,-2.5149,-2.6768,0.0,0.0,0.0,0.0,0.0,0.0,0.0,0.0,-4.6311,-4.6715,-4.6851,-4.6677,-4.6561,-4.6601,-4.6406,-4.6308,-4.6308,-4.6308,-4.6406,-4.6601,-4.6406,-4.6308,-4.6308,-4.6308,-4.6247,-4.6147,-4.6248,-4.6247,-4.6147,-4.6147,-4.6147,-4.6144,-4.6039,-4.5978,-4.5881,-4.5262,-4.49,-4.4615,-4.3834,-4.3039,-4.2286,-4.1976,-4.1419,-4.0848,-4.0754,-4.0654,-4.0597,-4.0701,-4.1621,-4.2584,-4.2396,-4.3497,-4.468,-4.4418,-4.4686,-4.5056,-4.5248,-4.5152,-4.4825,-4.4162,-4.3374,-4.2604,-4.1923,-4.0924,-4.0326,-4.0734,-4.0464,-4.0258,-4.0473,-4.0158,-3.9899,-3.9899,-3.8213,-3.7003,-3.7003,-3.5752,-3.4898,-3.4898,-3.447,-3.3768,-3.2744,-3.1869,-3.0936,-2.991,-2.9864,-2.9864,-2.9864,-2.9864,-2.9864,-2.9864,-2.9864,-2.9864,-2.9864,-3.0025,-3.0089,-1.8298,-1.9055,-2.0103,-2.0156,-2.047,-2.0897,-2.1319,0.0,0.0,0.0,0.0,0.0,0.0,0.0,0.0,0.0,-2.7157,0.0,0.0,0.0,0.0,0.0,0.0,0.0,0.0,-4.6198,-4.6224,-4.6289,-4.6308,-4.6308,-4.6308,-4.6308,-4.6308,-4.6308,-4.6308,-4.6308,-4.6308,-4.6308,-4.6308,-4.6308,-4.6246,-4.6173,-4.6108,-4.6115,-4.608,-4.6001,-4.6001,-4.6001,-4.5998,-4.5924,-4.5886,-4.5772,-4.4923,-4.4342,-4.384,-4.2911,-4.2026,-4.1305,-4.1228,-4.0893,-4.0512,-4.0575,-4.0559,-4.0512,-4.0595,-4.18,-4.3067,-4.2623,-4.3713,-4.4998,-4.4921,-4.496,-4.5094,-4.5498,-4.5287,-4.4874,-4.4393,-4.3662,-4.281,-4.1777,-4.0768,-4.011,-4.0091,-3.9983,-3.9913,-4.0082,-3.9954,-3.988,-3.988,-3.8256,-3.7101,-3.7101,-3.5656,-3.4694,-3.4694,-3.3831,-3.3037,-3.2446,-3.1252,-3.0313,-2.9724,-2.9705,-2.9866,-3.0243,-3.0243,-3.0243,-3.0243,-2.9885,-2.9885,-3.0243,-2.9975,-3.007,-1.8048,-1.9286,-2.0643,-1.9799,-2.0307,-2.0975,-2.0891,0.0,0.0,0.0,0.0,0.0,0.0,0.0,0.0,0.0,0.0,0.0,0.0,0.0,0.0,0.0,0.0,0.0,-4.6015,-4.6211,-4.6308,-4.6308,-4.6308,-4.6308,-4.6308,-4.6308,-4.6308,-4.6308,-4.6308,-4.6289,-4.6268,-4.6268,-4.6268,-4.6268,-4.6122,-4.6069,-4.6056,-4.5955,-4.589,-4.5872,-4.5872,0.0,-4.5872,-4.5852,-4.5733,-4.5492,-4.4621,-4.3711,-4.2797,-4.1931,-4.1123,-4.0496,-4.0496,-4.0496,-4.0496,-4.0496,-4.0496,-4.0496,-4.0496,-4.1676,-4.3015,-4.3015,-4.3733,-4.4662,-4.5421,-4.5002,-4.461,-4.534,-4.4909,-4.4344,-4.4344,-4.3615,-4.2669,-4.1787,-4.0715,-3.9918,-3.9804,-3.964,-3.9552,-3.9599,-3.9564,-3.951,-3.951,-3.8025,-3.6987,-3.6987,-3.5528,-3.4569,-3.4569,-3.316,-3.2257,-3.2257,-3.0612,-2.969,-2.9757,-2.9889,-3.0284,-3.0969,-3.0988,-3.0988,-3.0969,-3.0302,-3.0321,-3.0969,-3.0321,-3.0396,-1.7114,-1.9178,-2.1353,-2.0604,-2.116,-2.1864,-2.1739,0.0,0.0,0.0,0.0,0.0,0.0,0.0,0.0,0.0,0.0,0.0,0.0,0.0,0.0,0.0,0.0,-4.5691,-4.5234,-4.5879,-4.6308,-4.6308,-4.6308,-4.6308,-4.6308,-4.6308,-4.6308,-4.6308,-4.6308,-4.6247,-4.6122,-4.612,-4.612,-4.612,-4.5992,-4.5896,-4.5838,-4.5881,-4.5862,-4.5821,0.0,-4.5821,-4.5809,-4.5688,-4.5208,-4.4452,-4.3635,-4.2791,-4.1893,-4.1008,-4.0612,-4.0496,-4.0496,-4.0496,-4.0496,-4.0496,-4.0496,-4.0496,-4.0496,-4.148,-4.2592,-4.2592,-4.3953,-4.5441,-4.5575,-4.5285,-4.5008,-4.5142,-4.4859,-4.4555,-4.4555,-4.3331,-4.2411,-4.2887,-4.0979,-3.9539,-4.0452,-3.9808,-3.9264,-3.9564,-3.9352,-3.9192,-3.9192,-3.7548,-3.6431,-3.6431,-3.4924,-3.3928,-3.3928,-3.308,-3.2533,-3.2533,-3.0593,-2.9659,-3.0093,-3.0775,-3.1199,-3.1328,-3.1328,-3.1328,-3.1328,-3.1199,-3.1199,-3.134,-3.1433,-3.1542,-1.7462,-1.9188,-2.1152,-2.1361,-2.2062,-2.2545,-2.2027,0.0,0.0,0.0,0.0,0.0,0.0,0.0,0.0,0.0,0.0,0.0,0.0,0.0,0.0,0.0,0.0,-4.5526,-4.5683,-4.6055,-4.6308,-4.6308,-4.6308,-4.6308,-4.6308,-4.6225,-4.6199,-4.6199,-4.6119,-4.6047,-4.5992,-4.5955,-4.5955,-4.5988,-4.5901,-4.5832,-4.5803,-4.5764,-4.5464,-4.499,0.0,-4.4739,-4.4345,-4.427,-4.4008,-4.3566,-4.2739,-4.2162,-4.1692,-4.0823,-4.0496,-4.0496,-4.0496,-4.0496,-4.0496,-4.0496,-4.0397,-4.0276,-4.0276,-4.1216,-4.2272,-4.2272,-4.362,-4.5055,-4.5055,-4.4943,-4.4837,-4.4837,-4.4707,-4.4593,-4.4593,-4.3617,-4.28,-4.2991,-4.1241,-3.9872,-4.0254,-3.9517,-3.8937,-3.9087,-3.898,-3.8865,-3.8865,-3.7757,-3.6776,-3.634,-3.5188,-3.4265,-3.3844,-3.3073,-3.2399,-3.1971,-3.104,-3.0591,-3.0846,-3.1623,-3.2045,-3.2045,-3.2045,-3.2045,-3.2045,-3.1604,-3.1623,-3.2045,-3.1734,-3.1812,-1.79,-1.9326,-2.0965,-2.1571,0.0,-2.3276,-2.3244,0.0,0.0,0.0,0.0,0.0,0.0,0.0,0.0,0.0,0.0,0.0,0.0,0.0,-4.3614,-4.5054,-4.5233,-4.5516,-4.623,-4.6268,-4.6248,-4.6248,-4.6224,-4.6201,-4.6201,-4.6113,-4.6047,-4.6047,-4.5944,-4.5885,-4.5877,-4.5613,-4.5613,-4.5877,-4.5783,-4.5657,-4.5445,-4.5343,-4.4816,-4.4028,-4.4028,-4.3662,-4.3104,-4.3104,-4.2989,-4.2739,-4.2058,-4.1649,-4.1311,-4.055,-4.0283,-4.0283,-4.0283,-4.0283,-4.0283,-4.0283,-4.0282,-4.0229,-4.0039,-4.1037,-4.2214,-4.2039,-4.3115,-4.4378,-4.4572,-4.4527,-4.446,-4.446,-4.4406,-4.4337,-4.4337,-4.3666,-4.3044,-4.2988,-4.1616,-4.0419,-4.0205,-3.9515,-3.8927,-3.8726,-3.8707,-3.8707,-3.8707,-3.8003,-3.725,-3.6648,-3.5639,-3.4664,-3.3862,-3.3238,-3.2614,-3.199,-3.1801,-3.1678,-3.1678,-3.2449,-3.2876,-3.2876,-3.2876,-3.2876,-3.2876,-3.2265,-3.2284,-3.2858,-3.2247,-3.2284,-1.7826,-1.9636,-2.136,-2.0691,-2.2062,0.0,-2.6631,-2.7865,0.0,-3.0477,0.0,0.0,0.0,0.0,0.0,0.0,0.0,0.0,0.0,0.0,-4.6054,-4.6172,-4.6191,-4.623,-4.6289,-4.6198,-4.6115,-4.6115,-4.5995,-4.5924,-4.5924,-4.5916,-4.5912,-4.5912,-4.5903,-4.5862,-4.5803,-4.4996,-4.4996,-4.5816,-4.568,-4.5188,-4.4399,-4.4402,-4.3951,-4.3181,-4.3181,-4.3143,-4.3104,-4.3104,-4.2624,-4.1885,-4.1808,-4.1153,-4.0177,-3.9805,-3.9668,-3.9668,-3.9668,-3.9668,-3.9668,-3.9668,-4.0162,-4.0618,-3.9849,-4.1078,-4.2586,-4.1851,-4.2563,-4.3744,-4.4419,-4.4318,-4.4028,-4.4028,-4.3804,-4.3582,-4.3582,-4.2938,-4.259,-4.3309,-4.2152,-4.1036,-4.102,-4.0359,-3.9551,-3.8817,-3.8707,-3.8707,-3.8707,-3.8006,-3.7474,-3.7419,-3.5973,-3.4669,-3.3862,-3.3752,-3.3697,-3.3623,-3.2926,-3.2509,-3.2509,-3.3293,-3.3715,-3.3715,-3.3715,-3.3715,-3.3715,-3.366,-3.366,-3.3715,-3.3642,-3.366,-1.7818,-1.9445,-2.1236,-2.1506,-2.2661,0.0,0.0,-2.8221,-2.9892,-3.0525,-3.2358,0.0,0.0,0.0,0.0,0.0,0.0,0.0,-4.5273,-4.5957,-4.6308,-4.6308,-4.6224,-4.598,-4.5474,-4.5311,-4.5225,-4.5225,-4.5188,-4.5144,-4.5144,-4.5069,-4.4769,-4.4231,-4.417,-4.4153,-4.4118,-4.379,-4.379,-4.4118,-4.4069,-4.3874,-4.3547,-4.3547,-4.3085,-4.2297,-4.2297,-4.1895,-4.1226,-4.1226,-4.0922,-4.043,-4.043,-4.0167,-3.9775,-3.9645,-3.9599,-3.9599,-3.9599,-3.9599,-3.9599,-3.9599,-3.9664,-3.9769,-3.9975,-4.082,-4.1781,-4.1981,-4.275,-4.3546,-4.3836,-4.3788,-4.3677,-4.3677,-4.321,-4.2892,-4.3404,-4.2873,-4.2543,-4.3332,-4.2598,-4.1682,-4.1187,-4.0432,-3.9625,-3.8817,-3.8707,-3.8707,-3.8707,-3.8432,-3.8046,-3.7547,-3.6486,-3.5697,-3.5385,-3.4623,-3.4269,-3.4532,-3.3775,-3.3348,-3.3348,-3.3642,-3.3807,-3.3807,-3.3807,-3.3807,-3.3807,-3.3807,-3.3807,-3.3807,-3.3807,-3.3807,-1.8171,-1.967,-2.1366,0.0,0.0,0.0,-2.6606,-2.8618,-3.0579,-3.199,-3.3996,0.0,0.0,0.0,0.0,0.0,0.0,-4.3646,-4.4751,-4.5226,-4.5521,-4.5767,-4.5517,-4.507,-4.449,-4.4308,-4.4239,-4.4239,-4.4219,-4.4192,-4.4192,-4.4105,-4.378,-4.3188,-4.3127,-4.3104,-4.3104,-4.271,-4.2522,-4.2522,-4.2162,-4.2237,-4.2701,-4.2576,-4.208,-4.1266,-4.1157,-4.0664,-3.9932,-3.9932,-3.9808,-3.9587,-3.9474,-3.9438,-3.9426,-3.9352,-3.9332,-3.9332,-3.9332,-3.9482,-3.9638,-3.9407,-3.9685,-4.0069,-3.9851,-4.0748,-4.1882,-4.1919,-4.2671,-4.3515,-4.3515,-4.3515,-4.3515,-4.3515,-4.3075,-4.2818,-4.3386,-4.3057,-4.2837,-4.3404,-4.3057,-4.2415,-4.1625,-4.0818,-4.001,-3.9203,-3.8854,-3.8707,-3.8707,-3.8546,-3.8072,-3.7092,-3.6495,-3.6061,-3.5823,-3.4995,-3.4515,-3.4558,-3.4029,-3.3763,-3.3793,-3.3807,-3.3807,-3.3807,-3.368,-3.3606,-3.3606,-3.3462,-3.339,-3.339,-3.339,-3.3462,-1.893,-2.047,0.0,0.0,0.0,0.0,-2.8628,-2.9588,-3.1376,-3.5878,0.0,-3.6097,-3.6708,0.0,0.0,-3.8941,-4.0974,-4.2849,-4.4445,-4.4042,-4.3865,-4.4596,-4.4042,-4.3534,-4.3393,-4.3266,-4.3169,-4.3169,-4.3115,-4.3085,-4.3066,-4.3066,-4.3066,-4.3047,-4.3047,-4.3047,-4.3047,-4.1867,-4.1274,-4.1255,-4.0135,-4.0371,-4.178,-4.1437,-4.0844,-4.0081,-3.9735,-3.9599,-3.9599,-3.9599,-3.9599,-3.9564,-3.9231,-3.9099,-3.9058,-3.8803,-3.8707,-3.8707,-3.8707,-3.9239,-3.9772,-3.8964,-4.0341,-4.1846,-3.946,-4.0946,-4.3149,-4.1572,-4.2268,-4.3515,-4.3515,-4.3515,-4.3515,-4.3515,-4.3496,-4.3496,-4.3515,-4.3496,-4.3496,-4.3479,-4.3479,-4.324,-4.2416,-4.1627,-4.082,-4.001,-3.9187,-3.8692,-3.8692,-3.8216,-3.7379,-3.6058,-3.5914,-3.5578,-3.4782,-3.4712,-3.4412,-3.3669,-3.3616,-3.3661,-3.3785,-3.3793,-3.3793,-3.3793,-3.3408,-3.3199,-3.3199,-3.2729,-3.2501,-3.2501,-3.2501,-3.2745,-1.8526,0.0,0.0,0.0,0.0,0.0,0.0,-3.0129,0.0,0.0,0.0,-3.6833,-3.7404,0.0,0.0,-3.9303,-4.0485,-4.1636,-4.272,-4.3213,-4.3532,-4.3759,-4.3514,-4.3078,-4.2479,-4.2299,-4.1955,-4.1338,-4.1855,-4.1662,-4.0489,-4.0958,-4.0719,-3.9546,-3.9508,-3.9508,-3.9508,-3.9157,-3.8878,-3.8689,-3.8937,-3.9466,-4.0243,-4.0138,-3.9962,-3.9735,-3.9645,-3.9481,-3.9225,-3.9031,-3.897,-3.8956,-3.8859,-3.8833,-3.8818,-3.8735,-3.8707,-3.8781,-3.935,-3.9698,-3.9845,-3.9625,-4.0414,-4.1315,-4.06,-4.146,-4.2671,-4.2763,-4.313,-4.3515,-4.3515,-4.3515,-4.3515,-4.3515,-4.3057,-4.28,-4.3386,-4.3057,-4.2697,-4.2886,-4.2939,-4.2555,-4.1323,-4.0478,-3.969,-3.8902,-3.8115,-3.7632,-3.7632,-3.7506,-3.7252,-3.6873,-3.6819,-3.673,-3.6464,-3.5633,-3.5155,-3.5207,-3.442,-3.3617,-3.2925,-3.2887,-3.2887,-3.2887,-3.2777,-3.2697,-3.2697,-3.2567,-3.2501,-3.2501,-3.2501,-3.2567,-1.8252,0.0,0.0,0.0,0.0,0.0,0.0,0.0,0.0,0.0,0.0,-3.676,-3.776,-3.7855,0.0,-3.9334,-4.0223,-4.1044,-4.1865,-4.1878,-4.2053,-4.269,-4.2133,-4.1485,-4.0978,-4.0853,-4.045,-3.9573,-3.9988,-3.9854,-3.8834,-3.9246,-3.8996,-3.7881,-3.7835,-3.7784,-3.7681,-3.7555,-3.7395,-3.7244,-3.7634,-3.7981,-3.8315,-3.9058,-3.9389,-3.9408,-3.9288,-3.9122,-3.8937,-3.8777,-3.8707,-3.8707,-3.8707,-3.8707,-3.8707,-3.8707,-3.8909,-3.9239,-3.9717,-4.0102,-4.0377,-4.0377,-4.0691,-4.1062,-4.0823,-4.1301,-4.2012,-4.2268,-4.2574,-4.2829,-4.2829,-4.2829,-4.294,-4.3391,-4.2973,-4.2595,-4.3069,-4.2614,-4.2155,-4.2313,-4.2342,-4.208,-4.1212,-4.0197,-3.935,-3.8852,-3.7881,-3.7116,-3.6921,-3.6882,-3.6803,-3.6583,-3.6545,-3.6545,-3.6545,-3.5859,-3.5401,-3.5337,-3.4384,-3.3397,-3.2472,-3.2739,-3.2801,-3.2501,-3.2316,-3.2213,-3.2213,-3.2074,-3.1986,-3.1986,-3.1986,-3.2074,-1.8109,0.0,0.0,0.0,0.0,0.0,0.0,0.0,0.0,0.0,0.0,-3.6265,-3.7752,-3.7506,-3.7566,-3.903,-3.995,-4.0681,-4.1359,-4.0197,-3.9818,-4.1274,-4.0165,-3.9257,-3.9184,-3.9188,-3.8815,-3.795,-3.7969,-3.7923,-3.7755,-3.7812,-3.7682,-3.7355,-3.7327,-3.7215,-3.6965,-3.6684,-3.6503,-3.6466,-3.6306,-3.6203,-3.6244,-3.8109,-3.8984,-3.9044,-3.8637,-3.856,-3.8689,-3.8615,-3.8634,-3.8707,-3.8707,-3.8707,-3.8707,-3.8707,-3.9166,-3.979,-3.9832,-4.0294,-4.0936,-4.0941,-4.0961,-4.0857,-4.0312,-4.0706,-4.1205,-4.0674,-4.1135,-4.1775,-4.1722,-4.1757,-4.2062,-4.3105,-4.2958,-4.2616,-4.2616,-4.2183,-4.1771,-4.1729,-4.1707,-4.1686,-4.1643,-4.0426,-3.942,-3.9262,-3.7992,-3.6865,-3.6395,-3.6329,-3.6139,-3.5667,-3.56,-3.56,-3.56,-3.56,-3.5295,-3.4641,-3.3981,-3.3237,-3.2429,-3.3027,-3.3072,-3.2401,-3.1968,-3.1734,-3.1734,-3.1389,-3.119,-3.119,-3.119,-3.1408,0.0,-1.9754,0.0,0.0,0.0,0.0,0.0,0.0,0.0,0.0,0.0,-3.7315,-3.6736,-3.7255,-3.79,-3.8232,-3.8457,-3.8635,-3.8784,-3.8525,-3.8423,-3.8784,-3.8505,-3.8308,-3.8284,-3.8277,-3.7911,-3.7046,-3.7603,-3.7325,-3.5818,-3.6326,-3.625,-3.5352,-3.5323,-3.5293,-3.5233,-3.517,-3.5,-3.4758,-3.5374,-3.5528,-3.5334,-3.7065,-3.8181,-3.87,-3.7393,-3.7533,-3.8652,-3.801,-3.812,-3.8707,-3.8707,-3.8707,-3.8707,-3.8707,-3.8817,-3.8991,-3.9196,-3.9385,-3.9551,-3.9781,-3.9883,-3.9883,-3.971,-4.0224,-4.0704,-4.0017,-4.0772,-4.1669,-4.1091,-4.1371,-4.1874,-4.2124,-4.2083,-4.1979,-4.1979,-4.1895,-4.1664,-4.1201,-4.1087,-4.0967,-4.0538,-3.9706,-3.8698,-3.7541,-3.6544,-3.5898,-3.5805,-3.5783,-3.5739,-3.5622,-3.56,-3.56,-3.56,-3.56,-3.5532,-3.5363,-3.5211,-3.4535,-3.322,-3.2239,-3.1639,-3.1485,-3.137,-3.1332,-3.1332,-3.1232,-3.119,-3.119,-3.119,-3.1249,0.0,0.0,0.0,0.0,0.0,0.0,0.0,0.0,0.0,0.0,0.0,-3.5376,-3.4734,-3.5832,-3.6796,-3.6796,-3.7488,-3.8007,-3.8007,-3.7642,-3.7526,-3.795,-3.7296,-3.6796,-3.6796,-3.6796,-3.6222,-3.4836,-3.5895,-3.5769,-3.3823,-3.447,-3.4415,-3.3344,-3.3698,-3.3829,-3.3701,-3.4074,-3.4177,-3.4006,-3.4468,-3.471,-3.4765,-3.6249,-3.7147,-3.7496,-3.6652,-3.678,-3.7499,-3.6857,-3.7057,-3.7719,-3.7504,-3.7637,-3.7982,-3.7982,-3.8235,-3.8579,-3.8707,-3.876,-3.8847,-3.9382,-3.9055,-3.8589,-3.9396,-3.9662,-3.9707,-3.9812,-4.04,-4.0897,-4.0504,-4.0712,-4.0984,-4.0984,-4.1196,-4.138,-4.138,-4.1173,-4.0891,-4.0577,-4.0521,-4.0441,-4.0146,-3.9503,-3.8505,-3.7032,-3.6434,-3.6045,-3.565,-3.56,-3.56,-3.56,-3.56,-3.56,-3.56,-3.56,-3.56,-3.56,-3.5261,-3.4585,-3.3457,-3.232,-3.1546,-3.1207,-3.119,-3.119,-3.119,-3.119,-3.119,-3.119,-3.119,-3.119,0.0,0.0,0.0,0.0,0.0,0.0,0.0,0.0,0.0,0.0,0.0,-3.2699,-3.2699,-3.3987,-3.5058,-3.5058,-3.6219,-3.7123,-3.7123,-3.6507,-3.6315,-3.7026,-3.5864,-3.4997,-3.4997,-3.4957,-3.4262,-3.2656,-3.3824,-3.3881,-3.2223,-3.2769,-3.2697,-3.1764,-3.2381,-3.2624,-3.2412,-3.3201,-3.3587,-3.3587,-3.3648,-3.3825,-3.4117,-3.516,-3.5802,-3.6039,-3.5765,-3.5802,-3.6042,-3.5645,-3.59,-3.6552,-3.631,-3.6607,-3.7209,-3.7209,-3.7617,-3.8183,-3.8086,-3.8049,-3.817,-3.8889,-3.8124,-3.7211,-3.8789,-3.8824,-3.843,-3.9117,-3.952,-3.9723,-3.9723,-3.9808,-3.9943,-4.0079,-4.0424,-4.0756,-4.0756,-4.0417,-4.0096,-4.0096,-4.0096,-4.0096,-4.0096,-3.9503,-3.8582,-3.7371,-3.6965,-3.6575,-3.5887,-3.5684,-3.56,-3.56,-3.56,-3.56,-3.56,-3.56,-3.5549,-3.5414,-3.4962,-3.4293,-3.3443,-3.2807,-3.208,-3.1257,-3.1202,-3.119,-3.119,-3.119,-3.119,-3.119,-3.119,-3.119,0.0,0.0,0.0,0.0,0.0,0.0,0.0,0.0,0.0,0.0,0.0,-3.1852,-3.1852,-3.2622,-3.3256,-3.3256,-3.3449,-3.3583,-3.3583,-3.3487,-3.3449,-3.3564,-3.3224,-3.3001,-3.3001,-3.2784,-3.253,-3.2267,-3.2456,-3.2364,-3.1877,-3.1968,-3.1846,-3.147,-3.155,-3.1599,-3.1549,-3.2357,-3.2748,-3.2766,-3.3106,-3.3099,-3.2759,-3.2931,-3.378,-3.5007,-3.3603,-3.3798,-3.5096,-3.4958,-3.5385,-3.6149,-3.6804,-3.7103,-3.7209,-3.7209,-3.7262,-3.7294,-3.6821,-3.6675,-3.6714,-3.705,-3.6547,-3.5997,-3.6916,-3.7131,-3.6921,-3.6372,-3.7178,-3.8193,-3.8193,-3.8667,-3.9292,-3.996,-4.0146,-4.0204,-4.0204,-4.0146,-4.0096,-4.0096,-4.0096,-4.0096,-4.0096,-3.9503,-3.892,-3.8734,-3.7625,-3.6761,-3.666,-3.6045,-3.56,-3.56,-3.56,-3.56,-3.56,-3.56,-3.5329,-3.4692,-3.5143,-3.4839,-3.347,-3.3301,-3.2673,-3.1404,-3.1258,-3.119,-3.119,-3.119,-3.119,-3.119,-3.119,-3.119,0.0,0.0,0.0,0.0,0.0,0.0,0.0,0.0,0.0,0.0,-2.7291,-2.8821,-2.9877,-3.0855,-3.161,-3.1959,-3.2405,-3.2682,-3.2538,-3.2503,-3.2503,-3.2503,-3.2034,-3.1691,-3.1691,-3.1605,-3.128,-3.0677,-3.1465,-3.1474,-3.0287,-3.0653,-3.0639,-3.0063,-3.0485,-3.0723,-3.0723,-3.1531,-3.2033,-3.2274,-3.2371,-3.2315,-3.2092,-3.186,-3.2405,-3.3525,-3.2818,-3.2889,-3.3526,-3.3248,-3.3579,-3.433,-3.4432,-3.4953,-3.5676,-3.5676,-3.5953,-3.627,-3.6032,-3.5963,-3.5971,-3.6101,-3.5893,-3.5752,-3.6575,-3.6795,-3.6897,-3.7364,-3.799,-3.8514,-3.8514,-3.9056,-3.9605,-3.9495,-3.9808,-4.0096,-4.0096,-4.0096,-4.0096,-4.0096,-4.0096,-4.0096,-4.0096,-3.9842,-3.9486,-3.9056,-3.8454,-3.7743,-3.6914,-3.6485,-3.6096,-3.565,-3.56,-3.56,-3.56,-3.5253,-3.4901,-3.4585,-3.4523,-3.4003,-3.2925,-3.2524,-3.1854,-3.0851,-3.1083,-3.1035,-3.0699,-3.1035,-3.119,-3.119,-3.119,-3.119,0.0,0.0,0.0,0.0,0.0,0.0,0.0,0.0,0.0,0.0,-2.4746,-2.5849,-2.7412,-2.8745,-2.9755,-3.0213,-3.0826,-3.1178,-3.0982,-3.0956,-3.0956,-3.0956,-3.0365,-2.9962,-2.9962,-3.0105,-2.985,-2.9041,-3.0296,-3.0476,-2.9072,-2.9574,-2.961,-2.9023,-2.9484,-2.9795,-2.9886,-3.0802,-3.1306,-3.1392,-3.1479,-3.1476,-3.1347,-3.1059,-3.1391,-3.2179,-3.2179,-3.2179,-3.2144,-3.1995,-3.2278,-3.2827,-3.2842,-3.3546,-3.4506,-3.4709,-3.5131,-3.56,-3.56,-3.56,-3.56,-3.56,-3.56,-3.5701,-3.6315,-3.6485,-3.6705,-3.7821,-3.8278,-3.843,-3.843,-3.9148,-3.969,-3.9123,-3.9571,-4.0096,-4.0096,-4.0096,-4.0096,-4.0096,-4.0096,-4.0096,-4.0096,-3.9927,-3.9597,-3.9059,-3.8824,-3.8229,-3.6935,-3.6628,-3.6223,-3.5425,-3.5192,-3.5091,-3.5091,-3.464,-3.4268,-3.4088,-3.3765,-3.3271,-3.2536,-3.2022,-3.1411,-3.0704,-3.1044,-3.0862,-3.0081,-3.0518,-3.074,-3.074,-3.074,-3.074,0.0,0.0,0.0,0.0,0.0,0.0,0.0,0.0,0.0,0.0,-2.2843,-2.3844,-2.4588,-2.6214,-2.7471,-2.7502,-2.7558,-2.7569,-2.7562,-2.7562,-2.7562,-2.7562,-2.7281,-2.7112,-2.7112,-2.7631,-2.7941,-2.7893,-2.8672,-2.9102,-2.9005,-2.9042,-2.9042,-2.9005,-2.8669,-2.8675,-2.906,-3.0241,-3.046,-2.9742,-3.0421,-3.0573,-3.0197,-3.0159,-3.055,-3.1269,-3.1269,-3.1269,-3.132,-3.1995,-3.23,-3.2469,-3.385,-3.4421,-3.4573,-3.5278,-3.5566,-3.56,-3.56,-3.56,-3.56,-3.56,-3.56,-3.56,-3.565,-3.565,-3.5667,-3.5752,-3.6332,-3.6914,-3.6914,-3.7997,-3.9039,-3.9005,-3.9571,-4.0096,-4.0096,-4.0096,-4.0096,-4.0096,-4.0096,-4.0096,-4.0096,-3.9463,-3.8945,-3.8912,-3.8309,-3.7582,-3.6821,-3.616,-3.5472,-3.4732,-3.4085,-3.371,-3.371,-3.3659,-3.3361,-3.2654,-3.323,-3.3278,-3.254,-3.2476,-3.2159,-3.1554,-3.1455,-3.0758,-2.9451,-2.9473,-2.9496,-2.9496,-2.9496,-2.9496,0.0,0.0,0.0,0.0,0.0,0.0,0.0,0.0,0.0,0.0,-2.229,-2.2489,-2.2711,-2.4802,-2.6585,-2.6972,-2.704,-2.7006,-2.6869,-2.685,-2.685,-2.685,-2.6772,-2.6712,-2.6712,-2.6896,-2.7034,-2.7034,-2.7299,-2.7464,-2.7464,-2.7464,-2.7577,-2.7834,-2.7694,-2.7846,-2.8281,-2.8942,-2.9101,-2.8846,-2.9351,-2.9785,-3.0108,-3.0108,-3.0497,-3.119,-3.119,-3.119,-3.1207,-3.1478,-3.1599,-3.1701,-3.2699,-3.3372,-3.388,-3.4624,-3.5199,-3.56,-3.56,-3.56,-3.56,-3.56,-3.5316,-3.5052,-3.547,-3.5316,-3.5065,-3.5523,-3.588,-3.6099,-3.6095,-3.6852,-3.7703,-3.8123,-3.8417,-3.8624,-3.8624,-3.8995,-3.9342,-3.9342,-3.8968,-3.8624,-3.8624,-3.8374,-3.8189,-3.8189,-3.7967,-3.7516,-3.6798,-3.6495,-3.5889,-3.4734,-3.4388,-3.4078,-3.363,-3.3224,-3.2839,-3.2577,-3.2365,-3.2121,-3.1864,-3.1447,-3.1094,-3.0907,-3.0468,-3.0207,-3.0094,-3.049,-3.068,-3.068,-3.068,-3.068,0.0,0.0,0.0,0.0,0.0,0.0,0.0,0.0,0.0,0.0,-2.1089,-2.1041,-2.1308,-2.3134,-2.481,-2.5485,-2.5811,-2.5949,-2.5807,-2.5786,-2.5786,-2.5786,-2.5786,-2.5786,-2.5786,-2.6043,-2.619,-2.619,-2.6447,0.0,-2.6447,-2.6436,-2.6553,-2.6863,-2.7002,-2.7206,-2.75,-2.8113,-2.8212,-2.784,-2.8609,-2.9264,-2.9736,-2.9989,-3.0497,-3.119,-3.119,-3.119,-3.119,-3.119,-3.119,-3.1292,-3.2273,-3.2966,-3.3525,-3.4506,-3.5032,-3.5316,-3.5515,-3.5316,-3.4958,-3.5184,-3.4823,-3.4333,-3.48,-3.4616,-3.4407,-3.5141,-3.5517,-3.5682,-3.5663,-3.6222,-3.6938,-3.7646,-3.7793,-3.7793,-3.7793,-3.8161,-3.8525,-3.8525,-3.8149,-3.7793,-3.7793,-3.7573,-3.7397,-3.7397,-3.7397,-3.7135,-3.6399,-3.6321,-3.5875,-3.4679,-3.4163,-3.3709,-3.3282,-3.2628,-3.2216,-3.2216,-3.1768,-3.1511,-3.1511,-3.1062,-3.0851,-3.0851,-3.0447,-3.0443,-3.0857,-3.0809,-3.0804,-3.0804,-3.0804,-3.0888,0.0,0.0,0.0,0.0,0.0,0.0,0.0,0.0,0.0,0.0,-1.9107,-1.9512,-2.0291,-2.1153,-2.2006,-2.2804,-2.3602,-2.4135,-2.4135,-2.4135,-2.4135,-2.4153,-2.4153,-2.4171,-2.419,-2.4905,-2.5346,-2.5346,-2.6059,-2.6363,-2.6019,-2.6044,-2.6055,-2.6135,-2.655,-2.6731,-2.6674,-2.7789,-2.7789,-2.6708,-2.8248,-2.8976,-2.9027,-2.977,-3.0497,-3.119,-3.1171,-3.119,-3.119,-3.119,-3.1207,-3.1376,-3.2831,-3.3402,-3.3567,-3.5036,-3.5161,-3.4648,-3.5316,-3.4681,-3.371,-3.4358,-3.4112,-3.3556,-3.3582,-3.3582,-3.3716,-3.4377,-3.508,-3.5623,-3.5577,-3.6115,-3.6813,-3.7559,-3.7735,-3.7735,-3.7735,-3.7735,-3.7735,-3.7748,-3.7764,-3.7735,-3.7735,-3.7084,-3.6584,-3.6584,-3.6584,-3.6306,-3.5587,-3.5569,-3.5308,-3.4598,-3.3335,-3.2557,-3.2512,-3.1899,-3.1525,-3.1511,-3.1511,-3.1511,-3.1511,-3.1511,-3.1511,-3.1511,-3.1511,-3.1511,-3.1511,-3.0253,-2.9666,-2.9666,-2.9666,-2.9968,-1.3702,0.0,0.0,0.0,0.0,0.0,0.0,0.0,0.0,-1.8467,-1.8708,-1.8664,-1.8755,-1.9792,-2.0761,-2.1128,-2.1914,-2.2455,-2.2455,-2.2455,-2.2675,-2.3263,-2.3318,-2.3566,-2.4135,-2.4186,-2.4164,0.0,-2.4161,-2.411,-2.4011,-2.4317,-2.451,-2.4549,-2.5446,-2.5915,-2.5896,-2.674,-2.7012,-2.6708,-2.7672,-2.8433,-2.9027,-2.977,-3.0497,-3.1171,-3.074,-3.0797,-3.119,-3.119,-3.1495,-3.209,-3.3034,-3.3414,-3.3587,-3.4522,-3.4431,-3.3912,-3.4103,-3.3912,-3.3633,-3.3811,-3.3417,-3.2975,-3.3469,-3.3261,-3.3009,-3.3638,-3.3951,-3.4229,-3.4681,-3.4973,-3.5278,-3.598,-3.6148,-3.6148,-3.6148,-3.6148,-3.6305,-3.6828,-3.6492,-3.6148,-3.6148,-3.5958,-3.5814,-3.5814,-3.5814,-3.5718,-3.5537,-3.5518,-3.525,-3.458,-3.4174,-3.3544,-3.2572,-3.2318,-3.2019,-3.1525,-3.1511,-3.1511,-3.1511,-3.1511,-3.1511,-3.1511,-3.1511,-3.1511,-3.1511,-3.1137,-3.0957,-3.0957,-3.0957,-3.1062,0.0,0.0,0.0,0.0,0.0,0.0,-1.5886,-1.6369,-1.6942,0.0,-1.8031,-1.7815,-1.7986,-1.877,-1.9414,-1.9552,-2.0038,-2.0699,-2.1676,-2.1794,-2.1978,-2.2446,-2.2501,-2.2749,-2.3431,-2.3306,-2.3278,-2.3493,-2.3311,-2.3141,-2.3009,-2.314,-2.3367,-2.3676,-2.4328,-2.4983,-2.5592,-2.6031,-2.6387,-2.6708,-2.7452,-2.8088,-2.8659,-2.9396,-2.9996,-3.0435,-3.0081,-3.0123,-3.0472,-3.0766,-3.1257,-3.193,-3.2414,-3.2787,-3.3177,-3.3901,-3.3761,-3.3209,-3.3495,-3.3235,-3.2756,-3.3077,-3.2707,-3.2216,-3.2625,-3.2434,-3.227,-3.2898,-3.3279,-3.3664,-3.4312,-3.4503,-3.4683,-3.534,-3.5504,-3.5504,-3.5504,-3.5504,-3.5651,-3.6054,-3.5782,-3.5504,-3.5504,-3.5504,-3.5504,-3.5504,-3.5504,-3.5504,-3.5504,-3.5504,-3.5355,-3.4951,-3.4397,-3.3754,-3.2991,-3.2392,-3.1914,-3.1525,-3.1511,-3.1511,-3.1511,-3.1511,-3.1511,-3.1511,-3.1511,-3.1511,-3.1511,-3.1511,-3.1511,-3.1511,-3.1511,-3.1511,0.0,0.0,0.0,0.0,0.0,0.0,-1.5125,-1.5621,-1.6385,0.0,0.0,-1.6839,-1.7517,-1.7769,-1.7892,-1.8009,-1.8155,-1.9025,-2.1195,-2.1484,-2.153,-2.1647,-2.1648,-2.1844,-2.2447,-2.2437,-2.2604,-2.3112,-2.3123,-2.296,-2.2673,-2.244,-2.2598,-2.3257,-2.3359,-2.4036,-2.5339,-2.5524,-2.593,-2.659,-2.7433,-2.792,-2.8129,-2.8878,-2.929,-2.9406,-2.9339,-2.9387,-2.9544,-2.9925,-3.0592,-3.1324,-3.154,-3.1997,-3.259,-3.3246,-3.3066,-3.2559,-3.3156,-3.2555,-3.1611,-3.2272,-3.2035,-3.1511,-3.1511,-3.1511,-3.1645,-3.2303,-3.2931,-3.3559,-3.4324,-3.4459,-3.4593,-3.5325,-3.5504,-3.5504,-3.5504,-3.5504,-3.5504,-3.5504,-3.5504,-3.5504,-3.5504,-3.5504,-3.5504,-3.5504,-3.5504,-3.5504,-3.5504,-3.5504,-3.5504,-3.5504,-3.4367,-3.3543,-3.3362,-3.2184,-3.1396,-3.1219,-3.1219,-3.1219,-3.1219,-3.1219,-3.1219,-3.1219,-3.1322,-3.138,-3.138,-3.1467,-3.1511,-3.1511,-3.1511,-3.1511,0.0,0.0,0.0,0.0,0.0,0.0,-1.5566,-1.5022,-1.4637,0.0,-1.5791,-1.5174,-1.5845,-1.5869,-1.5886,-1.6166,-1.6899,-1.7939,-1.9343,-1.9558,-1.9844,-2.0659,-2.0605,-2.1033,-2.2373,-2.2056,-2.2052,-2.2758,-2.2607,-2.2457,-2.2374,-2.2321,-2.2364,-2.2513,-2.3088,-2.3528,-2.3833,-2.5017,-2.566,-2.5829,-2.7328,-2.8061,-2.8125,-2.8968,-2.939,-2.9361,-2.8896,-2.9257,-3.0106,-2.8722,-2.9463,-3.1509,-3.2062,-3.2418,-3.2589,-3.2741,-3.2355,-3.1739,-3.1866,-3.1739,-3.1524,-3.1668,-3.1611,-3.1511,-3.1511,-3.1511,-3.1645,-3.2303,-3.2572,-3.2976,-3.4204,-3.4114,-3.3993,-3.522,-3.5504,-3.5504,-3.5504,-3.5504,-3.5504,-3.5504,-3.5504,-3.5504,-3.5504,-3.5504,-3.5504,-3.5504,-3.5504,-3.5504,-3.5504,-3.5504,-3.5504,-3.5504,-3.4771,-3.3787,-3.2564,-3.1731,-3.0742,-2.9563,-2.9473,-2.9473,-2.9473,-2.9473,-2.9473,-2.9473,-3.0178,-3.0524,-3.0554,-3.119,-3.1511,-3.1511,-3.1511,-3.1511,0.0,0.0,0.0,-1.4314,0.0,0.0,0.0,-1.4474,-1.4018,-1.4748,-1.4576,-1.4311,-1.4341,0.0,-1.4854,-1.5029,-1.5589,-1.6271,-1.7048,-1.8109,-1.9031,-1.968,-1.9534,-1.9987,-2.15,-2.1248,-2.1418,-2.2428,-2.2374,-2.2296,-2.2296,-2.2296,-2.2296,-2.2296,-2.2651,-2.3087,-2.3561,-2.4279,-2.4896,-2.5399,-2.6243,-2.6864,-2.7264,-2.7705,-2.8122,-2.8496,-2.8174,-2.8606,-2.9459,-2.8832,-2.9564,-3.1006,-3.1052,-3.1463,-3.2064,-3.2064,-3.1824,-3.1511,-3.1511,-3.1511,-3.1511,-3.1511,-3.1511,-3.1511,-3.1511,-3.1511,-3.157,-3.1914,-3.2228,-3.2736,-3.3724,-3.3978,-3.4247,-3.5265,-3.5504,-3.5504,-3.5504,-3.5504,-3.5359,-3.4839,-3.4758,-3.4905,-3.5392,-3.5504,-3.5504,-3.5504,-3.5504,-3.5326,-3.4806,-3.518,-3.5014,-3.3791,-3.3477,-3.2739,-3.1229,-3.0496,-2.9782,-2.9048,-2.9002,-2.9002,-2.9002,-2.9002,-2.9002,-2.9002,-2.9442,-2.9659,-2.9659,-3.0042,-3.0673,-3.1467,-3.0644,-3.0494,0.0,0.0,0.0,0.0,0.0,-1.4676,0.0,0.0,0.0,-1.3398,-1.3452,0.0,0.0,0.0,0.0,0.0,0.0,0.0,0.0,-1.6514,0.0,-1.8324,-1.8126,-1.8563,-2.0089,-2.0437,-2.0981,-2.202,-2.2212,-2.2296,-2.2296,-2.2296,-2.2268,-2.218,-2.218,-2.2495,-2.3178,-2.3456,-2.4002,-2.4801,-2.5102,-2.5638,-2.6415,-2.6426,-2.6861,-2.76,-2.76,-2.7989,-2.8622,-2.9052,-2.9714,-3.0462,-3.0103,-3.0597,-3.1511,-3.1511,-3.1511,-3.1511,-3.1511,-3.1511,-3.1511,-3.1511,-3.1511,-3.1511,-3.1511,-3.1511,-3.1511,-3.1511,-3.1974,-3.2662,-3.332,-3.3978,-3.462,-3.5083,-3.5213,-3.5166,-3.4986,-3.492,-3.4691,-3.3891,-3.3739,-3.3993,-3.4806,-3.492,-3.492,-3.492,-3.485,-3.4482,-3.367,-3.4185,-3.3856,-3.1859,-3.1726,-3.1225,-2.9876,-2.9123,-2.8684,-2.8524,-2.8524,-2.8524,-2.8524,-2.8524,-2.8524,-2.8524,-2.8684,-2.8748,-2.8748,-2.8748,-2.9535,-3.0999,-2.9628,-2.9376,0.0,0.0,0.0,0.0,-1.5525,0.0,0.0,0.0,-1.3035,-1.3399,0.0,0.0,0.0,0.0,0.0,0.0,0.0,0.0,-1.2629,-1.4052,-1.5381,-1.5998,-1.5835,-1.6347,-1.8053,-1.9989,-2.1179,-2.1309,-2.1921,-2.2296,-2.2296,-2.2296,-2.2106,-2.1688,-2.1673,-2.1557,-2.1311,-2.2547,-2.3218,-2.3341,-2.4715,-2.5737,-2.6392,-2.6516,-2.6945,-2.76,-2.76,-2.7989,-2.8562,-2.8049,-2.8888,-3.0552,-3.1077,-3.1376,-3.1511,-3.1511,-3.1511,-3.1511,-3.1511,-3.1511,-3.1511,-3.1511,-3.1511,-3.1511,-3.1511,-3.1511,-3.1511,-3.1511,-3.1974,-3.2662,-3.332,-3.3978,-3.4431,-3.4234,-3.4177,-3.3959,-3.3101,-3.2925,-3.289,-3.2784,-3.2749,-3.2784,-3.2925,-3.2925,-3.2925,-3.2925,-3.2535,-3.2185,-3.2048,-3.1744,-3.138,-3.111,-3.0601,-2.9871,-2.8932,-2.8219,-2.7537,-2.685,-2.6782,-2.6782,-2.6782,-2.6782,-2.6782,-2.6782,-2.7484,-2.7855,-2.7855,-2.7855,-2.833,-2.9286,-2.9097,-2.9063,0.0,0.0,0.0,0.0,0.0,0.0,-1.4902,0.0,-1.2207,0.0,0.0,0.0,0.0,0.0,0.0,0.0,-1.1645,0.0,0.0,0.0,-1.3515,0.0,0.0,0.0,-1.744,-1.8701,-1.9634,-2.0171,-2.0532,-2.0899,-2.1292,-2.1278,-2.1361,-2.158,-2.1368,-2.1231,-2.118,-2.2149,-2.2724,-2.2875,-2.3874,-2.4711,-2.5371,-2.5837,-2.6378,-2.7046,-2.742,-2.7989,-2.8577,-2.8293,-2.8876,-3.0028,-3.0687,-3.1152,-3.1511,-3.1511,-3.1511,-3.1511,-3.1511,-3.1511,-3.1511,-3.1511,-3.1511,-3.1511,-3.1511,-3.1765,-3.2064,-3.2064,-3.2841,-3.3527,-3.2912,-3.3472,-3.3958,-3.2973,-3.2939,-3.3066,-3.2713,-3.2593,-3.2464,-3.1888,-3.1779,-3.1609,-3.1057,-3.1865,-3.2593,-3.2593,-3.2152,-3.1729,-3.1469,-3.1185,-3.0699,-2.9891,-2.9466,-2.8985,-2.8396,-2.7507,-2.6977,-2.6987,-2.6675,-2.6637,-2.6952,-2.6663,-2.6499,-2.6499,-2.685,-2.7007,-2.7007,-2.7007,-2.7196,-2.7537,-2.7537,-2.7789,-1.9245,0.0,0.0,0.0,0.0,0.0,0.0,0.0,0.0,0.0,0.0,0.0,0.0,0.0,0.0,0.0,0.0,-1.1368,0.0,-1.1302,0.0,0.0,0.0,0.0,0.0,-1.7174,-1.8052,-1.8719,-1.9183,-1.9712,-2.0377,-2.0381,-2.0634,-2.1227,-2.0959,-2.0834,-2.0863,-2.1716,-2.2226,-2.2448,-2.3206,-2.3947,-2.4634,-2.5292,-2.5974,-2.6632,-2.7315,-2.7884,-2.8323,-2.8323,-2.8591,-2.9112,-2.9943,-3.0544,-3.0967,-3.1363,-3.1511,-3.1467,-3.1248,-3.0999,-3.0807,-3.0807,-3.0807,-3.0807,-3.0807,-3.1261,-3.1759,-3.1759,-3.2681,-3.3463,-3.2319,-3.2824,-3.3267,-3.1949,-3.1921,-3.2141,-3.1901,-3.1829,-3.1623,-3.0945,-3.0833,-3.0582,-2.9934,-3.0921,-3.1829,-3.1829,-3.1352,-3.0887,-3.0607,-3.0344,-2.9821,-2.8798,-2.8595,-2.8402,-2.8132,-2.7369,-2.7115,-2.7482,-2.7027,-2.6879,-2.727,-2.6766,-2.6575,-2.6728,-2.6587,-2.6637,-2.6952,-2.6637,-2.665,-2.6939,-2.6788,-2.7045,0.0,0.0,0.0,-1.9029,0.0,0.0,0.0,0.0,-1.3516,0.0,0.0,0.0,0.0,0.0,0.0,-1.0017,0.0,0.0,0.0,0.0,0.0,0.0,0.0,0.0,0.0,-1.5527,-1.6933,-1.6882,-1.8218,-1.9269,-1.9887,-1.9965,-2.013,-2.0334,-2.0331,-2.0139,-1.9756,-2.1075,-2.1729,-2.1739,-2.2996,-2.3947,-2.4634,-2.5292,-2.5974,-2.6632,-2.7315,-2.76,-2.763,-2.763,-2.7617,-2.7712,-2.9082,-2.9566,-2.9624,-3.1011,-3.1511,-3.138,-3.0614,-2.9797,-2.9097,-2.9097,-2.9097,-2.9097,-2.9097,-2.9463,-2.99,-2.99,-3.077,-3.1695,-3.1647,-3.2137,-3.2415,-3.1436,-3.1228,-3.1007,-3.0075,-2.9908,-2.9869,-2.9869,-2.9818,-2.983,-2.9792,-2.9869,-2.9908,-2.9908,-2.9366,-2.9001,-2.8988,-2.8522,-2.8182,-2.8122,-2.8133,-2.8121,-2.8109,-2.8072,-2.8059,-2.8084,-2.7557,-2.727,-2.7312,-2.6769,-2.6753,-2.7274,-2.6744,-2.7014,-2.8047,-2.7014,-2.704,-2.8047,-2.7507,-2.7291,0.0,0.0,-1.8636,-1.9626,0.0,0.0,0.0,0.0,0.0,0.0,0.0,0.0,0.0,0.0,-1.1722,-1.0974,-1.0853,0.0,0.0,0.0,0.0,0.0,0.0,0.0,0.0,0.0,-1.4551,-1.5601,-1.6179,-1.7164,-1.8748,-1.878,-1.9216,-2.0283,-2.0052,-2.0047,-2.0363,-2.1246,-2.1919,-2.2373,-2.3191,-2.3729,-2.3969,-2.4634,-2.5292,-2.5974,-2.6632,-2.6905,-2.6878,-2.6878,-2.6572,-2.6189,-2.7116,-2.7442,-2.7682,-2.9884,-3.0703,-3.0584,-2.9721,-2.9254,-2.9002,-2.9002,-2.9233,-2.9449,-2.9127,-2.9917,-3.0903,-3.0571,-3.133,-3.1934,-3.0562,-3.0663,-3.0823,-2.9475,-2.9423,-2.9706,-2.9781,-2.9792,-2.9792,-2.9792,-2.9792,-2.9792,-2.9792,-2.9792,-2.9792,-2.9792,-2.9302,-2.9026,-2.9453,-2.8687,-2.8398,-2.9139,-2.8549,-2.8411,-2.9164,-2.8875,-2.8612,-2.8612,-2.8142,-2.8001,-2.8334,-2.7831,-2.7621,-2.7824,-2.7643,-2.7557,-2.7557,-2.7557,-2.7557,-2.757,-2.8122,-2.8185,-2.0646,-1.9596,0.0,-1.9936,-1.8669,0.0,-1.7831,0.0,-1.6368,0.0,0.0,0.0,0.0,0.0,0.0,-1.1632,-1.1137,0.0,0.0,-1.0461,0.0,0.0,0.0,0.0,0.0,0.0,-1.3037,-1.4127,-1.4427,-1.5482,-1.7547,-1.7623,-1.8369,-2.0026,-1.9854,-2.0019,-2.0688,-2.1365,-2.2044,-2.2703,-2.3295,-2.3595,-2.3625,-2.4074,-2.4515,-2.4958,-2.557,-2.5813,-2.5822,-2.6023,-2.5673,-2.5103,-2.6032,-2.6238,-2.6245,-2.8443,-2.9167,-2.9027,-2.8465,-2.8187,-2.8117,-2.8117,-2.8338,-2.8565,-2.8237,-2.902,-2.9955,-2.9435,-3.0119,-3.0699,-2.9343,-2.9424,-2.968,-2.8886,-2.8976,-2.934,-2.9716,-2.9792,-2.9792,-2.9792,-2.9792,-2.9792,-2.9792,-2.9792,-2.9792,-2.9792,-2.9478,-2.9365,-2.9741,-2.9164,-2.8988,-2.9716,-2.9139,-2.9001,-2.9729,-2.9453,-2.9239,-2.9239,-2.8673,-2.8534,-2.8875,-2.8503,-2.8446,-2.8687,-2.8459,-2.8386,-2.8461,-2.8222,-2.8122,-2.8185,-2.8699,-2.8813]},{"header":{"parameterUnit":"m.s-1","parameterCategory":1,"la1":30.6,"la2":29.2853,"lo1":-89.7004,"lo2":-87.6739,"dy":0.0162,"dx":0.0183,"nx":112,"ny":82,"refTime":"2023-09-24T06:00:00:Z","depth":0,"parameterNumber":3,"parameterNumberName":"V-component_of_WINDS"},"data":[0.0,0.0,0.0,0.0,0.0,0.0,0.0,0.0,0.0,0.0,0.0,0.0,0.0,0.0,0.0,0.0,0.0,0.0,0.0,0.0,0.0,0.0,0.0,0.0,0.0,0.0,0.0,0.0,0.0,0.0,0.0,0.0,0.0,0.0,0.0,0.0,0.0,0.0,0.0,0.0,0.0,0.0,0.0,0.0,0.0,0.0,0.0,0.0,0.0,0.0,0.0,0.0,0.0,0.0,0.0,0.0,0.0,0.0,0.0,0.0,0.0,0.0,0.0,0.0,0.0,0.0,0.0,0.0,0.0,0.0,0.0,0.0,0.0,0.0,0.0,0.0,0.0,0.0,0.0,0.0,0.0,0.0,0.0,0.0,0.0,0.0,0.0,0.0,0.0,0.0,-0.9971,-1.1189,-1.3838,-1.5014,-1.3803,-1.2785,-1.1332,-0.9311,0.0,0.0,0.0,0.0,0.0,0.0,0.0,0.0,0.0,0.0,0.0,0.0,0.0,0.0,0.0,0.0,0.0,0.0,0.0,0.0,0.0,0.0,0.0,0.0,0.0,0.0,0.0,0.0,0.0,0.0,0.0,0.0,0.0,0.0,0.0,0.0,0.0,0.0,0.0,0.0,0.0,0.0,0.0,0.0,0.0,0.0,0.0,0.0,0.0,0.0,0.0,0.0,0.0,0.0,0.0,0.0,0.0,0.0,0.0,0.0,0.0,0.0,0.0,0.0,0.0,0.0,0.0,0.0,0.0,0.0,0.0,0.0,0.0,0.0,0.0,0.0,0.0,0.0,0.0,0.0,0.0,0.0,0.0,0.0,0.0,0.0,0.0,0.0,0.0,0.0,0.0,0.0,0.0,0.0,0.0,0.0,0.0,0.0,0.0,0.0,0.0,0.0,0.0,0.0,-0.9678,-1.248,-1.4161,-1.4592,-1.3305,-1.1777,-1.0379,-0.9188,0.0,0.0,0.0,0.0,0.0,0.0,0.0,0.0,0.0,0.0,0.0,0.0,0.0,0.0,0.0,0.0,0.0,0.0,0.0,0.0,0.0,0.0,0.0,0.0,0.0,0.0,0.0,0.0,0.0,0.0,0.0,0.0,0.0,0.0,0.0,0.0,0.0,0.0,0.0,0.0,0.0,0.0,0.0,0.0,0.0,0.0,0.0,0.0,0.0,0.0,0.0,0.0,0.0,0.0,0.0,0.0,0.0,0.0,0.0,0.0,0.0,0.0,0.0,0.0,0.0,0.0,0.0,0.0,0.0,0.0,0.0,0.0,0.0,0.0,0.0,0.0,0.0,0.0,0.0,0.0,0.0,0.0,0.0,0.0,0.0,0.0,0.0,0.0,0.0,0.0,0.0,0.0,0.0,0.0,0.0,0.0,0.0,0.0,0.0,0.0,0.0,0.0,0.0,-0.8307,-0.9949,-1.2746,-1.3606,-1.3608,-1.2691,-1.1287,-0.999,-0.8953,-0.7472,0.0,0.0,0.0,0.0,0.0,0.0,0.0,0.0,0.0,0.0,0.0,0.0,0.0,0.0,0.0,0.0,0.0,0.0,0.0,0.0,0.0,0.0,0.0,0.0,0.0,0.0,0.0,0.0,0.0,0.0,0.0,0.0,0.0,0.0,0.0,0.0,0.0,0.0,0.0,0.0,0.0,0.0,0.0,0.0,0.0,0.0,0.0,0.0,0.0,0.0,0.0,0.0,0.0,0.0,0.0,0.0,0.0,0.0,0.0,0.0,0.0,0.0,0.0,0.0,0.0,0.0,0.0,0.0,0.0,0.0,0.0,0.0,0.0,0.0,0.0,0.0,0.0,0.0,0.0,0.0,0.0,0.0,0.0,0.0,0.0,0.0,0.0,0.0,0.0,0.0,0.0,0.0,0.0,0.0,0.0,0.0,0.0,0.0,0.0,0.0,0.0,0.0,-0.9545,-1.0386,-1.248,-1.2744,-1.2542,-1.1937,-1.0743,-0.9631,-0.8715,-0.6985,0.0,0.0,0.0,0.0,0.0,0.0,0.0,0.0,0.0,0.0,0.0,0.0,0.0,0.0,0.0,0.0,0.0,0.0,0.0,0.0,0.0,0.0,0.0,0.0,0.0,0.0,0.0,0.0,0.0,0.0,0.0,0.0,0.0,0.0,0.0,0.0,0.0,0.0,0.0,0.0,0.0,0.0,0.0,0.0,0.0,0.0,0.0,0.0,0.0,0.0,0.0,0.0,0.0,0.0,0.0,0.0,0.0,0.0,0.0,0.0,0.0,0.0,0.0,0.0,0.0,0.0,0.0,0.0,0.0,0.0,0.0,0.0,0.0,0.0,0.0,0.0,0.0,0.0,0.0,0.0,0.0,0.0,0.0,0.0,0.0,0.0,0.0,0.0,0.0,0.0,0.0,0.0,0.0,0.0,0.0,0.0,0.0,0.0,0.0,0.0,0.0,0.0,-0.9884,-1.0774,-1.1696,-1.1845,-1.1664,-1.1038,-0.9883,-0.8987,-0.8545,-0.6924,0.0,0.0,0.0,0.0,0.0,0.0,0.0,0.0,0.0,0.0,0.0,0.0,0.0,0.0,0.0,0.0,0.0,0.0,0.0,0.0,0.0,0.0,0.0,0.0,0.0,0.0,0.0,0.0,0.0,0.0,0.0,0.0,0.0,0.0,0.0,0.0,0.0,0.0,0.0,0.0,0.0,0.0,0.0,0.0,0.0,0.0,0.0,0.0,0.0,0.0,0.0,0.0,0.0,0.0,0.0,0.0,0.0,0.0,0.0,0.0,0.0,0.0,0.0,0.0,0.0,0.0,0.0,0.0,0.0,0.0,0.0,0.0,0.0,0.0,0.0,0.0,0.0,0.0,0.0,0.0,0.0,0.0,0.0,0.0,0.0,0.0,0.0,0.0,0.0,0.0,0.0,0.0,0.0,0.0,0.0,0.0,0.0,0.0,0.0,0.0,0.0,0.0,-0.9215,-0.9875,0.0,-1.1429,-1.1055,-1.0557,-0.9848,-0.8976,-0.7945,0.0,0.0,0.0,0.0,0.0,0.0,0.0,0.0,0.0,0.0,0.0,0.0,0.0,0.0,0.0,0.0,0.0,0.0,0.0,0.0,0.0,0.0,0.0,0.0,0.0,0.0,0.0,0.0,0.0,0.0,0.0,0.0,0.0,0.0,0.0,0.0,0.0,0.0,0.0,0.0,0.0,0.0,0.0,0.0,0.0,0.0,0.0,0.0,0.0,0.0,0.0,0.0,0.0,0.0,0.0,0.0,0.0,0.0,0.0,0.0,0.0,0.0,0.0,0.0,0.0,0.0,0.0,0.0,0.0,0.0,0.0,0.0,0.0,0.0,0.0,0.0,0.0,0.0,0.0,0.0,0.0,0.0,0.0,0.0,0.0,0.0,0.0,0.0,0.0,0.0,0.0,0.0,0.0,0.0,0.0,0.0,0.0,0.0,0.0,0.0,0.0,0.0,-0.8762,-0.8772,-0.931,0.0,-1.0686,-1.0244,-1.0088,-0.9553,-0.8689,-0.7471,0.0,0.0,0.0,0.0,0.0,0.0,0.0,0.0,0.0,0.0,0.0,0.0,0.0,0.0,0.0,0.0,0.0,0.0,0.0,0.0,0.0,0.0,0.0,0.0,0.0,0.0,0.0,0.0,0.0,0.0,0.0,0.0,0.0,0.0,0.0,0.0,0.0,0.0,0.0,0.0,0.0,0.0,0.0,0.0,0.0,0.0,0.0,0.0,0.0,0.0,0.0,0.0,0.0,0.0,0.0,0.0,0.0,0.0,0.0,0.0,0.0,0.0,0.0,0.0,0.0,0.0,0.0,0.0,0.0,0.0,0.0,0.0,0.0,0.0,0.0,0.0,0.0,0.0,0.0,0.0,0.0,0.0,0.0,0.0,0.0,0.0,0.0,0.0,0.0,0.0,0.0,0.0,0.0,0.0,0.0,0.0,0.0,0.0,0.0,0.0,0.0,0.0,-0.8394,-0.8729,-0.9258,-1.0184,-0.9512,-0.9153,-0.9544,-0.8856,-0.8049,0.0,0.0,0.0,0.0,0.0,0.0,0.0,0.0,0.0,0.0,0.0,0.0,0.0,0.0,0.0,0.0,0.0,0.0,0.0,0.0,0.0,0.0,0.0,0.0,0.0,0.0,0.0,0.0,0.0,0.0,0.0,0.0,0.0,0.0,0.0,0.0,0.0,0.0,0.0,0.0,0.0,0.0,0.0,0.0,0.0,0.0,0.0,0.0,0.0,0.0,0.0,0.0,0.0,0.0,0.0,0.0,0.0,0.0,0.0,0.0,0.0,0.0,0.0,0.0,0.0,0.0,0.0,0.0,0.0,0.0,0.0,0.0,0.0,0.0,0.0,0.0,0.0,0.0,0.0,0.0,0.0,0.0,0.0,0.0,0.0,0.0,0.0,0.0,0.0,0.0,0.0,0.0,0.0,0.0,0.0,0.0,0.0,0.0,0.0,0.0,0.0,0.0,0.0,-0.8021,-0.856,-0.9023,-0.9359,-0.916,-0.8936,-0.876,-0.8791,-0.8246,-0.6855,0.0,0.0,0.0,0.0,0.0,0.0,0.0,0.0,0.0,0.0,0.0,0.0,0.0,0.0,0.0,0.0,0.0,0.0,0.0,0.0,0.0,0.0,0.0,0.0,0.0,0.0,0.0,0.0,0.0,0.0,0.0,0.0,0.0,0.0,0.0,0.0,0.0,0.0,0.0,0.0,0.0,0.0,0.0,0.0,0.0,0.0,0.0,0.0,0.0,0.0,0.0,0.0,0.0,0.0,0.0,0.0,0.0,0.0,0.0,0.0,0.0,0.0,0.0,0.0,0.0,0.0,0.0,0.0,0.0,0.0,0.0,0.0,0.0,0.0,0.0,0.0,0.0,0.0,0.0,0.0,0.0,0.0,0.0,0.0,0.0,0.0,0.0,0.0,0.0,0.0,0.0,0.0,0.0,0.0,0.0,0.0,0.0,0.0,0.0,0.0,0.0,0.0,-0.7703,-0.8307,-0.8842,-0.9207,-0.8782,-0.8587,-0.8857,-0.8589,-0.7972,-0.6949,0.0,0.0,0.0,0.0,0.0,0.0,0.0,0.0,0.0,0.0,0.0,0.0,0.0,0.0,0.0,0.0,0.0,0.0,0.0,0.0,0.0,0.0,0.0,0.0,0.0,0.0,0.0,0.0,0.0,0.0,0.0,0.0,0.0,0.0,0.0,0.0,0.0,0.0,0.0,0.0,0.0,0.0,0.0,0.0,0.0,0.0,0.0,0.0,0.0,0.0,0.0,0.0,0.0,0.0,0.0,0.0,0.0,0.0,0.0,0.0,0.0,0.0,0.0,0.0,0.0,0.0,0.0,0.0,0.0,0.0,0.0,0.0,0.0,0.0,0.0,0.0,0.0,0.0,0.0,0.0,0.0,0.0,0.0,0.0,0.0,0.0,0.0,0.0,0.0,0.0,0.0,0.0,0.0,0.0,0.0,0.0,0.0,0.0,0.0,0.0,0.0,0.0,-0.7479,-0.8052,-0.8711,-0.9416,-0.8412,-0.8158,-0.9307,-0.8238,-0.7439,-0.7253,0.0,0.0,0.0,0.0,0.0,0.0,0.0,0.0,0.0,0.0,0.0,0.0,0.0,0.0,0.0,0.0,0.0,0.0,0.0,0.0,0.0,0.0,0.0,0.0,0.0,0.0,0.0,0.0,0.0,0.0,0.0,0.0,0.0,0.0,0.0,0.0,0.0,0.0,0.0,0.0,0.0,0.0,0.0,0.0,0.0,0.0,0.0,0.0,0.0,0.0,0.0,0.0,0.0,0.0,0.0,0.0,0.0,0.0,0.0,0.0,-0.6614,0.0,0.0,0.0,0.0,0.0,0.0,0.0,0.0,0.0,0.0,0.0,0.0,0.0,0.0,0.0,0.0,0.0,0.0,0.0,0.0,0.0,0.0,0.0,0.0,0.0,0.0,0.0,0.0,0.0,0.0,0.0,0.0,0.0,0.0,0.0,0.0,0.0,0.0,0.0,0.0,0.0,-0.751,-0.8299,-0.8809,-0.8662,-0.8127,-0.7821,-0.7936,-0.7732,-0.7389,-0.6944,-0.6834,0.0,0.0,0.0,0.0,0.0,0.0,0.0,0.0,0.0,0.0,0.0,0.0,0.0,0.0,0.0,0.0,0.0,0.0,0.0,0.0,0.0,0.0,0.0,0.0,0.0,0.0,0.0,0.0,0.0,0.0,0.0,0.0,0.0,0.0,0.0,0.0,0.0,0.0,0.0,0.0,0.0,0.0,0.0,0.0,0.0,0.0,0.0,0.0,0.0,0.0,0.0,0.0,0.0,0.0,0.0,0.0,0.0,0.0,0.0,0.0,-0.6318,0.0,0.0,0.0,0.0,0.0,0.0,0.0,0.0,0.0,0.0,0.0,0.0,0.0,0.0,0.0,0.0,0.0,0.0,0.0,0.0,0.0,0.0,0.0,0.0,0.0,0.0,0.0,0.0,0.0,0.0,0.0,0.0,0.0,0.0,0.0,0.0,0.0,0.0,0.0,0.0,-0.8228,-0.8636,-0.8824,-0.8618,-0.8006,-0.774,-0.8055,-0.7676,-0.7385,-0.7324,-0.6944,0.0,0.0,0.0,0.0,0.0,0.0,0.0,0.0,0.0,0.0,0.0,0.0,0.0,0.0,0.0,0.0,0.0,0.0,0.0,0.0,0.0,0.0,0.0,0.0,0.0,0.0,0.0,0.0,0.0,0.0,0.0,0.0,0.0,0.0,0.0,0.0,0.0,0.0,0.0,0.0,0.0,0.0,0.0,0.0,0.0,0.0,0.0,0.0,0.0,0.0,0.0,0.0,0.0,-1.2137,-1.1812,-1.1259,-1.0278,-0.9875,-0.9876,-0.872,-0.8633,-0.9118,-0.6309,0.0,0.0,0.0,0.0,0.0,0.0,0.0,0.0,0.0,0.0,0.0,0.0,0.0,0.0,0.0,0.0,0.0,0.0,0.0,0.0,0.0,0.0,0.0,0.0,-0.7465,-0.7215,-0.6899,0.0,0.0,0.0,0.0,0.0,0.0,0.0,0.0,0.0,0.0,0.0,-0.8815,-0.8828,-0.8748,-0.8659,-0.7895,-0.769,-0.8367,-0.761,-0.7286,-0.7724,-0.6961,-0.6487,0.0,0.0,0.0,0.0,0.0,0.0,0.0,0.0,0.0,0.0,0.0,0.0,0.0,0.0,0.0,0.0,0.0,0.0,0.0,0.0,0.0,0.0,0.0,0.0,0.0,0.0,0.0,0.0,0.0,0.0,0.0,0.0,-0.7218,-0.8368,0.0,0.0,0.0,0.0,0.0,0.0,0.0,0.0,0.0,0.0,0.0,0.0,0.0,-1.1728,-1.402,-1.5283,-1.5823,-1.5583,-1.6659,-1.618,-1.4419,-1.4591,-1.4881,-1.5134,-1.2542,0.0,-0.9007,-0.8457,0.0,0.0,0.0,0.0,0.0,0.0,0.0,0.0,0.0,0.0,0.0,0.0,0.0,0.0,0.0,0.0,0.0,0.0,0.0,0.0,0.0,0.0,-0.8391,-0.8586,-0.858,-0.8541,0.0,-0.7279,-0.6187,-0.6182,-0.6567,0.0,0.0,0.0,0.0,0.0,0.0,0.0,-0.8128,-0.8443,-0.8565,-0.8144,-0.7682,-0.7394,-0.7407,-0.6955,-0.6807,-0.7112,-0.6988,-0.7041,-0.7313,-0.6806,0.0,0.0,0.0,0.0,0.0,0.0,0.0,0.0,0.0,0.0,0.0,0.0,0.0,0.0,0.0,0.0,0.0,0.0,0.0,0.0,0.0,0.0,0.0,0.0,0.0,0.0,0.0,0.0,0.0,-0.7568,-0.9517,-1.0199,-0.9748,-0.8692,0.0,0.0,0.0,0.0,0.0,0.0,0.0,0.0,0.0,-1.1845,-1.3267,-1.5163,-1.7603,-1.7743,-1.7884,-1.7976,-1.7489,-1.679,-1.5894,-1.5472,-1.5374,-1.5517,-1.422,-1.2876,-1.1475,-0.985,-0.9062,-0.8703,0.0,0.0,0.0,0.0,-0.5807,-0.5853,-0.6618,-0.7535,-0.829,-0.8003,0.0,0.0,0.0,0.0,0.0,0.0,0.0,-0.6275,0.0,0.0,-0.8365,-0.9125,-0.9172,-0.9024,-0.9024,-0.8268,-0.7471,0.0,-0.7116,-0.7263,-0.7257,0.0,0.0,0.0,0.0,-0.8474,-0.8873,-0.8512,-0.8179,-0.797,-0.7477,-0.7146,-0.7085,-0.6929,-0.6887,-0.6993,-0.7,-0.706,-0.7208,-0.7241,-0.7038,0.0,0.0,0.0,0.0,0.0,0.0,0.0,0.0,0.0,0.0,0.0,0.0,0.0,0.0,0.0,0.0,0.0,0.0,0.0,0.0,0.0,0.0,0.0,0.0,0.0,0.0,0.0,0.0,-0.9287,-1.1437,-1.1631,-1.1758,-1.0998,0.0,0.0,0.0,0.0,0.0,0.0,-0.8845,-1.0297,-1.2389,-1.5165,-1.6359,-1.7955,-2.0079,-1.9313,-1.8899,-1.8931,-1.7559,-1.6713,-1.6362,-1.5579,-1.5184,-1.5223,-1.5075,-1.4589,-1.3771,-1.1439,-1.0373,-1.0149,-0.9315,-0.8497,-0.7791,-0.783,-0.7824,-0.7849,-0.84,-0.9057,-0.9627,-0.9497,-0.9228,-0.8825,-0.826,0.0,0.0,0.0,0.0,-0.6919,-0.8165,-0.8281,-0.8334,-0.933,-0.9317,-0.9098,-0.9098,-0.8931,-0.8592,0.0,-0.776,-0.7752,-0.7747,0.0,0.0,0.0,0.0,-0.8487,-0.9276,-0.846,-0.7808,-0.7808,-0.7321,-0.7,-0.7,-0.7,-0.7,-0.7,-0.7,-0.7,-0.7,-0.7513,-0.745,-0.6717,0.0,0.0,0.0,0.0,0.0,0.0,0.0,0.0,0.0,0.0,0.0,0.0,0.0,0.0,0.0,0.0,0.0,0.0,0.0,0.0,0.0,0.0,0.0,0.0,0.0,0.0,0.0,0.0,0.0,-1.1847,-1.4122,0.0,0.0,0.0,0.0,-0.828,-0.8791,-0.9727,-1.0999,-1.3222,-1.5482,-1.7747,-1.9085,-2.0081,-2.0632,-1.987,-1.8905,-1.7795,-1.7678,-1.6987,-1.5832,-1.5785,-1.5738,-1.5752,-1.5204,-1.4981,-1.4847,-1.3553,-1.2682,-1.1989,-1.0452,-0.9962,-1.0078,-0.9574,-0.9373,-0.9493,-1.0213,-1.0503,-1.0616,-1.1115,-1.1095,-1.0634,-0.9334,-0.8676,0.0,0.0,-0.7571,-0.8381,-0.8387,-0.8757,-0.9147,-0.9203,-0.9018,-0.8831,-0.8831,-0.8818,-0.8785,0.0,-0.8718,-0.8606,-0.8248,0.0,-0.9321,-0.8428,-0.8878,-0.9119,-0.8543,-0.7916,-0.7508,-0.7508,-0.7209,-0.7,-0.7,-0.7,-0.7,-0.7,-0.7,-0.7,-0.7,-0.7343,-0.7622,-0.7825,-0.6764,0.0,0.0,0.0,0.0,0.0,0.0,0.0,0.0,0.0,0.0,0.0,0.0,0.0,0.0,0.0,0.0,0.0,0.0,0.0,0.0,0.0,0.0,0.0,0.0,0.0,0.0,0.0,0.0,-1.4058,-1.5303,0.0,-1.2577,-1.1527,-1.0776,-1.0289,-1.1761,-1.3008,-1.388,-1.5638,-1.7069,-1.804,-1.9122,-1.9747,-1.9928,-1.8891,-1.8141,-1.7684,-1.685,-1.6244,-1.5784,-1.5784,-1.5784,-1.5771,-1.5611,-1.5418,-1.5197,-1.4589,-1.3874,-1.3067,-1.2123,-1.18,-1.1908,-1.1702,-1.1631,-1.1655,-1.1925,-1.1873,-1.1623,-1.1263,-1.1076,-1.0836,-0.997,-0.9618,-0.943,-0.9041,-0.9213,-0.957,-0.9757,-0.9947,-1.004,-0.9824,-0.9579,-0.9319,-0.9098,-0.8911,-0.8804,-0.8804,-0.8804,-0.8883,-0.9178,-0.9178,-0.9185,-0.9223,-0.8952,-0.8664,-0.842,-0.8016,-0.7689,-0.7511,-0.739,-0.733,-0.733,-0.7134,-0.708,-0.7316,-0.7128,-0.7,-0.7,-0.7479,-0.7792,-0.7905,-0.7873,-0.7115,0.0,0.0,0.0,0.0,0.0,0.0,0.0,0.0,0.0,0.0,0.0,0.0,0.0,0.0,0.0,0.0,0.0,0.0,0.0,0.0,0.0,0.0,0.0,0.0,0.0,0.0,-1.5404,-1.5475,-1.668,-1.6502,-1.4008,-1.3258,-1.2954,-1.2981,-1.4411,-1.5431,-1.5818,-1.7191,-1.8018,-1.8122,-1.8699,-1.8983,-1.891,-1.7677,-1.7037,-1.7037,-1.6197,-1.5784,-1.5784,-1.5784,-1.5784,-1.5771,-1.5678,-1.5518,-1.5224,-1.4937,-1.4409,-1.3713,-1.3393,-1.3239,-1.3213,-1.3018,-1.2945,-1.2911,-1.2703,-1.2569,-1.2338,-1.1657,-1.1369,-1.1196,-1.0708,-1.0494,-1.0388,-1.0294,-1.0267,-1.0314,-1.0539,-1.0519,-1.0334,-1.004,-0.9746,-0.9452,-0.9131,-0.8918,-0.8804,-0.8804,-0.8804,-0.8798,-0.8829,-0.8467,-0.8171,-0.8191,-0.7644,-0.7251,-0.7251,-0.7366,-0.7318,-0.702,-0.7308,-0.7513,-0.7513,-0.699,-0.6937,-0.7602,-0.702,-0.6861,-0.7284,-0.7325,-0.7345,-0.7382,-0.7469,-0.674,-0.5125,0.0,0.0,0.0,0.0,0.0,0.0,0.0,0.0,0.0,0.0,0.0,0.0,0.0,0.0,0.0,0.0,0.0,0.0,0.0,0.0,0.0,0.0,0.0,-1.2212,-1.6271,-1.822,-1.6038,-1.829,-1.903,-1.6499,-1.629,-1.6286,-1.6286,-1.6553,-1.672,-1.672,-1.7832,-1.8319,-1.8056,-1.8026,-1.7911,-1.7645,-1.6433,-1.5784,-1.5784,-1.5784,-1.5784,-1.5784,-1.5784,-1.5784,-1.5764,-1.5531,-1.5251,-1.5015,-1.4663,-1.4326,-1.4066,-1.4095,-1.4082,-1.4008,-1.3447,-1.3227,-1.3126,-1.2532,-1.2543,-1.2723,-1.2398,-1.2111,-1.1859,-1.1482,-1.1236,-1.0955,-1.0687,-1.0606,-1.0606,-1.0606,-1.0385,-1.0053,-0.9766,-0.9479,-0.9158,-0.8898,-0.8831,-0.8824,-0.8824,-0.8811,-0.8419,-0.7182,-0.6954,-0.6548,-0.5291,-0.5107,0.0,-0.5107,-0.5976,-0.643,-0.6045,-0.6934,-0.7502,-0.747,-0.6595,-0.658,-0.7804,-0.673,-0.6603,-0.7821,-0.681,-0.6297,-0.6416,-0.5489,-0.5004,-0.4984,0.0,0.0,0.0,0.0,0.0,0.0,0.0,0.0,0.0,0.0,0.0,0.0,0.0,0.0,0.0,0.0,0.0,0.0,0.0,0.0,0.0,0.0,-1.4268,-1.6729,-1.7531,-1.8269,-1.936,-1.9161,-1.8401,-1.7077,-1.6715,-1.6587,-1.6587,-1.686,-1.7079,-1.7079,-1.7166,-1.7158,-1.7076,-1.6642,-1.6422,-1.6339,-1.5967,-1.5784,-1.5784,-1.5784,-1.5784,-1.5784,-1.5784,-1.5784,-1.5778,-1.5698,-1.5665,-1.5551,-1.505,-1.4295,-1.3502,-1.3943,-1.3955,-1.3733,-1.3828,-1.3574,-1.3186,-1.3019,-1.2726,-1.2412,-1.2325,-1.2245,-1.2091,-1.1542,-1.1516,-1.1558,-1.1015,-1.0875,-1.0875,-1.0875,-1.0687,-1.0399,-1.0067,-0.9933,-0.9764,-0.9506,-0.9272,-0.9091,-0.9091,-0.8924,-0.8692,-0.8335,-0.8272,-0.8151,-0.7807,-0.774,0.0,-0.774,-0.799,-0.7645,-0.63,-0.7364,-0.771,-0.6654,-0.7062,-0.7392,-0.7473,-0.7405,-0.7304,-0.7098,-0.7044,-0.6852,-0.6558,-0.5437,-0.4804,0.0,0.0,0.0,0.0,0.0,0.0,0.0,0.0,0.0,0.0,0.0,0.0,0.0,0.0,0.0,0.0,0.0,0.0,0.0,0.0,0.0,0.0,-1.3267,-1.6595,-1.9561,-1.9374,-1.9296,-2.0266,-1.9567,-1.8542,-1.7464,-1.7174,-1.7074,-1.7074,-1.7286,-1.738,-1.738,-1.7105,-1.6834,-1.6707,-1.6259,-1.5952,-1.5784,-1.5784,-1.5784,-1.5784,-1.5784,-1.5784,-1.5784,-1.5784,-1.5784,-1.5784,-1.5784,-1.5758,-1.5565,-1.4637,-1.3789,0.0,0.0,0.0,0.0,0.0,-1.342,-1.2999,-1.2872,-1.2679,-1.2509,-1.2345,-1.2305,-1.2211,-1.175,-1.173,-1.1779,-1.1156,-1.0995,-1.0896,-1.0412,-1.0168,-0.9876,-0.918,-0.9303,-0.9478,-0.92,-0.9281,-0.9357,-0.9237,-0.9178,0.0,-0.8984,-0.8431,-0.7824,-0.7296,-0.7206,-0.7206,-0.7206,-0.7683,-0.7455,-0.6026,-0.7374,-0.7916,-0.6767,-0.6852,0.0,0.0,0.0,-0.6325,-0.5813,-0.6051,0.0,0.0,0.0,-0.377,-0.4261,-0.3647,0.0,0.0,-0.3583,-0.3283,0.0,0.0,0.0,0.0,0.0,0.0,0.0,0.0,0.0,0.0,0.0,0.0,0.0,0.0,0.0,0.0,-1.4252,-1.7486,-2.0607,-2.0819,-2.0403,-1.9746,-1.9532,-1.8952,-1.774,-1.7555,-1.7549,-1.7582,-1.7555,-1.7549,-1.7582,0.0,0.0,0.0,0.0,-1.6146,-1.5879,-1.5798,-1.5784,-1.5784,-1.5784,-1.5784,-1.5784,-1.5784,-1.5784,-1.5778,-1.5635,-1.5423,-1.5088,-1.3598,-1.281,-1.2651,-1.3357,-1.3008,-1.2184,-1.2834,-1.2838,-1.2485,-1.2311,0.0,0.0,-1.2089,-1.2059,-1.2061,-1.1811,-1.1774,-1.1655,-1.1108,-1.0849,-1.0519,-0.9521,-0.9194,-0.8898,-0.7849,-0.8146,-0.865,-0.8401,-0.8935,-0.9356,-0.9069,-0.9233,-0.9305,-0.9017,-0.7925,-0.6669,-0.5538,-0.5288,-0.522,-0.517,-0.6163,-0.6444,-0.5402,0.0,0.0,-0.7039,-0.6256,-0.6284,-0.7379,-0.5787,-0.4722,-0.4535,-0.4692,-0.4302,-0.3269,-0.251,-0.2689,-0.3879,-0.3879,-0.408,-0.446,-0.3118,-0.3189,0.0,0.0,0.0,0.0,0.0,0.0,0.0,0.0,0.0,0.0,0.0,0.0,0.0,0.0,0.0,-1.2699,-1.5183,-1.7323,-1.822,-1.83,-1.8684,-1.9836,-1.9,-1.8116,-1.7661,-1.742,-1.738,-1.7562,-1.742,-1.7387,-1.7569,-1.736,-1.7172,-1.7119,-1.6603,-1.6246,-1.6186,-1.5945,-1.5784,-1.5784,0.0,0.0,-1.5784,-1.5784,-1.5784,-1.573,-1.4704,-1.417,-1.3916,-1.2303,-1.1399,-1.1041,-1.0985,-1.0921,-1.1048,-1.1863,-1.1553,-1.0824,-1.1557,-1.1082,-1.0112,-1.0064,-1.0536,-1.1075,-1.0885,-1.0941,0.0,-1.0599,-0.9893,-0.9164,-0.8939,-0.8665,-0.8358,-0.8112,-0.8125,-0.8137,-0.8095,-0.8001,-0.7921,-0.7842,-0.7691,-0.7586,-0.7509,-0.7854,-0.7984,-0.7623,-0.6997,-0.647,-0.6308,-0.6504,-0.6135,-0.4743,-0.6006,-0.6402,-0.5071,-0.5874,-0.6291,-0.5946,-0.5562,-0.5325,-0.5298,-0.5331,-0.4995,-0.4239,-0.4067,-0.4095,-0.438,-0.4374,-0.4399,-0.4519,-0.4749,-0.4708,0.0,0.0,0.0,0.0,0.0,0.0,0.0,0.0,0.0,0.0,0.0,-0.9764,0.0,0.0,-1.2818,-1.314,-1.5579,-1.7468,-1.7769,-1.7943,-1.8299,-1.8985,-1.8324,-1.7756,-1.7595,-1.7507,-1.7481,-1.7569,-1.7501,-1.7481,-1.7575,-1.736,-1.7132,-1.6985,-1.6549,-1.6206,-1.6052,-1.5905,-1.5784,-1.5784,-1.5784,-1.5784,-1.5784,-1.5784,-1.5439,-1.48,-1.4166,-1.3446,-1.2579,-1.0977,-0.9714,-0.8825,-0.869,-0.9382,-1.0434,-1.091,-1.0585,-1.0003,-1.0463,-1.0105,-0.9477,-0.9411,-0.9682,-1.0045,-0.997,-1.0008,-0.9991,-0.9666,-0.9197,-0.8663,-0.8092,-0.7814,-0.7533,-0.7116,-0.728,-0.7522,-0.745,-0.7726,-0.7859,-0.7568,-0.7593,-0.7572,-0.7354,-0.7429,-0.7573,-0.7626,-0.7208,-0.6864,-0.6759,-0.6653,-0.6165,-0.507,-0.593,-0.6142,-0.5045,-0.5616,-0.5737,-0.5058,-0.5003,-0.5003,-0.5003,-0.5003,-0.4842,-0.4519,-0.4491,-0.4491,-0.4491,-0.4491,-0.4491,-0.4519,-0.4842,-0.4814,0.0,0.0,0.0,0.0,0.0,0.0,0.0,0.0,-1.094,-1.0478,-1.0918,-1.1011,-0.9963,-1.1728,-1.3475,-1.39,-1.6018,-1.7689,-1.7949,-1.8203,-1.8223,-1.7929,-1.7736,-1.7582,-1.7582,-1.7482,-1.7455,-1.7575,-1.7528,-1.7522,-1.7582,-1.7414,-1.7146,-1.68,-1.6506,-1.6213,-1.5919,-1.5811,-1.5784,-1.5784,-1.5784,-1.5683,-1.5439,-1.5439,-1.4704,-1.3482,-1.3188,-1.2199,-1.0749,-0.9427,-0.818,-0.7095,-0.7095,-0.8143,-0.963,-0.9841,-0.9605,-0.9224,-0.9301,-0.9161,-0.8941,-0.8821,-0.8909,-0.9003,-0.9042,-0.9027,-0.8954,-0.8694,-0.8462,-0.8093,-0.7187,-0.6909,-0.6705,-0.6024,-0.6359,-0.6828,-0.6714,-0.7311,-0.7767,-0.7274,-0.7484,-0.7605,-0.7242,-0.6798,-0.6628,-0.692,-0.6738,-0.6538,-0.6492,-0.6341,-0.6005,-0.5382,-0.5846,-0.5959,-0.5355,-0.53,-0.5085,-0.4543,-0.4491,-0.4491,-0.4491,-0.4491,-0.4491,-0.4491,-0.4491,-0.4491,-0.4491,-0.4491,-0.4491,-0.4491,-0.4491,-0.4491,-0.4428,-0.443,0.0,-0.582,-0.7572,-0.9892,0.0,0.0,-1.4334,-1.5153,-1.5805,-1.5903,-1.4812,-1.5519,-1.6318,-1.6724,-1.7218,-1.7689,-1.7949,-1.7836,-1.7675,-1.7642,-1.7602,-1.7582,-1.7582,-1.7114,-1.7021,-1.7542,-1.7393,-1.7367,-1.7569,-1.7549,-1.7454,-1.7159,-1.6814,-1.652,-1.6274,-1.5965,-1.5784,-1.5784,-1.5784,-1.5194,-1.4118,-1.4118,-1.3397,-1.2017,-1.0622,-0.9204,-0.7861,-0.7499,-0.7241,-0.7095,-0.7095,-0.7258,-0.7592,-0.8638,-0.8364,-0.7541,-0.848,-0.8022,-0.6998,-0.698,-0.7418,-0.8004,-0.8121,-0.8061,-0.7965,-0.7905,-0.7256,-0.6535,-0.644,-0.6256,-0.6114,-0.6003,-0.5974,-0.594,-0.5922,-0.6001,-0.6069,-0.6015,-0.6033,-0.6047,-0.6012,-0.5951,-0.6015,-0.6434,-0.5806,-0.5229,-0.4984,-0.4934,-0.4841,-0.4639,-0.468,-0.4708,-0.4625,-0.4598,-0.457,-0.4519,-0.4491,-0.4491,-0.4491,-0.4491,-0.4491,-0.4491,-0.4491,-0.4491,-0.4491,-0.4491,-0.4491,-0.4491,-0.4491,-0.4491,-0.7555,0.0,0.0,0.0,-1.2174,-1.2631,-1.5732,-1.6176,-1.6006,-1.6229,-1.6662,-1.6844,-1.6251,-1.6319,-1.666,0.0,-1.7414,-1.7435,-1.7736,-1.7522,-1.7268,-1.7094,-1.6921,-1.6887,-1.7054,-1.6847,-1.6881,-1.7353,-1.7266,-1.7326,-1.7569,-1.7474,-1.7246,-1.6901,-1.6607,-1.6313,-1.6019,-1.5892,-1.5439,-1.4704,-1.4704,-1.4028,-1.2721,-1.2721,-1.2042,-1.0707,-0.9084,-0.8066,-0.7492,-0.7339,-0.7221,-0.7105,-0.7241,-0.7221,-0.7139,-0.7665,-0.7533,-0.7163,-0.7529,-0.7242,-0.6685,-0.6597,-0.6741,-0.6922,-0.6986,-0.6959,-0.6907,-0.6907,-0.6641,-0.63,-0.63,-0.6252,-0.6166,-0.6166,-0.6115,-0.6044,-0.5956,-0.6006,-0.6017,-0.5837,-0.5874,-0.5908,-0.5817,-0.58,-0.5842,-0.6025,-0.5605,-0.5189,-0.4975,-0.4796,-0.4662,-0.4505,-0.4491,-0.4491,-0.4491,-0.4491,-0.4491,-0.4491,-0.4491,-0.4491,-0.4491,-0.4042,-0.379,-0.379,-0.3372,-0.3151,-0.3151,-0.3151,-0.3372,-0.379,-0.379,-0.379,-0.9091,0.0,0.0,-1.523,-1.5686,-1.5386,-1.7319,-1.7326,-1.6827,-1.6467,-1.6531,-1.6635,-1.6594,-1.6111,-1.6097,-1.717,-1.6969,-1.6665,-1.6788,-1.6698,-1.6381,-1.5607,-1.5641,-1.5816,-1.5939,-1.6335,-1.6707,-1.7058,-1.7152,-1.7259,-1.7335,-1.7347,-1.7112,-1.66,-1.615,-1.5713,-1.5296,-1.4908,-1.4274,-1.3349,-1.3349,-1.2668,-1.1361,-1.097,-1.0311,-0.9323,-0.8177,-0.7638,-0.759,-0.7482,-0.737,-0.723,-0.7346,-0.7302,-0.7156,-0.7112,-0.7095,-0.7082,-0.6977,-0.6846,-0.6746,-0.6634,-0.6511,-0.6358,-0.6358,-0.6358,-0.6358,-0.6358,-0.6388,-0.6422,-0.6422,-0.6422,-0.6412,-0.6368,-0.6358,-0.6317,-0.6125,-0.6179,-0.6245,-0.6023,-0.6044,-0.6071,-0.6,-0.5952,-0.5915,-0.5871,-0.5684,-0.546,-0.5223,-0.4938,-0.4711,-0.4627,-0.458,-0.4552,-0.4552,-0.4515,-0.4405,-0.4181,-0.4181,-0.4098,-0.3873,-0.3314,-0.301,-0.301,-0.2482,-0.2202,-0.2202,-0.2202,-0.2482,-0.301,-0.301,-0.301,0.0,0.0,-1.017,-1.3452,-1.6444,-1.8226,-1.7091,-1.6928,-1.6854,-1.6388,-1.606,-1.5912,-1.6226,-1.5219,-1.4899,-1.6473,-1.5876,-1.5172,-1.491,-1.5094,-1.4602,-1.2746,-1.3623,-1.4264,0.0,-1.5422,-1.6406,-1.67,-1.7038,-1.7079,-1.6747,-1.7261,-1.7174,-1.6362,-1.537,-1.4538,-1.3974,-1.2673,-1.1994,-1.1945,-1.1945,-1.1312,-0.9998,-0.8726,-0.8006,-0.7866,-0.7807,-0.7726,-0.76,-0.7594,-0.759,-0.757,-0.7428,-0.7412,-0.7346,-0.7149,-0.7095,-0.7095,-0.7092,-0.6997,-0.6879,-0.6873,-0.6712,-0.6504,-0.6504,-0.6504,-0.6504,-0.6504,-0.6573,-0.6685,-0.6685,-0.6685,-0.6651,-0.6542,-0.6504,-0.6467,-0.6323,-0.6296,-0.6337,-0.6467,-0.6385,-0.6334,-0.6467,-0.6378,-0.6235,-0.601,-0.5979,-0.585,-0.5443,-0.5098,-0.4881,-0.4874,-0.4772,-0.4684,-0.4684,-0.4576,-0.4153,-0.3398,-0.34,-0.3095,-0.2313,-0.2259,-0.2232,-0.2232,-0.2202,-0.2202,-0.2202,-0.2202,-0.2204,-0.2232,-0.2232,-0.2232,-0.8814,0.0,-1.3511,-1.5853,-1.7033,-1.7551,-1.7431,-1.6779,-1.6087,-1.5779,-1.4471,-1.3369,-1.3362,-1.1544,-1.0652,-1.2485,-1.2296,-1.2285,-1.3311,-1.3522,-1.3236,-1.2176,-1.3325,0.0,0.0,0.0,0.0,-1.6393,-1.6687,-1.6901,-1.7045,-1.7239,-1.6696,-1.5345,-1.4785,-1.388,-1.2576,-1.2139,-1.1458,-1.0632,-0.9752,-0.9069,-0.8676,-0.8187,-0.7961,-0.7907,-0.7855,-0.7784,-0.774,-0.774,-0.7685,-0.7604,-0.7645,-0.7543,-0.7409,-0.7312,-0.7227,-0.7095,-0.7095,-0.7004,-0.6886,-0.6886,-0.679,-0.6624,-0.6624,-0.6624,-0.6624,-0.6624,-0.6661,-0.6702,-0.6702,-0.6702,-0.6688,-0.6634,-0.6624,-0.661,-0.6563,-0.6552,-0.6566,-0.6614,-0.6583,-0.6536,-0.6521,-0.587,-0.5056,-0.4095,-0.4983,-0.5647,-0.5426,-0.5186,-0.4992,-0.4897,-0.4874,-0.4591,-0.4022,-0.3918,-0.3511,-0.2625,-0.2593,-0.2482,-0.2202,-0.173,-0.148,-0.148,-0.0978,-0.0727,-0.0727,-0.0727,-0.0978,-0.148,-0.148,-0.148,-1.0667,-1.3258,-1.5397,-1.72,-1.7444,-1.7261,-1.7225,-1.6007,-1.4841,-1.436,-1.2555,-1.093,-1.0493,-0.8641,-0.7921,-1.0001,-0.9966,-1.0182,-1.1618,-1.1829,-1.1559,-1.077,-1.2333,-1.3183,0.0,0.0,0.0,-1.6057,-1.6386,-1.6633,-1.6878,-1.6561,-1.5908,-1.4755,-1.3656,-1.2505,-1.1274,-1.0902,-1.0258,-0.936,-0.846,-0.7988,-0.7988,-0.7988,-0.7988,-0.7985,-0.7887,-0.7892,-0.7892,-0.7892,-0.7838,-0.776,-0.7797,-0.7665,-0.7448,-0.7436,-0.7275,-0.7095,-0.7095,-0.7038,-0.696,-0.696,-0.6862,-0.678,-0.678,-0.678,-0.678,-0.678,-0.6817,-0.6858,-0.6858,-0.6557,-0.6202,-0.6153,-0.5801,-0.5454,-0.5407,-0.5399,-0.5455,-0.5499,-0.5471,-0.543,-0.5394,-0.4745,-0.3956,-0.3113,-0.391,-0.4572,-0.4439,-0.4314,-0.4219,-0.4132,-0.4085,-0.3812,-0.325,-0.315,-0.2734,-0.185,-0.1817,-0.1677,-0.1421,-0.0957,-0.0703,-0.0712,-0.0254,0.0,0.0,0.0,-0.0252,-0.0699,-0.0699,-0.0699,-1.2641,-1.4922,-1.5943,-1.7271,-1.7606,-1.7344,-1.6381,-1.4665,-1.3044,-1.2237,-1.0403,-0.8565,-0.7591,0.0,-0.6494,-0.8805,-0.8717,-0.8724,-0.9783,-1.0023,-0.9712,0.0,0.0,0.0,0.0,0.0,0.0,-1.5551,0.0,-1.6091,-1.612,-1.5338,-1.4775,-1.4406,-1.2135,-1.0644,-1.0129,-0.9017,-0.8404,-0.832,-0.8113,-0.7988,-0.7988,-0.7988,-0.7988,-0.7988,-0.7988,-0.7988,-0.7988,-0.7988,-0.7988,-0.7975,-0.7879,-0.7736,-0.7594,-0.7392,-0.7192,-0.7017,-0.6962,-0.7007,-0.7095,-0.7095,-0.7004,-0.6896,-0.6896,-0.6896,-0.6896,-0.6896,-0.695,-0.7007,-0.7007,-0.616,-0.5242,-0.5091,-0.4159,-0.3277,-0.3165,-0.3109,-0.3171,-0.3369,-0.3238,-0.3167,-0.3278,-0.317,-0.3012,-0.2945,-0.2838,-0.2745,-0.271,-0.2689,-0.2692,-0.2684,-0.2585,-0.2479,-0.2444,-0.2254,-0.1824,-0.1091,-0.103,-0.0736,-0.0029,0.0,0.0,0.0,0.0,0.0,0.0,0.0,0.0,0.0,0.0,0.0,-1.4061,-1.5933,-1.7053,-1.6723,-1.6464,-1.5906,-1.4467,-1.2903,-1.1326,-0.9722,-0.6778,-0.4324,-0.3698,0.0,0.0,-0.4593,-0.5646,0.0,-0.851,-0.8913,0.0,-0.8538,0.0,-1.0967,-1.0452,-1.1933,0.0,0.0,-1.3449,-1.3506,-1.3386,-1.3586,-1.3107,-1.1733,-1.1195,-1.0294,-0.8938,-0.856,-0.8357,-0.832,-0.8113,-0.7988,-0.7988,-0.7988,-0.7988,-0.7988,-0.7988,-0.7988,-0.7988,-0.7988,-0.7988,-0.7985,-0.7948,-0.7889,-0.764,-0.6591,-0.6089,-0.5836,-0.4844,-0.562,-0.7095,-0.7095,-0.7071,-0.7041,-0.7041,-0.7041,-0.7041,-0.7041,-0.6445,-0.5849,-0.5849,-0.4954,-0.4055,-0.399,-0.3763,-0.3493,-0.3473,-0.347,-0.3476,-0.3539,-0.3398,-0.3011,-0.2338,-0.2089,-0.17,-0.0927,-0.075,-0.1259,-0.2679,-0.2755,-0.2692,-0.2684,-0.2661,-0.2366,-0.1676,-0.1566,-0.1163,-0.0336,-0.0274,-0.0181,0.0,0.0,0.0,0.0,0.0,0.0,0.0,0.0,0.0,0.0,0.0,0.0,-1.5366,-1.6747,-1.7456,-1.6368,-1.5471,-1.4496,-1.3082,-1.0884,-0.8554,-0.6378,-0.3511,0.0,-0.1168,-0.0837,0.0,0.0,0.0,0.0,-0.7855,-0.8269,-0.8459,0.0,-0.9868,0.0,-0.9793,-1.0927,-1.1451,0.0,-1.1831,-1.2536,-1.2567,-1.2288,-1.1777,-1.0899,-1.0307,-0.9568,-0.8682,-0.8408,-0.8354,-0.836,-0.8143,-0.7988,-0.7988,-0.7988,-0.7988,-0.7988,-0.7988,-0.7988,-0.7988,-0.7988,-0.7637,-0.7135,-0.7135,-0.6669,-0.5968,-0.519,-0.4844,-0.4626,-0.3853,-0.4461,-0.5575,-0.5575,-0.5933,-0.6248,-0.5708,-0.5933,-0.6248,-0.5708,-0.5087,-0.4596,-0.4596,-0.3707,-0.2815,-0.2815,-0.2413,-0.2013,-0.2013,-0.2013,-0.2013,-0.2013,-0.1951,-0.1667,-0.1087,-0.0936,-0.0707,-0.0082,0.0,-0.0392,-0.1488,-0.1554,-0.1514,-0.1508,-0.1521,-0.1301,-0.0789,-0.0723,-0.0519,-0.0032,0.0,0.0,0.0,0.0,0.0,0.0,0.0,0.0,0.0,0.0,0.0,0.0,0.0,0.0,-1.6414,-1.7204,-1.7145,-1.596,-1.4647,-1.3237,-1.1682,-0.8675,-0.55,-0.2902,0.0,0.0804,0.044,0.0183,-0.0983,-0.3966,0.0,-0.5829,-0.7539,-0.7877,-0.8133,-0.8655,-0.9819,-1.0154,-0.903,-0.9942,-1.0122,-0.8848,-1.0716,-1.2026,-1.2197,-1.1101,-1.0571,-1.0777,-0.9592,-0.8885,-0.8885,-0.8513,-0.836,-0.8479,-0.818,-0.7988,-0.7988,-0.7988,-0.7988,-0.7988,-0.7988,-0.7889,-0.7739,-0.7739,-0.6933,-0.5727,-0.5727,-0.4974,-0.3825,-0.3624,-0.3495,-0.3343,-0.3199,-0.31,-0.3181,-0.3484,-0.433,-0.4959,-0.3896,-0.4338,-0.4961,-0.3909,-0.3502,-0.3361,-0.3361,-0.2469,-0.1572,-0.1568,-0.0763,0.0,0.0,0.0,0.0,0.0,0.0,0.0,0.0,0.0,0.0,0.0,0.0,0.0,0.0,0.0,0.0,0.0,0.0,0.0,0.0,0.0,0.0,0.0,0.0,0.0,0.0,0.0,0.0059,0.0147,0.0059,0.0087,0.028,0.0196,0.014,0.014,0.0252,0.0252,-1.6434,-1.6443,-1.5932,-1.5159,-1.4104,-1.242,-0.9016,-0.6146,0.0,0.0,0.1547,0.2703,0.1572,0.118,0.0,-0.352,0.0,0.0,0.0,0.0,-0.8065,0.0,0.0,0.0,0.0,0.0,0.0,0.0,-0.9253,-0.9453,-0.926,-0.9244,-0.9237,-0.9261,-0.9047,-0.8885,-0.8885,-0.8611,-0.8459,-0.8479,-0.818,-0.7988,-0.7988,-0.7988,-0.7988,-0.7988,-0.7988,0.0,-0.6331,-0.6331,-0.5575,-0.4368,-0.4368,-0.42,-0.3821,-0.2739,-0.2277,-0.2114,-0.0995,-0.0606,-0.0962,-0.2963,-0.3748,-0.3894,-0.3645,-0.3754,-0.3866,-0.3675,-0.288,-0.2111,-0.2111,-0.1194,-0.0321,-0.0316,-0.0135,0.0,0.0,0.0,0.0,0.0,0.0,0.0,0.0,0.0,0.0,0.0,0.0,0.0,0.0,0.0,0.0,0.0,0.0,0.0,0.0,0.0,0.0,0.0,0.0,0.0,0.0,0.0,0.0272,0.0911,0.0324,0.0608,0.1813,0.1202,0.0923,0.0923,0.1535,0.148,-1.4179,-1.4404,-1.4832,-1.4582,-1.2861,-1.0294,-0.6929,0.0,0.0,0.0,0.3241,0.3812,0.2599,0.0,0.0,0.0,0.0,0.0,0.0,0.0,0.0,0.0,0.0,0.0,0.0,0.0,0.0,0.0,-0.8885,-0.8821,-0.8726,-0.8804,-0.8885,-0.8885,-0.8885,-0.8885,-0.8885,-0.8635,-0.8482,-0.8479,-0.818,-0.7637,-0.6983,-0.6983,-0.6578,-0.5922,-0.5922,-0.5572,-0.497,-0.497,-0.4168,-0.2964,-0.2964,-0.2549,-0.1833,-0.1179,-0.0974,-0.0867,-0.0239,0.0,-0.0188,-0.1344,-0.2154,-0.2554,-0.1909,-0.2171,-0.2514,-0.1885,-0.1313,-0.0878,-0.0878,-0.0416,0.0,0.0,0.0,0.0,0.0,0.0,0.0,0.0,0.0,0.0,0.0,0.0,0.0,0.0,0.0,0.0,0.0,0.0,0.0,0.0,0.0,0.0,0.0,0.0,0.0205,0.0639,0.0613,0.0787,0.129,0.1303,0.1414,0.166,0.142,0.1586,0.2202,0.1842,0.1675,0.1675,0.2035,0.2009,-1.2344,-1.3019,-1.403,-1.3624,-1.1373,-0.836,-0.5179,-0.2621,0.0,0.0,0.4319,0.4477,0.3282,0.0,0.0,0.0,0.0,0.0,0.0,0.0,0.0,0.0,0.0,0.0,0.0,0.0,0.0,0.0,-0.8885,-0.8885,-0.8885,-0.8885,-0.8885,-0.8885,-0.8885,-0.8868,-0.8834,-0.8618,-0.8357,-0.8007,-0.7705,-0.6883,-0.5575,-0.5575,-0.502,-0.4016,-0.4016,-0.3815,-0.3565,-0.3565,-0.2765,-0.1561,-0.1561,-0.0949,0.0,0.0,0.0,0.0,0.0,0.0,0.0,0.0,-0.0662,-0.126,-0.0286,-0.0662,-0.1215,-0.0288,0.0,0.0,0.0,0.0,0.0,0.0,0.0,0.0,0.0,0.0,0.0,0.0,0.0,0.009,0.0359,0.0351,0.0429,0.0675,0.0698,0.0681,0.0668,0.0666,0.0662,0.0649,0.0484,0.0435,0.0598,0.0631,0.09,0.1544,0.1502,0.1774,0.2504,0.2552,0.2547,0.2535,0.2541,0.2624,0.279,0.262,0.2537,0.2535,0.2687,0.2649,-1.3284,-1.3987,-1.3618,-1.1546,-0.9994,-0.7887,-0.3988,0.0,0.0,0.3077,0.4481,0.4772,0.3204,0.4106,0.3926,0.0,0.0,0.0308,0.0,0.0,0.0,0.0,0.0,0.0,0.0,0.0,0.0,0.0,-0.8885,-0.8885,-0.8885,-0.8885,-0.8885,-0.8885,-0.8885,-0.8817,-0.8733,-0.8567,-0.7832,-0.6513,-0.6287,-0.5475,-0.4166,-0.4166,-0.4116,-0.4016,-0.4016,-0.3316,0.0,-0.2163,-0.141,-0.0202,-0.0202,-0.0101,0.0,0.0,0.0,0.0,0.0,0.0,0.0,0.0,-0.0097,-0.0143,-0.0049,-0.0097,-0.0144,-0.005,0.0,0.0,0.0,0.0,0.0,0.0,0.0,0.0,0.0,0.0,0.0,0.0,0.0,0.0359,0.1433,0.1514,0.1807,0.285,0.2905,0.282,0.2813,0.2812,0.281,0.2803,0.1984,0.177,0.2559,0.2618,0.2622,0.2582,0.2567,0.2586,0.2687,0.2688,0.2993,0.3639,0.3025,0.3333,0.4662,0.3991,0.3656,0.3653,0.42,0.4114,-0.815,-0.9826,-1.1554,-1.0615,-0.8996,-0.66,-0.2934,0.0,0.1192,0.4175,0.5418,0.5796,0.5276,0.5429,0.5059,0.3431,0.2591,0.0,0.0,0.0,0.0,0.0,0.0,0.0,0.0,0.0,0.0,0.0,-0.8801,-0.8413,-0.7477,-0.8388,-0.8885,-0.8885,-0.8849,-0.8387,-0.751,-0.7302,-0.6442,-0.5056,-0.4863,-0.4117,-0.2815,-0.2815,-0.2363,-0.1611,-0.1611,-0.131,0.0,-0.0807,-0.0504,0.0,0.0,0.0,0.0,0.0,0.0,0.0,0.0,0.0,0.0,0.0,0.0,0.0,0.0,0.0,0.0,0.0,0.0,0.0,0.0,0.0,0.0,0.0,0.0,0.0191,0.0943,0.1076,0.1293,0.2023,0.2147,0.2324,0.2814,0.2834,0.2936,0.3315,0.326,0.3175,0.3129,0.3085,0.3357,0.3982,0.3137,0.266,0.2975,0.2957,0.3109,0.3575,0.3453,0.3606,0.4137,0.4158,0.4261,0.447,0.4259,0.4396,0.4887,0.461,0.4458,0.4455,0.4706,0.4677,-0.4634,-0.6709,-0.906,-0.9312,-0.7524,-0.493,0.0,0.0,0.2336,0.491,0.6013,0.647,0.6348,0.609,0.5746,0.5409,0.4019,0.221,0.0,0.0,0.0,0.0,0.0,0.0,0.0,0.0,0.0,-0.8119,-0.8132,-0.7456,-0.5985,-0.6959,-0.7572,-0.7593,-0.7488,-0.6966,-0.5994,-0.5763,-0.4941,-0.3535,-0.3438,-0.2715,-0.141,-0.141,-0.0907,0.0,0.0,0.0,0.0,0.0,0.0,0.0,0.0,0.0,0.0,0.0,0.0,0.0,0.0,0.0,0.0,0.0,0.0,0.0,0.0,0.0,0.0,0.0,0.0238,0.0525,0.0528,0.0817,0.1108,0.1123,0.1122,0.1355,0.2193,0.2355,0.2597,0.3485,0.363,0.3712,0.4139,0.4098,0.4134,0.4409,0.4328,0.4221,0.411,0.4077,0.4334,0.5079,0.4491,0.4024,0.3967,0.3856,0.4051,0.4581,0.4439,0.4587,0.5167,0.5199,0.5152,0.505,0.5148,0.5152,0.505,0.505,0.505,0.5047,0.5003,0.4928,-0.4641,-0.5996,-0.6425,-0.7237,-0.5417,-0.2918,0.0,0.0,0.4023,0.493,0.5939,0.6448,0.5662,0.5788,0.5877,0.5542,0.5268,0.0,0.0,0.0,0.0,0.0,0.0,0.0,0.0,0.0,0.0,-0.6811,-0.6707,0.0,-0.4575,-0.4555,-0.453,-0.4522,-0.4539,-0.4457,-0.4244,-0.4221,-0.348,-0.2013,-0.2013,-0.131,0.0,0.0,0.0,0.0,0.0,0.0,0.0,0.0,0.0,0.0,0.0,0.0,0.0,0.0,0.0,0.0,0.0,0.0,0.0,0.0,0.0,0.0,0.0,0.0,0.0,0.0,0.0857,0.1768,0.1803,0.2789,0.3762,0.3764,0.3756,0.375,0.3796,0.3679,0.3638,0.376,0.3713,0.4043,0.537,0.5294,0.5491,0.6665,0.6623,0.6471,0.6468,0.6346,0.6261,0.63,0.6261,0.6196,0.6006,0.5952,0.5865,0.561,0.5586,0.5518,0.5399,0.5392,0.5392,0.5388,0.5392,0.5392,0.5388,0.5388,0.5388,0.5385,0.5199,0.5022,0.0332,-0.1322,-0.2652,-0.2626,-0.1739,-0.0334,0.1658,0.3205,0.4566,0.5809,0.6633,0.6993,0.6649,0.6501,0.6276,0.5851,0.5586,0.4694,0.0,0.0,0.0,0.0,0.0,0.0,0.0,0.0,-0.665,-0.5088,-0.5004,-0.436,-0.2893,-0.2792,-0.333,-0.4473,-0.4376,-0.3803,-0.2868,-0.2764,-0.2025,-0.0656,-0.0656,-0.0404,0.0,0.0,0.0,0.0,0.0,0.0,0.0,0.0,0.0,0.0,0.0,0.0,0.0101,0.1008,0.13,0.1381,0.227,0.2519,0.2479,0.2458,0.1896,0.14,0.2195,0.1311,0.0184,0.0976,0.2233,0.3302,0.3174,0.3552,0.3932,0.3932,0.3915,0.4114,0.4864,0.4975,0.5177,0.5927,0.6005,0.6124,0.6573,0.6552,0.6552,0.6857,0.6848,0.6746,0.6644,0.6538,0.6446,0.6446,0.6358,0.6279,0.6193,0.6091,0.5909,0.5745,0.5644,0.5556,0.5402,0.5395,0.5395,0.5395,0.5395,0.5395,0.5395,0.5395,0.5395,0.5392,0.5344,0.5296,0.0,0.17,0.0391,-0.01,0.0632,0.0,0.0,0.4531,0.5571,0.6092,0.6654,0.6908,0.6489,0.6257,0.6082,0.5947,0.5697,0.0,0.0,0.0,0.0,0.0,0.0,0.0,0.0,-0.5183,-0.512,-0.3552,-0.3422,-0.2792,-0.1346,-0.1221,-0.173,-0.2757,-0.2676,-0.2209,-0.1398,-0.1271,-0.0807,0.0,0.0,0.0,0.0,0.0,0.0,0.0,0.0,0.0,0.0,0.0,0.0303,0.0756,0.0756,0.1054,0.1546,0.239,0.2607,0.2607,0.3451,0.3676,0.3579,0.3593,0.3081,0.2637,0.3393,0.2547,0.1532,0.2315,0.354,0.4606,0.4574,0.4948,0.5366,0.5403,0.5384,0.5518,0.6197,0.6315,0.647,0.7082,0.7136,0.7112,0.7217,0.7136,0.7065,0.6977,0.692,0.6852,0.68,0.6603,0.6511,0.6511,0.6385,0.63,0.63,0.6118,0.5929,0.5813,0.5667,0.5556,0.5402,0.5395,0.5395,0.5395,0.5395,0.5395,0.5395,0.5395,0.5395,0.5395,0.5395,0.5395,0.0,0.3324,0.0,0.0,0.0,0.0,0.0,0.5719,0.0,0.6002,0.6281,0.6445,0.5649,0.549,0.5599,0.6019,0.5731,0.0,0.0,0.0,0.0,0.0,0.0,0.0,0.0,-0.2922,-0.3701,-0.2172,-0.2034,-0.1448,-0.0052,0.0,0.0,0.0,0.0,0.0,0.0,0.0,0.0,0.0,0.0,0.0051,0.0151,0.0051,0.005,0.0,0.0151,0.0151,0.0151,0.0252,0.1008,0.2163,0.211,0.2831,0.3811,0.3903,0.3852,0.373,0.3846,0.3864,0.3846,0.3773,0.3792,0.3837,0.3748,0.3757,0.3794,0.389,0.4829,0.5797,0.5904,0.6801,0.7665,0.7794,0.7726,0.7628,0.7617,0.7495,0.7429,0.7419,0.7289,0.7272,0.7374,0.7279,0.7183,0.7095,0.7071,0.7028,0.7028,0.6881,0.6725,0.6725,0.6624,0.6528,0.6528,0.6194,0.5962,0.5882,0.5772,0.5655,0.5598,0.5591,0.5591,0.5591,0.5591,0.5591,0.5591,0.5591,0.5591,0.5591,0.5524,0.5491,0.5983,0.0,0.5407,0.5259,0.5548,0.597,0.0,0.6821,0.7097,0.0,0.0,0.0,0.7373,0.7278,0.7133,0.6886,0.6954,0.0,0.0,0.0,0.0,0.0,0.0,0.0,0.0,-0.2275,-0.1989,-0.0613,-0.0509,-0.0356,0.0,0.0,0.0,0.0,0.0,0.0,0.0,0.0,0.0,0.0,0.0,0.0555,0.1511,0.0454,0.0555,0.1511,0.1511,0.1511,0.1611,0.2614,0.3265,0.351,0.3413,0.3534,0.3903,0.4849,0.5094,0.5145,0.6133,0.6421,0.615,0.5275,0.5578,0.6113,0.5223,0.511,0.5276,0.5206,0.6258,0.7427,0.7333,0.7628,0.7894,0.7928,0.7911,0.7853,0.7787,0.7648,0.7512,0.7439,0.8001,0.8204,0.732,0.7911,0.8145,0.7228,0.7851,0.8435,0.8435,0.8822,0.9097,0.9097,0.879,0.858,0.858,0.7013,0.622,0.6774,0.6665,0.6823,0.7354,0.7377,0.7377,0.7377,0.7377,0.7377,0.7377,0.7377,0.7377,0.7377,0.6691,0.6396,0.6773,0.6631,0.658,0.6793,0.6775,0.679,0.7133,0.0,0.0,0.0,0.0,0.0,0.0,0.0,0.0,0.0,0.6771,0.0,0.0,0.0,0.0,0.0,0.0,0.0,0.0,-0.1109,-0.0756,-0.005,0.0,0.0,0.0,0.0,0.0,0.0,0.0,0.0,0.0,0.0,0.0,0.0,0.0605,0.131,0.2013,0.1862,0.2213,0.2914,0.2914,0.2914,0.2964,0.3715,0.4368,0.4912,0.4771,0.5052,0.5626,0.6222,0.6328,0.6265,0.6992,0.721,0.7007,0.6381,0.6605,0.7007,0.6384,0.6387,0.6629,0.656,0.7168,0.7884,0.787,0.7877,0.7901,0.7971,0.7934,0.7913,0.7828,0.7699,0.7693,0.8121,0.8573,0.8846,0.875,0.9231,0.9444,0.8794,0.927,0.9666,0.9666,0.9805,0.9898,0.9898,0.9554,0.9296,0.9296,0.8005,0.7362,0.7752,0.7539,0.7593,0.7999,0.7994,0.8072,0.8174,0.8174,0.8174,0.8174,0.8077,0.8077,0.8174,0.7578,0.7358,0.6883,0.6972,0.7058,0.6987,0.6893,0.6866,0.7117,0.0,0.0,0.0,0.0,0.0,0.0,0.0,0.0,0.0,0.0,0.0,0.0,0.0,0.0,0.0,0.0,0.0,-0.0251,0.0,0.0,0.0,0.0,0.0,0.0,0.0,0.0,0.0,0.0,0.0101,0.0303,0.0303,0.0303,0.0303,0.1661,0.2414,0.2666,0.3566,0.4116,0.4316,0.4316,0.0,0.4316,0.4516,0.5261,0.6242,0.6122,0.6679,0.7546,0.7394,0.7251,0.7095,0.7095,0.7095,0.7095,0.7095,0.7095,0.7095,0.7095,0.7489,0.7875,0.7875,0.7859,0.7875,0.7958,0.8087,0.8167,0.8301,0.8374,0.8419,0.8419,0.8281,0.8439,0.9312,0.9447,0.9676,1.0526,1.0761,1.0783,1.0611,1.074,1.0864,1.0864,1.059,1.0388,1.0388,1.002,0.975,0.975,0.9352,0.9097,0.9097,0.8526,0.8269,0.8463,0.85,0.8612,0.8844,0.8849,0.8849,0.8844,0.8618,0.8623,0.8844,0.848,0.8429,0.6806,0.7266,0.7746,0.7347,0.7054,0.6973,0.7353,0.0,0.0,0.0,0.0,0.0,0.0,0.0,0.0,0.0,0.0,0.0,0.0,0.0,0.0,0.0,0.0,-0.1695,-0.0148,0.0,0.0,0.0,0.0,0.0,0.0,0.0,0.0,0.0,0.0,0.0555,0.1661,0.1711,0.1711,0.1711,0.3065,0.4268,0.5375,0.4418,0.4618,0.5677,0.0,0.5677,0.5777,0.693,0.7464,0.7489,0.74,0.7353,0.7387,0.7231,0.7115,0.7095,0.7095,0.7095,0.7095,0.7095,0.7095,0.7095,0.7095,0.811,0.9199,0.9199,0.8593,0.7961,0.7985,0.8803,0.9669,0.9698,1.0511,1.1264,1.1264,1.1005,1.082,1.1241,1.1557,1.1618,1.1123,1.1603,1.1724,1.074,1.1423,1.2029,1.2029,1.2427,1.2678,1.2678,1.2196,1.1848,1.1848,1.1552,1.1401,1.1401,0.994,0.953,1.0509,1.0747,1.0895,1.094,1.094,1.094,1.094,1.0895,1.0895,1.0906,1.0137,0.9794,0.6989,0.7294,0.7438,0.6684,0.693,0.7407,0.7477,0.0,0.0,0.0,0.0,0.0,0.0,0.0,0.0,0.0,0.0,0.0,0.0,0.0,0.0,0.0,0.0,-0.1391,-0.01,0.0,0.0,0.0,0.0,0.0,0.0,0.0706,0.1058,0.1058,0.1762,0.2464,0.3065,0.3819,0.3819,0.3115,0.442,0.5425,0.5979,0.6126,0.644,0.6975,0.0,0.6936,0.6924,0.7508,0.776,0.7682,0.7536,0.7434,0.7398,0.7152,0.7095,0.7095,0.7095,0.7095,0.7095,0.7095,0.7533,0.8057,0.8057,0.9184,1.0491,1.0491,1.0321,1.0092,1.0092,1.0583,1.1023,1.1023,1.1458,1.1896,1.1896,1.1687,1.1719,1.248,1.2608,1.2667,1.2885,1.3127,1.3075,1.2559,1.2948,1.3288,1.3288,1.3324,1.334,1.3227,1.2677,1.2302,1.2318,1.2037,1.1832,1.1637,1.0878,1.0683,1.1189,1.151,1.1663,1.1663,1.1663,1.1663,1.1663,1.1503,1.151,1.1663,1.1082,1.0915,0.7209,0.737,0.7321,0.6467,0.0,0.7172,0.6802,0.0,0.0,0.0,0.0,0.0,0.0,0.0,0.0,0.0,0.0,0.0,0.0,0.0,-0.2238,-0.1475,-0.1382,-0.0993,-0.0101,0.0303,0.0454,0.0454,0.0756,0.0958,0.0958,0.1913,0.2464,0.2464,0.3465,0.4166,0.4468,0.5449,0.5449,0.4468,0.5824,0.6468,0.6437,0.7486,0.7902,0.7763,0.7763,0.7699,0.76,0.76,0.758,0.7536,0.7463,0.7531,0.775,0.7882,0.7921,0.7921,0.7921,0.7921,0.7921,0.7921,0.8608,0.938,0.9336,1.0517,1.1856,1.1757,1.2261,1.2673,1.2047,1.2139,1.2382,1.2382,1.2576,1.2818,1.2818,1.2676,1.2852,1.3761,1.3622,1.3573,1.4484,1.4382,1.4168,1.4095,1.4088,1.4088,1.4088,1.3738,1.3466,1.3293,1.2752,1.2403,1.2325,1.2098,1.187,1.1643,1.1535,1.153,1.153,1.181,1.2007,1.2007,1.2007,1.2007,1.2007,1.1744,1.175,1.2,1.1737,1.175,0.7338,0.7759,0.8066,0.7736,0.6666,0.0,0.4636,0.4351,0.0,0.4589,0.0,0.0,0.0,0.0,0.0,0.0,0.0,0.0,0.0,0.0,-0.0201,-0.0151,-0.0151,-0.0101,0.0,0.1109,0.1862,0.1862,0.3015,0.3715,0.3715,0.3815,0.3865,0.3865,0.3966,0.4618,0.5827,0.5824,0.5824,0.5879,0.7235,0.7816,0.7679,0.7779,0.775,0.7614,0.7614,0.7607,0.76,0.76,0.7516,0.7433,0.7419,0.7953,0.8907,0.9971,1.0351,1.0351,1.0351,1.0351,1.0351,1.0351,1.0621,1.0884,1.0584,1.1924,1.3478,1.3145,1.4241,1.4956,1.2528,1.2813,1.3776,1.3776,1.4657,1.554,1.554,1.5311,1.5239,1.5549,1.5186,1.4885,1.493,1.4689,1.4396,1.4128,1.4088,1.4088,1.4088,1.3786,1.3593,1.3573,1.3093,1.2619,1.2325,1.2285,1.2265,1.2238,1.1984,1.1873,1.1873,1.2118,1.2271,1.2271,1.2271,1.2271,1.2271,1.2251,1.2251,1.2271,1.2245,1.2251,0.7358,0.6934,0.629,0.5612,0.4894,0.0,0.0,0.4723,0.4268,0.4392,0.4548,0.0,0.0,0.0,0.0,0.0,0.0,0.0,0.0,0.0,0.0,0.0,0.0756,0.1204,0.1141,0.2325,0.3113,0.3113,0.3606,0.39,0.39,0.4687,0.5101,0.4991,0.5815,0.65,0.6988,0.6936,0.6936,0.6988,0.7523,0.7736,0.7678,0.7678,0.7597,0.7458,0.7458,0.7812,0.8387,0.8387,0.8792,0.938,0.938,0.9643,1.0009,1.0438,1.0611,1.0611,1.0611,1.0611,1.0611,1.0611,1.1186,1.1875,1.1936,1.3165,1.4539,1.4558,1.5139,1.5581,1.4561,1.4704,1.5092,1.5092,1.5302,1.5611,1.5744,1.5605,1.5484,1.5772,1.5504,1.5223,1.5042,1.4716,1.4422,1.4128,1.4088,1.4088,1.4088,1.3988,1.3848,1.362,1.328,1.2993,1.2879,1.3247,1.3241,1.2654,1.2335,1.2138,1.2138,1.2245,1.2305,1.2305,1.2305,1.2305,1.2305,1.2305,1.2305,1.2305,1.2305,1.2305,0.7527,0.6582,0.5451,0.0,0.0,0.0,0.5202,0.495,0.4434,0.4354,0.4061,0.0,0.0,0.0,0.0,0.0,0.0,0.0714,0.1123,0.0839,0.0745,0.1148,0.1639,0.2066,0.2332,0.3584,0.4357,0.4357,0.4745,0.4986,0.4986,0.5855,0.6348,0.6214,0.712,0.76,0.76,0.7916,0.8073,0.8073,0.8387,0.821,0.7529,0.7891,0.7989,0.7881,0.8233,0.8783,0.9449,0.9449,0.9879,1.0654,1.0994,1.1123,1.1166,1.1563,1.1697,1.1697,1.1697,1.1742,1.1835,1.172,1.2417,1.3261,1.3237,1.418,1.5244,1.5257,1.5531,1.5784,1.5784,1.5784,1.5784,1.5784,1.5678,1.5585,1.5738,1.5671,1.5591,1.5744,1.5671,1.5438,1.515,1.4856,1.4563,1.4269,1.4142,1.4088,1.4088,1.4412,1.4615,1.4658,1.4468,1.4341,1.4201,1.463,1.4562,1.3787,1.3533,1.3087,1.2342,1.2305,1.2305,1.2305,1.2592,1.2732,1.2732,1.3055,1.3237,1.3237,1.3237,1.3055,0.7889,0.6899,0.0,0.0,0.0,0.0,0.4406,0.4587,0.4514,0.4286,0.0,0.2326,0.3899,0.0,0.0,0.375,0.2865,0.2292,0.3595,0.2645,0.2299,0.3657,0.2645,0.2282,0.351,0.4834,0.5635,0.5635,0.6829,0.7597,0.7594,0.7594,0.7594,0.759,0.759,0.759,0.759,0.8566,0.9103,0.9099,1.01,0.946,0.7461,0.8619,0.9055,0.8978,1.0091,1.0611,1.0611,1.0611,1.0611,1.074,1.1901,1.2328,1.2456,1.3646,1.4088,1.4088,1.4088,1.4282,1.4476,1.4182,1.4683,1.5231,1.4362,1.4903,1.5705,1.5182,1.5384,1.5784,1.5784,1.5784,1.5784,1.5784,1.5778,1.5778,1.5784,1.5778,1.5778,1.5825,1.5825,1.5738,1.5491,1.5202,1.4908,1.4563,1.4311,1.413,1.413,1.5054,1.6011,1.6814,1.689,1.6779,1.6451,1.6417,1.623,1.5835,1.581,1.4767,1.2422,1.2342,1.2342,1.2342,1.3244,1.3709,1.3709,1.47,1.5199,1.5199,1.5199,1.4665,0.6834,0.0,0.0,0.0,0.0,0.0,0.0,0.4536,0.0,0.0,0.0,0.3425,0.4676,0.0,0.0,0.3655,0.3364,0.3185,0.3597,0.3306,0.3235,0.3588,0.4142,0.4575,0.484,0.6086,0.6786,0.6686,0.7145,0.7346,0.7139,0.7176,0.718,0.6973,0.6966,0.6966,0.6966,0.7257,0.7777,0.8489,0.8989,0.9384,0.9662,1.0008,1.0149,1.0091,1.0438,1.1042,1.1852,1.2729,1.3039,1.3082,1.3428,1.3561,1.3603,1.3955,1.4088,1.4115,1.4322,1.4449,1.4502,1.4422,1.471,1.5089,1.4827,1.509,1.5531,1.5565,1.5698,1.5784,1.5784,1.5784,1.5784,1.5784,1.5671,1.5578,1.5738,1.5671,1.5858,1.6947,1.7131,1.7301,1.7914,1.7653,1.7309,1.7016,1.6622,1.6363,1.6363,1.665,1.6928,1.7145,1.7169,1.7128,1.7052,1.7476,1.7384,1.6604,1.7021,1.6396,1.4402,1.4343,1.4343,1.4343,1.4593,1.4772,1.4772,1.5057,1.5199,1.5199,1.5199,1.5057,0.6441,0.0,0.0,0.0,0.0,0.0,0.0,0.0,0.0,0.0,0.0,0.431,0.4971,0.4188,0.0,0.4134,0.4272,0.4495,0.5048,0.4586,0.442,0.5053,0.5267,0.5554,0.5941,0.6745,0.7132,0.6933,0.7051,0.7027,0.6848,0.6876,0.7052,0.7278,0.7312,0.7473,0.7881,0.8369,0.8891,0.9502,1.0172,1.0891,1.1623,1.1384,1.1295,1.13,1.1778,1.2382,1.3075,1.3779,1.4088,1.4088,1.4088,1.4088,1.4088,1.4088,1.4162,1.4282,1.4456,1.4596,1.4696,1.4696,1.4861,1.5098,1.5569,1.5906,1.6232,1.6917,1.7201,1.725,1.725,1.725,1.7023,1.6008,1.6067,1.635,1.6532,1.6786,1.73,1.8234,1.8411,1.8571,1.9163,1.8797,1.8349,1.8169,1.7664,1.7455,1.7908,1.7989,1.8149,1.859,1.8621,1.8621,1.8621,1.8967,1.8872,1.8151,1.833,1.7898,1.659,1.5835,1.5339,1.5199,1.5587,1.5755,1.5755,1.6123,1.6298,1.6298,1.6298,1.6123,0.6435,0.0,0.0,0.0,0.0,0.0,0.0,0.0,0.0,0.0,0.0,0.5097,0.518,0.4315,0.3948,0.5052,0.5393,0.5944,0.7153,0.6142,0.5773,0.7185,0.6092,0.5692,0.6777,0.6866,0.6844,0.6692,0.6695,0.673,0.6785,0.6795,0.7282,0.8281,0.8318,0.872,0.9646,1.0736,1.1335,1.1454,1.2501,1.3087,1.3147,1.2659,1.2432,1.2498,1.3587,1.4035,1.4082,1.4055,1.4062,1.4088,1.4088,1.4088,1.4088,1.4088,1.4255,1.4482,1.4596,1.4865,1.5102,1.5256,1.5315,1.5479,1.6595,1.7122,1.7596,1.8697,1.9236,1.948,1.9455,1.9472,1.8948,1.6655,1.703,1.787,1.787,1.8726,1.9534,1.9625,1.967,1.9716,1.9807,1.9228,1.875,1.8674,1.807,1.798,1.8997,1.9164,1.952,2.0489,2.0605,2.0605,2.0605,2.0605,2.0429,2.0,1.9619,1.9189,1.8676,1.6964,1.5819,1.5455,1.6289,1.674,1.674,1.7579,1.8008,1.8008,1.8008,1.7545,0.0,0.5132,0.0,0.0,0.0,0.0,0.0,0.0,0.0,0.0,0.0,0.658,0.7432,0.6695,0.6045,0.6312,0.6392,0.6509,0.6795,0.6576,0.6473,0.6795,0.6573,0.6453,0.6707,0.6749,0.6685,0.6532,0.663,0.696,0.7532,0.768,0.8119,0.9019,0.9053,0.9169,0.9399,0.963,1.016,1.0959,1.1408,1.206,1.2904,1.3171,1.3474,1.3704,1.3472,1.3661,1.4068,1.3834,1.3874,1.4088,1.4088,1.4088,1.4088,1.4088,1.4128,1.4336,1.539,1.5813,1.608,1.7297,1.7601,1.7601,1.794,1.8225,1.8443,1.8395,1.8904,1.943,1.9052,1.9237,1.936,1.881,1.8902,1.9131,1.9131,1.9314,1.9761,2.0711,2.0935,2.1212,2.2183,2.1953,2.1395,2.0702,2.0205,2.0001,2.0206,2.0245,2.0323,2.0566,2.0605,2.0605,2.0605,2.0605,2.0566,2.0468,2.038,1.9989,1.918,1.8101,1.7492,1.7407,1.7613,1.7681,1.7681,1.7896,1.8008,1.8008,1.8008,1.7906,0.0,0.0,0.0,0.0,0.0,0.0,0.0,0.0,0.0,0.0,0.0,0.6437,0.6988,0.6762,0.6488,0.6488,0.661,0.6702,0.6702,0.6637,0.6617,0.6692,0.6576,0.6488,0.6488,0.6488,0.6591,0.6771,0.7058,0.7481,0.8042,0.8275,0.874,0.9561,0.9742,1.0061,1.0545,1.0662,1.0981,1.1502,1.1659,1.2334,1.3476,1.3418,1.352,1.3647,1.334,1.3387,1.3695,1.3964,1.4318,1.4716,1.5153,1.5446,1.5636,1.5636,1.574,1.598,1.668,1.6903,1.7093,1.7999,1.8056,1.7994,1.9161,1.9506,1.9635,2.034,2.0863,2.1176,2.0917,2.1024,2.1221,2.1221,2.0764,2.035,2.035,2.0809,2.14,2.2031,2.2173,2.2359,2.3003,2.275,2.2175,2.1327,2.1035,2.081,2.0635,2.0605,2.0605,2.0605,2.0605,2.0605,2.0605,2.0605,2.0605,2.0605,2.041,2.0018,1.9511,1.8707,1.8213,1.8018,1.8008,1.8008,1.8008,1.8008,1.8008,1.8008,1.8008,1.8008,0.0,0.0,0.0,0.0,0.0,0.0,0.0,0.0,0.0,0.0,0.0,0.5766,0.5766,0.5993,0.6221,0.6221,0.6386,0.6546,0.6546,0.6437,0.6403,0.6529,0.6485,0.6447,0.6447,0.6558,0.6854,0.7277,0.7692,0.8134,0.8634,0.8857,0.9337,1.0129,1.0443,1.0955,1.1797,1.2084,1.2225,1.2225,1.2455,1.3196,1.435,1.3806,1.3609,1.3699,1.3595,1.3609,1.3745,1.4538,1.5146,1.561,1.6452,1.7022,1.7302,1.7302,1.7491,1.7755,1.7963,1.7996,1.8104,1.8549,1.8337,1.825,2.0192,2.0589,2.0703,2.2244,2.276,2.2877,2.2877,2.2925,2.3003,2.3081,2.235,2.1614,2.1614,2.2403,2.3091,2.3091,2.3091,2.3091,2.3091,2.275,2.2275,2.1522,2.1288,2.1064,2.0772,2.0654,2.0605,2.0605,2.0605,2.0605,2.0605,2.0605,2.0576,2.0498,2.0185,1.9899,1.965,1.9036,1.8615,1.832,1.8105,1.8008,1.8008,1.8008,1.8008,1.8008,1.8008,1.8008,0.0,0.0,0.0,0.0,0.0,0.0,0.0,0.0,0.0,0.0,0.0,0.5616,0.5616,0.5752,0.5864,0.5864,0.5898,0.5922,0.5922,0.5905,0.5898,0.5918,0.6571,0.6977,0.6977,0.7682,0.8148,0.8232,0.8281,0.871,0.9632,0.9736,1.0194,1.1183,1.125,1.1345,1.1483,1.1777,1.196,1.1966,1.2999,1.4049,1.5059,1.4964,1.5173,1.5586,1.5137,1.5181,1.5626,1.5885,1.6173,1.6569,1.7015,1.7252,1.7302,1.7302,1.7326,1.749,1.8509,1.8838,1.9061,2.0379,2.052,2.0263,2.0939,2.1115,2.1049,2.0947,2.1465,2.2051,2.2051,2.2324,2.2685,2.3013,2.3003,2.2862,2.2862,2.3003,2.3091,2.3091,2.3091,2.3091,2.3091,2.275,2.2471,2.2363,2.1668,2.1171,2.1112,2.081,2.0605,2.0605,2.0605,2.0605,2.0605,2.0605,2.0449,2.0029,2.0341,2.0165,1.9372,1.9275,1.9342,1.9624,1.855,1.8008,1.8008,1.8008,1.8008,1.8008,1.8008,1.8008,0.0,0.0,0.0,0.0,0.0,0.0,0.0,0.0,0.0,0.0,0.6552,0.6258,0.5977,0.5753,0.5752,0.6321,0.6482,0.6686,0.7176,0.7243,0.7243,0.7243,0.7543,0.7718,0.7718,0.8063,0.8455,0.8869,0.9097,0.9548,1.0244,1.0443,1.0662,1.0942,1.1096,1.1182,1.1182,1.1476,1.1977,1.2713,1.4497,1.5544,1.6,1.6541,1.6334,1.5544,1.5303,1.5336,1.5589,1.6171,1.665,1.707,1.7734,1.8341,1.877,1.877,1.8916,1.9234,1.9717,1.9883,1.999,2.0634,2.0723,2.0693,2.1064,2.119,2.1249,2.1572,2.1934,2.2236,2.2236,2.2549,2.2808,2.2803,2.2925,2.3091,2.3091,2.3091,2.3091,2.3091,2.3091,2.3091,2.3091,2.2945,2.274,2.2549,2.2146,2.1736,2.1259,2.1064,2.084,2.0635,2.0605,2.0605,2.0605,2.1078,2.1283,2.109,2.1782,2.1871,2.1128,2.092,2.0984,2.1352,1.9141,1.8236,1.8721,1.8236,1.8008,1.8008,1.8008,1.8008,0.0,0.0,0.0,0.0,0.0,0.0,0.0,0.0,0.0,0.0,0.6804,0.6685,0.6549,0.6143,0.6087,0.6836,0.7046,0.7342,0.7976,0.8078,0.8078,0.8078,0.8172,0.8239,0.8239,0.8526,0.8913,0.9471,0.9844,1.0234,1.0581,1.0801,1.0814,1.06,1.0987,1.1103,1.0914,1.1478,1.245,1.3813,1.5566,1.656,1.6843,1.7528,1.7133,1.5913,1.5913,1.5913,1.5983,1.6789,1.7298,1.7639,1.8581,1.9319,1.9922,2.0039,2.0283,2.0605,2.0605,2.0605,2.0605,2.0605,2.0605,2.0664,2.0967,2.1064,2.1191,2.1836,2.21,2.2187,2.2187,2.2545,2.2857,2.2588,2.2789,2.3091,2.3091,2.3091,2.3091,2.3091,2.3091,2.3091,2.3091,2.3343,2.3441,2.3123,2.2983,2.28,2.2413,2.19,2.155,2.1549,2.1407,2.1346,2.1346,2.1962,2.236,2.2243,2.3044,2.3243,2.2624,2.237,2.2457,2.2928,2.0402,1.9238,1.9628,1.8977,1.8654,1.8654,1.8654,1.8654,0.0,0.0,0.0,0.0,0.0,0.0,0.0,0.0,0.0,0.0,0.6984,0.6473,0.7283,0.7208,0.7041,0.708,0.7095,0.713,0.716,0.716,0.716,0.716,0.7887,0.8386,0.8386,0.9379,1.0032,1.0049,1.0365,1.0556,1.0593,1.0606,1.0606,1.0593,1.1365,1.1404,1.0613,1.2065,1.3602,1.5195,1.571,1.6427,1.7346,1.7412,1.7594,1.7872,1.7872,1.7872,1.7901,1.8333,1.8508,1.8605,1.9494,1.9873,1.9961,2.0419,2.0586,2.0605,2.0605,2.0605,2.0605,2.0605,2.0605,2.0605,2.0635,2.0635,2.0644,2.0693,2.0977,2.1259,2.1259,2.1882,2.2539,2.2519,2.2789,2.3091,2.3091,2.3091,2.3091,2.3091,2.3091,2.3091,2.3091,2.4006,2.4692,2.4671,2.4347,2.4465,2.5425,2.382,2.2981,2.3982,2.3646,2.3331,2.3331,2.3404,2.3251,2.2865,2.3268,2.3301,2.2891,2.2846,2.3258,2.4103,2.2697,2.1487,2.0526,2.0494,2.0462,2.0462,2.0462,2.0462,0.0,0.0,0.0,0.0,0.0,0.0,0.0,0.0,0.0,0.0,0.8085,0.7389,0.771,0.7317,0.7186,0.783,0.7946,0.8128,0.8698,0.8757,0.8757,0.8757,0.9055,0.923,0.923,0.959,0.984,0.984,0.997,1.003,1.003,1.003,1.0345,1.1034,1.133,1.1677,1.2151,1.3496,1.447,1.5056,1.5978,1.6766,1.7383,1.7383,1.7607,1.8008,1.8008,1.8008,1.8018,1.8174,1.8198,1.8256,1.8831,1.9268,1.9561,1.999,2.0322,2.0605,2.0605,2.0605,2.0605,2.0605,2.1011,2.1375,2.0789,2.1011,2.154,2.1875,2.2041,2.2393,2.3384,2.4047,2.4602,2.4994,2.5187,2.5263,2.5263,2.4723,2.4168,2.4168,2.4766,2.5263,2.5263,2.5641,2.588,2.588,2.579,2.5724,2.5766,2.5141,2.4608,2.4321,2.4134,2.3862,2.3548,2.4084,2.4411,2.4271,2.5003,2.5379,2.5232,2.4846,2.4789,2.5084,2.4289,2.3389,2.2472,2.1899,2.1632,2.1632,2.1632,2.1632,0.0,0.0,0.0,0.0,0.0,0.0,0.0,0.0,0.0,0.0,0.8281,0.7632,0.7756,0.7489,0.7497,0.8281,0.848,0.8745,0.9329,0.9385,0.9385,0.9385,0.9385,0.9385,0.9385,0.9479,0.9532,0.9532,0.9626,0.0,1.002,1.0049,1.0661,1.203,1.1811,1.2363,1.3786,1.4518,1.4961,1.5077,1.6186,1.6853,1.7168,1.7314,1.7607,1.8008,1.8008,1.8008,1.8008,1.8008,1.8008,1.8066,1.8633,1.9033,1.9355,1.9922,2.0532,2.1011,2.0712,2.1011,2.1527,2.1193,2.1707,2.2403,2.1745,2.2,2.2612,2.3094,2.3341,2.3729,2.4798,2.5363,2.5804,2.636,2.6524,2.6524,2.6524,2.5922,2.5378,2.5378,2.5975,2.6524,2.6524,2.6801,2.7046,2.7046,2.7046,2.7042,2.7119,2.6632,2.6184,2.5896,2.5511,2.5172,2.4796,2.5206,2.5511,2.5511,2.6129,2.6499,2.6499,2.6122,2.5887,2.5887,2.5548,2.5095,2.449,2.3534,2.3055,2.3055,2.3055,2.3171,0.0,0.0,0.0,0.0,0.0,0.0,0.0,0.0,0.0,0.0,0.7502,0.715,0.741,0.7725,0.8009,0.8328,0.8591,0.8784,0.8784,0.8784,0.8784,0.8791,0.8791,0.8798,0.8804,0.9065,0.9225,0.9225,0.9549,1.0021,1.0678,1.0721,1.1635,1.3496,1.2842,1.3401,1.5362,1.5088,1.5088,1.542,1.6268,1.6687,1.6716,1.7187,1.7607,1.8008,1.8042,1.8008,1.8008,1.8008,1.8018,1.8115,1.8955,1.9333,1.9478,2.033,2.1231,2.1914,2.1011,2.1935,2.3331,2.2366,2.2739,2.3551,2.3514,2.3514,2.3663,2.4183,2.4678,2.506,2.526,2.5583,2.6017,2.6483,2.6607,2.6607,2.6607,2.6607,2.6607,2.6554,2.6565,2.6607,2.6607,2.7441,2.8136,2.8136,2.8136,2.8557,2.9663,2.8356,2.7772,2.8775,2.7971,2.7318,2.7281,2.6826,2.6512,2.6499,2.6499,2.6499,2.6499,2.6499,2.6499,2.6499,2.6499,2.6499,2.6499,2.5385,2.4838,2.4838,2.4838,2.5146,0.7305,0.0,0.0,0.0,0.0,0.0,0.0,0.0,0.0,0.8222,0.8305,0.8115,0.7059,0.7573,0.81,0.7794,0.7976,0.8145,0.8145,0.8145,0.8225,0.8496,0.8516,0.8577,0.8784,0.9315,0.964,0.0,1.0162,1.0577,1.0753,1.1534,1.2254,1.2779,1.3673,1.4402,1.4951,1.5167,1.5321,1.542,1.5977,1.6416,1.6716,1.7187,1.7607,1.8042,1.8654,1.8596,1.8008,1.8008,1.8184,1.8481,1.9072,1.9929,2.0885,2.1415,2.2253,2.3036,2.2787,2.3036,2.3441,2.3184,2.3781,2.4456,2.3708,2.4,2.4705,2.5233,2.5468,2.591,2.7463,2.7944,2.8187,2.8748,2.8882,2.8882,2.8882,2.8882,2.8621,2.7815,2.8319,2.8882,2.8882,2.9118,2.9326,2.9326,2.9326,2.9443,2.9753,2.9409,2.9058,2.8888,2.8612,2.8147,2.7392,2.7178,2.6927,2.6512,2.6499,2.6499,2.6499,2.6499,2.6499,2.6499,2.6499,2.6499,2.6499,2.6185,2.6034,2.6034,2.6034,2.6122,0.0,0.0,0.0,0.0,0.0,0.0,0.9358,0.9499,0.944,0.0,0.8965,0.8785,0.8055,0.8357,0.8593,0.8224,0.8275,0.8258,0.7943,0.7905,0.7972,0.817,0.819,0.8421,0.8994,0.9416,0.9791,1.0185,1.0593,1.0914,1.1191,1.2143,1.2753,1.2922,1.3799,1.4424,1.4813,1.5029,1.5234,1.542,1.5889,1.6504,1.7263,1.7706,1.8336,1.911,1.9628,1.9562,1.9088,1.9318,1.9342,1.9328,2.0108,2.109,2.2064,2.2492,2.3257,2.4072,2.3672,2.4036,2.4684,2.4253,2.4814,2.5511,2.4921,2.517,2.5726,2.6285,2.659,2.7079,2.8537,2.8888,2.9038,2.9654,2.9792,2.9792,2.9792,2.9792,2.9585,2.8937,2.9365,2.9792,2.9792,2.9792,2.9792,2.9792,2.9792,2.9792,2.9792,2.9792,2.9666,2.9327,2.8863,2.8323,2.7682,2.7241,2.6839,2.6512,2.6499,2.6499,2.6499,2.6499,2.6499,2.6499,2.6499,2.6499,2.6499,2.6499,2.6499,2.6499,2.6499,2.6499,0.0,0.0,0.0,0.0,0.0,0.0,0.9846,0.9904,0.9894,0.0,0.0,0.9262,0.961,0.9473,0.924,0.9053,0.8978,0.8695,0.8004,0.7899,0.7889,0.7852,0.7906,0.8331,0.9298,0.9524,0.9975,1.0839,1.0998,1.1291,1.1898,1.2535,1.3047,1.3428,1.3486,1.3877,1.4666,1.4736,1.4971,1.5352,1.5999,1.6901,1.8006,1.8575,1.9479,2.059,2.0687,2.072,2.0735,2.1345,2.1074,2.0439,2.1626,2.2509,2.3193,2.355,2.4301,2.504,2.4145,2.4981,2.6349,2.5441,2.5769,2.6499,2.6499,2.6499,2.6612,2.7165,2.7632,2.816,2.8737,2.885,2.8963,2.9641,2.9792,2.9792,2.9792,2.9792,2.9792,2.9792,2.9792,2.9792,2.9792,2.9792,2.9792,2.9792,2.9792,2.9792,2.9792,2.9792,2.9792,2.9792,2.8837,2.8209,2.8243,2.7306,2.6755,2.6782,2.6782,2.6782,2.6782,2.6782,2.6782,2.6782,2.6692,2.6624,2.6624,2.6521,2.6499,2.6499,2.6499,2.6499,0.0,0.0,0.0,0.0,0.0,0.0,0.9845,0.9896,0.9734,0.0,0.9964,0.9949,0.9079,0.9116,0.9125,0.8618,0.8564,0.8437,0.7963,0.7902,0.7817,0.7596,0.7961,0.8525,0.9324,1.0285,1.1055,1.1564,1.2147,1.2544,1.2691,1.2822,1.2944,1.2998,1.333,1.3584,1.376,1.4443,1.4852,1.495,1.6746,1.7748,1.8048,1.9539,2.0341,2.0655,2.1333,2.1502,2.1326,2.2339,2.2303,2.1706,2.245,2.3499,2.4614,2.4672,2.5335,2.6164,2.5978,2.6164,2.6452,2.628,2.6349,2.6499,2.6499,2.6499,2.6612,2.7165,2.7392,2.767,2.8637,2.8562,2.8524,2.9553,2.9792,2.9792,2.9792,2.9792,2.9792,2.9792,2.9792,2.9792,2.9792,2.9792,2.9792,2.9792,2.9792,2.9792,2.9792,2.9792,2.9792,2.9792,2.9176,2.8857,2.9129,2.8508,2.8231,2.8487,2.8524,2.8524,2.8524,2.8524,2.8524,2.8524,2.7835,2.7484,2.7451,2.6816,2.6499,2.6499,2.6499,2.6499,0.0,0.0,0.0,0.9655,0.0,0.0,0.0,1.0516,1.0444,1.0231,1.0541,1.0638,0.9926,0.0,0.9902,0.9598,0.9436,0.9159,0.8616,0.8396,0.8152,0.7752,0.8166,0.8794,0.9573,1.0478,1.1388,1.2273,1.2691,1.2905,1.2905,1.2905,1.2905,1.2905,1.3111,1.3565,1.4332,1.4769,1.5406,1.622,1.7288,1.8291,1.9223,2.0083,2.1,2.1865,2.231,2.2551,2.2759,2.361,2.3887,2.3792,2.3827,2.4637,2.5734,2.5734,2.606,2.6499,2.6499,2.6499,2.6499,2.6499,2.6499,2.6499,2.6499,2.6499,2.6549,2.6839,2.7102,2.7469,2.8298,2.8511,2.8737,2.9591,2.9792,2.9792,2.9792,2.9792,2.9934,3.0419,3.0482,3.0343,2.9895,2.9792,2.9792,2.9792,2.9792,2.9972,3.0457,3.0113,3.0037,3.0627,2.9749,2.9285,2.9571,2.9066,2.8823,2.8985,2.9002,2.9002,2.9002,2.9002,2.9002,2.9002,2.8556,2.833,2.833,2.7953,2.7317,2.6521,2.7351,2.7517,0.0,0.0,0.0,0.0,0.0,1.0835,0.0,0.0,0.0,1.1044,1.104,0.0,0.0,0.0,0.0,0.0,0.0,0.0,0.0,0.9084,0.0,0.8063,0.8452,0.9079,0.9825,1.0611,1.154,1.2681,1.2856,1.2905,1.2905,1.2905,1.2954,1.3065,1.3065,1.3718,1.5088,1.5305,1.6038,1.7326,1.7781,1.8841,2.0406,2.0646,2.1607,2.3108,2.3108,2.3434,2.4017,2.4324,2.4933,2.5561,2.5259,2.5674,2.6499,2.6499,2.6499,2.6499,2.6499,2.6499,2.6499,2.6499,2.6499,2.6499,2.6499,2.6499,2.6499,2.6499,2.6889,2.7406,2.7959,2.8511,2.9114,2.9897,3.0075,3.0101,3.0279,3.0355,3.0558,3.1328,3.1462,3.1217,3.0457,3.0355,3.0355,3.0355,3.0228,3.044,3.1193,3.0511,3.0351,3.1308,3.0239,2.9631,3.0007,2.9571,2.9317,2.9473,2.9473,2.9473,2.9473,2.9473,2.9473,2.9473,2.9317,2.9254,2.9254,2.9254,2.846,2.7007,2.8363,2.868,0.0,0.0,0.0,0.0,1.2075,0.0,0.0,0.0,1.0962,1.1648,0.0,0.0,0.0,0.0,0.0,0.0,0.0,0.0,0.9366,0.9726,0.9588,0.8395,0.8778,0.9343,0.9853,1.1194,1.2105,1.2272,1.2656,1.2905,1.2905,1.2905,1.3152,1.3684,1.3708,1.4033,1.475,1.5641,1.6182,1.6381,1.8414,1.9749,2.0435,2.1568,2.246,2.3108,2.3108,2.3434,2.3966,2.3484,2.4186,2.5636,2.6135,2.6386,2.6499,2.6499,2.6499,2.6499,2.6499,2.6499,2.6499,2.6499,2.6499,2.6499,2.6499,2.6499,2.6499,2.6499,2.6889,2.7406,2.7959,2.8511,2.9277,3.069,3.1044,3.1254,3.2105,3.2285,3.2321,3.2429,3.2464,3.2429,3.2285,3.2285,3.2285,3.2285,3.1763,3.1422,3.1562,3.0923,3.0569,3.0705,3.0137,3.0067,3.0891,3.0461,3.045,3.1161,3.1219,3.1219,3.1219,3.1219,3.1219,3.1219,3.0524,3.0133,3.0133,3.0133,2.9659,2.8716,2.8907,2.919,0.0,0.0,0.0,0.0,0.0,0.0,1.2926,0.0,1.1309,0.0,0.0,0.0,0.0,0.0,0.0,0.0,1.0123,0.0,0.0,0.0,0.9842,0.0,0.0,0.0,1.0376,1.146,1.218,1.224,1.2398,1.262,1.2952,1.2975,1.3251,1.3781,1.4143,1.4763,1.5672,1.6464,1.7162,1.7832,1.9118,2.001,2.0591,2.144,2.2133,2.2644,2.2957,2.3434,2.3979,2.374,2.423,2.5197,2.5749,2.6197,2.6499,2.6499,2.6499,2.6499,2.6499,2.6499,2.6499,2.6499,2.6499,2.6499,2.6499,2.6713,2.6964,2.6964,2.7557,2.832,2.8736,2.9548,3.0442,3.1222,3.1739,3.2141,3.25,3.2593,3.2749,3.331,3.3415,3.3602,3.4192,3.3359,3.2593,3.2593,3.2012,3.1938,3.2873,3.1596,3.1171,3.2692,3.1461,3.1082,3.2379,3.1573,3.1309,3.2019,3.172,3.1675,3.2049,3.1705,3.1511,3.1511,3.1161,3.0999,3.0999,3.0999,3.0807,3.045,3.045,3.0326,1.3918,0.0,0.0,0.0,0.0,0.0,0.0,0.0,0.0,0.0,0.0,0.0,0.0,0.0,0.0,0.0,0.0,1.0258,0.0,1.0244,0.0,0.0,0.0,0.0,0.0,1.1421,1.2005,1.2128,1.2309,1.2679,1.3233,1.3299,1.3625,1.4284,1.471,1.5417,1.641,1.7158,1.7958,1.8795,1.9472,2.0138,2.0717,2.127,2.1794,2.2347,2.2869,2.3346,2.3766,2.3766,2.4204,2.4919,2.5237,2.5858,2.6566,2.6492,2.6499,2.6521,2.6748,2.7007,2.7196,2.7196,2.7196,2.7196,2.7196,2.7597,2.8036,2.8036,2.885,2.9736,3.0007,3.0811,3.1707,3.2159,3.2626,3.3066,3.3325,3.3394,3.3616,3.4293,3.4394,3.4643,3.5359,3.4341,3.3394,3.3394,3.2823,3.2834,3.3993,3.2539,3.2119,3.4017,3.275,3.2244,3.3378,3.2617,3.2243,3.2751,3.2138,3.2033,3.2572,3.1898,3.16,3.1854,3.1615,3.1675,3.2049,3.1675,3.169,3.2034,3.1854,3.1457,0.0,0.0,0.0,1.517,0.0,0.0,0.0,0.0,1.2995,0.0,0.0,0.0,0.0,0.0,0.0,1.0419,0.0,0.0,0.0,0.0,0.0,0.0,0.0,0.0,0.0,1.1024,1.1638,1.1712,1.2492,1.3274,1.3925,1.3915,1.4392,1.5497,1.5565,1.5876,1.6504,1.7606,1.8193,1.8242,1.9296,2.0138,2.0717,2.127,2.1794,2.2347,2.2869,2.3108,2.3133,2.3133,2.3901,2.5061,2.4893,2.5588,2.6674,2.6544,2.6499,2.6624,2.7384,2.8214,2.8907,2.8907,2.8907,2.8907,2.8907,2.9398,2.99,2.99,3.077,3.1695,3.1716,3.2137,3.277,3.3711,3.393,3.4211,3.5213,3.5407,3.5439,3.5439,3.5457,3.5472,3.5504,3.5439,3.5407,3.5407,3.4842,3.4409,3.447,3.3841,3.3438,3.3514,3.3454,3.3439,3.3499,3.3455,3.344,3.3469,3.2841,3.2572,3.2766,3.1973,3.1884,3.2721,3.1943,3.2123,3.3425,3.2123,3.2153,3.3425,3.2781,3.2452,0.0,0.0,1.5952,1.5611,0.0,0.0,0.0,0.0,0.0,0.0,0.0,0.0,0.0,0.0,1.2543,1.1665,1.1214,0.0,0.0,0.0,0.0,0.0,0.0,0.0,0.0,0.0,1.1292,1.1783,1.2054,1.2759,1.4,1.412,1.4612,1.5564,1.5986,1.6489,1.7087,1.7827,1.8392,1.8732,1.9459,1.9911,2.0112,2.0717,2.127,2.1794,2.2347,2.3081,2.3884,2.3884,2.4456,2.5346,2.562,2.5985,2.6442,2.7085,2.7284,2.7417,2.8266,2.8748,2.9002,2.9002,2.9297,2.9578,2.9127,3.0048,3.1106,3.0638,3.1398,3.2284,3.2065,3.2454,3.3054,3.3536,3.3997,3.4552,3.5335,3.5504,3.5504,3.5504,3.5504,3.5504,3.5504,3.5504,3.5504,3.5504,3.4921,3.4668,3.51,3.4188,3.3844,3.4726,3.4023,3.3858,3.4756,3.4412,3.4174,3.4174,3.3242,3.3003,3.3693,3.23,3.1914,3.2795,3.3683,3.3728,3.2841,3.2841,3.2841,3.2856,3.3514,3.3589,1.57,1.5868,0.0,1.5787,1.5944,0.0,1.6447,0.0,1.6693,0.0,0.0,0.0,0.0,0.0,0.0,1.2891,1.2074,0.0,0.0,1.1342,0.0,0.0,0.0,0.0,0.0,0.0,1.111,1.1542,1.1761,1.2537,1.4083,1.4239,1.4776,1.5894,1.6293,1.6798,1.7398,1.7928,1.8456,1.9008,1.9547,1.9798,1.9823,2.0652,2.1217,2.1601,2.2622,2.355,2.4344,2.4587,2.5119,2.5825,2.6089,2.6353,2.6649,2.7228,2.7799,2.8338,2.8903,2.9445,2.9889,2.9889,3.019,3.0432,3.0017,3.0916,3.1913,3.1222,3.1947,3.2849,3.2661,3.3112,3.3695,3.4122,3.4532,3.4966,3.5415,3.5504,3.5504,3.5504,3.5504,3.5504,3.5504,3.5504,3.5504,3.5504,3.513,3.4996,3.5444,3.4756,3.4547,3.5415,3.4726,3.4562,3.5429,3.51,3.4846,3.4846,3.3944,3.378,3.4641,3.2933,3.2724,3.4416,3.4832,3.4665,3.3918,3.3634,3.3514,3.3589,3.4203,3.4414]}]]